[[[{"header":{"parameterUnit":"kt","parameterCategory":2,"dx":1,"dy":1,"la1":29.587661999999998,"la2":31.0,"lo1":-88.76705300000003,"lo2":-86.6583820000003,"nx":115,"ny":88,"refTime":"2022-10-22T06:00:00:Z","depth":0,"parameterNumber":1,"parameterNumberName":"U-component_of_WINDS"},"data":[5.5633,5.5633,5.5633,5.5633,5.5633,5.5633,5.526,5.4488,5.4862,5.3342,4.8745,4.4944,4.2284,4.1523,3.3139,2.9314,2.814,2.6599,2.5833,2.5045,2.5056,2.5056,2.5077,2.5109,2.5246,2.551,2.5785,2.5859,2.6007,2.5954,2.5891,2.5922,2.5912,2.5901,2.5891,2.5795,2.5364,2.4014,2.2754,1.8646,1.1426,-0.0,-0.0,-0.0,-0.0,-0.0,-0.0,-0.0,-1.177,-1.6048,-2.2662,-2.814,-3.0476,-3.1262,-3.1262,-3.1262,-3.1262,-3.5448,-3.925,-4.2284,-4.608,-5.257,-5.5633,-5.5633,-5.5633,-5.5633,-5.6007,-5.6729,-5.7821,-5.8564,-5.9305,-6.0441,-6.1918,-6.4436,-6.9474,-7.628,-8.2048,-8.3826,-8.452,-8.4556,-8.4903,-8.5559,-8.6938,-8.7551,-8.8124,-8.8996,-8.9181,-8.884,-8.8422,-8.9992,-9.1448,-9.4641,-9.7913,-10.2079,-10.6731,-10.7639,-10.7707,-10.6959,-10.6352,-10.5931,-10.551,-10.4996,-10.4961,-10.5826,-10.7174,-10.8572,-11.0168,-11.1965,-11.5323,-11.8975,-12.2031,-12.5322,-12.8414,-13.0347,-13.1204,5.5633,5.5633,5.5633,5.5633,5.5633,5.5633,5.3717,5.1422,5.4091,5.3342,4.9122,4.1523,3.8485,3.6201,3.121,2.9289,2.7764,2.6211,2.5445,2.5056,2.5056,2.5056,2.5056,2.5087,2.5341,2.5658,2.5996,2.6144,2.625,2.626,2.626,2.6345,2.6356,2.6345,2.6292,2.6155,2.5912,2.4513,2.1156,1.583,1.0224,-0.0,-0.0,-0.0,-0.0,-0.0,-0.0,-0.8245,-1.3739,-1.8412,-2.3449,-2.8527,-3.0876,-3.1262,-3.1262,-3.1262,-3.1262,-3.3923,-3.8102,-4.1523,-4.608,-4.9896,-5.3717,-5.526,-5.5633,-5.5633,-5.5633,-5.638,-5.7821,-5.8564,-5.9305,-6.0046,-6.118,-6.2996,-6.9474,-7.5925,-8.0229,-8.4173,-8.452,-8.452,-8.4867,-8.5559,-8.6249,-8.7282,-8.8273,-8.9298,-8.9713,-8.9371,-8.9327,-9.0319,-9.265,-9.591,-9.9295,-10.3454,-10.8147,-10.8969,-10.8736,-10.8035,-10.7427,-10.6819,-10.6211,-10.6051,-10.5826,-10.6266,-10.6845,-10.8239,-10.9782,-11.0799,-11.3908,-11.7656,-12.1073,-12.4685,-12.7707,-13.0309,-13.1783,5.5633,5.5633,5.5633,5.5633,5.5633,5.5633,5.4488,5.2945,5.2195,5.1046,4.8367,4.1523,3.7352,3.6585,3.0823,2.814,2.7353,2.5823,2.5445,2.5056,2.5056,2.5056,2.5056,2.5066,2.5362,2.5637,2.5965,2.6229,2.6377,2.6451,2.6451,2.643,2.643,2.6419,2.6408,2.6334,2.6134,2.5817,2.2914,1.7884,1.1755,-0.0,-0.0,-0.0,-0.0,-0.0,-0.0,-0.3533,-0.941,-1.5254,-2.3878,-2.8976,-3.0889,-3.1262,-3.1262,-3.1262,-3.1636,-3.3167,-3.6969,-4.1142,-4.5323,-4.9519,-5.3342,-5.526,-5.5633,-5.5633,-5.5633,-5.6007,-5.7101,-5.8192,-5.8934,-5.9701,-6.0811,-6.3363,-6.9112,-7.3429,-7.7021,-8.2014,-8.452,-8.452,-8.4867,-8.5559,-8.6594,-8.7282,-8.7968,-8.9335,-9.0016,-8.9637,-8.9937,-9.0421,-9.4187,-9.7712,-10.1432,-10.5692,-10.9028,-10.9764,-10.9577,-10.9156,-10.8595,-10.7941,-10.7445,-10.7052,-10.6693,-10.6941,-10.7423,-10.8526,-10.9152,-11.0408,-11.3166,-11.6174,-11.9681,-12.3718,-12.6886,-12.9991,-13.1645,5.5633,5.5633,5.5633,5.5633,5.5633,5.5633,5.5633,5.526,5.0272,4.799,4.6458,4.0014,3.5832,3.4679,3.0063,2.774,2.6965,2.5812,2.5056,2.5056,2.5056,2.5056,2.5056,2.5066,2.5278,2.5552,2.5774,2.5975,2.626,2.6408,2.6451,2.6451,2.6451,2.6451,2.644,2.6324,2.6134,2.5827,2.4094,2.1077,1.5319,-0.0,-0.0,-0.0,-0.0,-0.0,-0.0,-0.0,-0.627,-1.4486,-2.4339,-2.8636,-3.0514,-3.1276,-3.1262,-3.1262,-3.1262,-3.2781,-3.5832,-3.9997,-4.3805,-4.799,-5.2195,-5.4114,-5.5633,-5.5633,-5.5633,-5.6007,-5.6729,-5.7473,-5.8564,-5.933,-6.0811,-6.4409,-6.8388,-7.0917,-7.3429,-7.8788,-8.4173,-8.452,-8.452,-8.5559,-8.6594,-8.7625,-8.831,-8.8994,-8.9676,-8.9979,-9.0242,-9.0505,-9.3884,-9.8454,-10.2637,-10.5598,-10.9147,-11.0512,-11.0232,-10.9858,-10.9624,-10.8969,-10.8523,-10.8372,-10.8209,-10.8138,-10.8046,-10.8522,-10.9385,-11.0159,-11.1606,-11.4549,-11.8089,-12.2658,-12.6079,-12.9758,-13.1742,5.5633,5.5633,5.5633,5.5633,5.5633,5.5633,5.5633,5.4862,4.7612,4.3805,4.2665,3.5448,3.2408,3.2009,2.9689,2.774,2.6965,2.5812,2.5056,2.5056,2.5056,2.5056,2.5056,2.5077,2.5235,2.5426,2.5637,2.5848,2.6113,2.6324,2.6451,2.6451,2.6451,2.6408,2.6377,2.625,2.6028,2.5743,2.5177,2.3046,1.8121,-0.0,-0.0,-0.0,-0.0,-0.0,-0.0,-0.0,-0.7461,-1.9649,-2.756,-2.9073,-3.0178,-3.0514,-3.1262,-3.1262,-3.1262,-3.2022,-3.3923,-3.8868,-4.2284,-4.6478,-5.1046,-5.4091,-5.526,-5.5633,-5.5633,-5.5633,-5.638,-5.7101,-5.8217,-5.933,-6.0441,-6.2996,-6.7299,-7.0557,-7.3787,-7.8083,-8.2746,-8.452,-8.452,-8.5559,-8.6594,-8.7282,-8.7968,-8.9335,-9.0016,-9.0016,-8.9979,-8.9979,-9.3829,-9.8705,-10.1391,-10.3686,-10.7582,-11.0126,-11.0343,-11.0699,-11.0606,-11.0045,-10.9859,-10.9899,-10.9978,-10.9579,-10.9154,-10.958,-10.928,-10.9524,-11.0584,-11.3464,-11.6989,-12.1432,-12.5427,-12.928,-13.1465,5.5633,5.5633,5.5633,5.5633,5.5633,5.5633,5.5633,5.4114,4.6856,4.3425,4.2284,3.4679,3.1262,3.0863,2.9314,2.814,2.774,2.6211,2.5056,2.5056,2.5056,2.5056,2.5056,2.5077,2.5193,2.5352,2.5542,2.5732,2.6081,2.6313,2.643,2.6419,2.6451,2.6366,2.6239,2.6091,2.5869,2.5605,2.4595,2.1687,1.4927,-0.0,-0.0,-0.0,-0.0,-0.0,-0.0,-0.0,-0.0,-2.6008,-2.1587,-2.3909,-3.0579,-3.0127,-3.0476,-3.1262,-3.1262,-3.1262,-3.2022,-3.6969,-4.0379,-4.4185,-4.8367,-5.257,-5.4114,-5.5633,-5.5633,-5.5633,-5.6007,-5.6753,-5.7845,-5.8959,-6.0071,-6.1549,-6.5871,-7.0557,-7.447,-7.805,-8.128,-8.3826,-8.4867,-8.5559,-8.6249,-8.6938,-8.7968,-8.9335,-9.0016,-9.0016,-9.0016,-9.0016,-9.3278,-9.7517,-9.981,-10.208,-10.5642,-10.8835,-10.9816,-11.0793,-11.0839,-11.1008,-11.1247,-11.1195,-11.1087,-11.0833,-11.0702,-10.9921,-10.9329,-10.9329,-11.0327,-11.2815,-11.5868,-12.0698,-12.4862,-12.8411,-13.0229,5.5492,5.5633,5.5633,5.5633,5.5633,5.5633,5.5633,5.4488,4.6856,4.3425,4.3045,3.4679,3.1262,3.1262,2.9314,2.8527,2.7364,2.6211,2.5445,2.5056,2.5056,2.5056,2.5056,2.5066,2.5151,2.5278,2.5404,2.5584,2.588,2.6102,2.6208,2.625,2.6176,2.6113,2.6007,2.5912,2.5626,2.5373,2.5246,2.0423,1.2928,0.4705,-0.0,-0.0,-0.0,-0.0,-0.0,-0.0,-0.0,-1.9657,-1.6466,-1.9177,-2.7811,-2.8551,-2.9701,-3.0863,-3.1262,-3.1262,-3.2022,-3.5063,-3.925,-4.3425,-4.608,-4.9896,-5.4114,-5.5633,-5.5633,-5.5633,-5.5633,-5.7101,-5.8192,-5.8934,-5.9675,-6.1892,-6.5141,-6.9474,-7.3398,-7.7343,-8.093,-8.3095,-8.452,-8.5213,-8.6594,-8.7282,-8.7968,-8.9335,-9.0016,-9.0016,-9.0016,-9.0016,-9.2309,-9.5574,-9.8503,-10.1714,-10.528,-10.8522,-10.9862,-11.0839,-11.0839,-11.1055,-11.1436,-11.2069,-11.2152,-11.2092,-11.1721,-11.1037,-10.9768,-11.018,-11.0694,-11.3127,-11.533,-11.9906,-12.4016,-12.6794,-12.9107,5.5164,5.561,5.5633,5.5633,5.5633,5.5633,5.5633,5.4886,4.6856,4.3425,4.3045,3.5063,3.1636,3.0876,2.9314,2.814,2.7752,2.5823,2.5445,2.5056,2.5056,2.5056,2.5056,2.5056,2.5087,2.5161,2.5267,2.5404,2.5457,2.5722,2.5827,2.5817,2.588,2.5785,2.5679,2.5552,2.5352,2.5225,2.474,2.0398,1.2532,-0.0,-0.0,-0.0,-0.0,-0.0,-0.0,-0.0,-0.0,-0.5493,-1.0977,-1.6452,-2.0744,-2.3838,-2.7353,-3.0076,-3.1262,-3.1262,-3.2022,-3.4308,-3.8485,-4.2665,-4.3805,-4.8367,-5.2592,-5.5633,-5.5633,-5.5633,-5.5633,-5.6729,-5.8192,-5.8564,-5.9305,-6.1865,-6.4775,-6.8388,-7.2324,-7.5925,-7.9492,-8.2746,-8.4173,-8.5213,-8.6594,-8.7282,-8.7968,-8.8994,-8.9676,-9.0016,-9.0016,-9.0016,-9.1335,-9.4576,-9.7517,-10.1391,-10.4962,-10.8209,-10.9862,-11.0839,-11.0839,-11.1149,-11.238,-11.3107,-11.2981,-11.3211,-11.2939,-11.2014,-11.0598,-11.0721,-11.1455,-11.3156,-11.5336,-11.9109,-12.2214,-12.5026,-12.7109,5.5141,5.561,5.5633,5.5633,5.5633,5.5633,5.5633,5.4488,4.9896,4.5701,4.2665,3.7735,3.3923,3.1249,2.9314,2.814,2.814,2.6211,2.5056,2.5056,2.5056,2.5056,2.5056,2.5056,2.5056,2.5077,2.5161,2.5278,2.5383,2.5489,2.5574,2.5669,2.5743,2.5563,2.5352,2.5267,2.514,2.5119,2.4329,2.0797,1.2532,-0.0,-0.0,-0.0,-0.0,-0.0,-0.0,-0.0,-0.0,-0.0,-0.8627,-1.6075,-1.7999,-2.1496,-2.6577,-2.9689,-3.1262,-3.1262,-3.1262,-3.3552,-3.6969,-4.2284,-4.3045,-4.7234,-5.3342,-5.526,-5.5633,-5.5633,-5.5633,-5.6729,-5.8192,-5.8192,-5.9305,-6.0811,-6.4097,-6.7328,-7.0917,-7.3041,-7.6634,-8.2363,-8.452,-8.5213,-8.6249,-8.6938,-8.7625,-8.8652,-8.9638,-8.9676,-9.0016,-9.0016,-9.0658,-9.3278,-9.5866,-9.9442,-10.3366,-10.7582,-10.9862,-11.053,-11.0839,-11.1149,-11.2073,-11.2993,-11.3716,-11.3887,-11.3178,-11.2453,-11.1281,-11.0305,-11.0191,-11.1766,-11.4379,-11.7302,-12.0208,-12.2717,-12.4749,5.4882,5.5375,5.5563,5.5633,5.5633,5.5633,5.5633,5.526,5.257,4.8367,4.3425,3.925,3.5063,3.1622,2.9314,2.814,2.7752,2.6211,2.5056,2.5056,2.5056,2.5056,2.5056,2.5056,2.5056,2.5056,2.5066,2.5161,2.5299,2.5278,2.5394,2.5457,2.5415,2.532,2.514,2.5056,2.5056,2.5066,2.4319,2.0797,1.2521,-0.0,-0.0,-0.0,-0.0,-0.0,-0.0,-0.0,-0.0,-0.0,-0.6676,-1.4119,-1.8787,-1.9161,-2.5024,-3.0089,-3.1262,-3.1262,-3.1262,-3.2022,-3.4693,-3.925,-4.2665,-4.6458,-5.257,-5.4488,-5.5633,-5.5633,-5.5633,-5.6729,-5.7821,-5.8564,-5.9305,-6.0811,-6.2654,-6.5871,-6.9835,-7.1965,-7.5214,-8.093,-8.452,-8.5213,-8.5559,-8.6249,-8.7282,-8.831,-8.9335,-8.9676,-9.0016,-9.0016,-9.0016,-9.2309,-9.4909,-9.8175,-10.2402,-10.7582,-11.053,-11.0839,-11.0839,-11.1149,-11.1766,-11.2687,-11.346,-11.4225,-11.3566,-11.2892,-11.1965,-11.0989,-11.0061,-11.018,-11.2778,-11.5417,-11.8631,-12.1151,-12.3285,5.439,5.4859,5.5422,5.5633,5.5633,5.5633,5.5633,5.5633,5.4886,5.067,4.3425,3.9632,3.5832,3.1636,2.9314,2.814,2.7752,2.6211,2.5056,2.5056,2.5056,2.5056,2.5056,2.5056,2.5056,2.5056,2.5056,2.5066,2.5087,2.5109,2.5098,2.514,2.5183,2.5109,2.5066,2.5056,2.5056,2.5066,2.5119,1.9998,1.2527,-0.0,-0.0,-0.0,-0.0,-0.0,-0.0,-0.0,-0.0,-0.3535,-0.6678,-1.1765,-1.9185,-1.9956,-2.3459,-3.0089,-3.1262,-3.1262,-3.1262,-3.1262,-3.3538,-3.7735,-4.1904,-4.5323,-4.9498,-5.2945,-5.5633,-5.5633,-5.5633,-5.6753,-5.7473,-5.8564,-5.9675,-6.0811,-6.1549,-6.4097,-6.9112,-7.2324,-7.628,-8.093,-8.3095,-8.452,-8.5213,-8.5904,-8.6938,-8.7968,-8.8994,-8.9676,-9.0016,-9.0016,-9.0016,-9.1972,-9.4909,-9.7846,-10.1434,-10.6952,-11.0219,-11.0839,-11.0839,-11.1149,-11.1766,-11.238,-11.3251,-11.4067,-11.3704,-11.3085,-11.2209,-11.1623,-11.0452,-10.9662,-11.1716,-11.3831,-11.7034,-12.0001,-12.2699,5.4366,5.4882,5.5422,5.5633,5.5633,5.5633,5.5633,5.5633,5.5633,5.1046,4.3425,4.1904,3.7719,3.2009,2.9314,2.814,2.7752,2.6211,2.5445,2.5056,2.5056,2.5056,2.5056,2.5056,2.5056,2.5056,2.5056,2.5056,2.5056,2.5056,2.5056,2.5056,2.5056,2.5056,2.5056,2.5056,2.5056,2.5066,2.4319,2.0797,1.2527,-0.0,-0.0,-0.0,-0.0,-0.0,-0.0,-0.0,-0.0,-0.3142,-0.5496,-1.0189,-1.5658,-2.0337,-2.3449,-2.8128,-3.1262,-3.1262,-3.1262,-3.1636,-3.3167,-3.66,-4.0761,-4.4944,-4.9142,-5.3342,-5.526,-5.5633,-5.5633,-5.6007,-5.7101,-5.8192,-5.9305,-6.0811,-6.1206,-6.3363,-6.8025,-7.1247,-7.5569,-8.0229,-8.2398,-8.4173,-8.4867,-8.5213,-8.6249,-8.7282,-8.8652,-8.9335,-8.9676,-9.0016,-9.0016,-9.1972,-9.4576,-9.7188,-10.0136,-10.4644,-10.8568,-10.9193,-11.0839,-11.1149,-11.1457,-11.1766,-11.2639,-11.346,-11.3742,-11.3227,-11.2501,-11.1867,-11.0696,-10.9524,-11.0694,-11.2223,-11.5145,-11.8101,-12.1248,5.4249,5.4601,5.5352,5.5633,5.5633,5.5633,5.5633,5.5633,5.5633,5.257,4.799,4.4564,3.9616,3.3524,3.0063,2.814,2.7376,2.5833,2.5445,2.5056,2.5056,2.5056,2.5056,2.5056,2.5056,2.5056,2.5056,2.5056,2.5056,2.5056,2.5056,2.5056,2.5056,2.5056,2.5056,2.5056,2.5056,2.5066,2.4329,2.0797,1.2527,-0.0,-0.0,-0.0,-0.0,-0.0,-0.0,-0.0,-0.0,-0.1964,-0.3535,-0.9402,-1.5645,-1.7992,-2.3061,-3.0089,-3.1262,-3.1262,-3.1262,-3.1636,-3.2408,-3.5832,-4.0014,-4.4185,-4.6458,-5.257,-5.4886,-5.5633,-5.5633,-5.6356,-5.7473,-5.8192,-5.8934,-6.0441,-6.1918,-6.3703,-6.66,-6.875,-7.2683,-7.8436,-8.1314,-8.3478,-8.3826,-8.452,-8.5904,-8.6938,-8.831,-8.9335,-8.9676,-9.0016,-9.0016,-9.1297,-9.3908,-9.6528,-10.0136,-10.3366,-10.6907,-10.8881,-11.0839,-11.0839,-11.1149,-11.1457,-11.2333,-11.2802,-11.3331,-11.3123,-11.2696,-11.2062,-11.094,-10.972,-11.013,-11.0877,-11.328,-11.6228,-12.0469,5.4061,5.4155,5.5211,5.5633,5.5633,5.5633,5.5633,5.5633,5.5633,5.526,5.3342,4.7234,4.0379,3.4649,3.0063,2.7764,2.701,2.5833,2.5056,2.5056,2.5056,2.5056,2.5056,2.5056,2.5056,2.5056,2.5056,2.5056,2.5056,2.5056,2.5056,2.5056,2.5056,2.5056,2.5056,2.5056,2.5056,2.5066,2.5119,2.0788,1.2532,-0.0,-0.0,-0.0,-0.0,-0.0,-0.0,-0.0,-0.0393,-0.157,-0.432,-0.941,-1.4474,-1.7212,-2.2274,-2.814,-3.0476,-3.1262,-3.1262,-3.1262,-3.1262,-3.3552,-3.6969,-4.1523,-4.4564,-5.1046,-5.4862,-5.5633,-5.5633,-5.638,-5.7473,-5.8564,-5.9305,-6.0441,-6.1549,-6.3363,-6.4802,-6.6964,-7.0887,-7.6248,-7.9844,-8.2014,-8.2746,-8.452,-8.5904,-8.6938,-8.831,-8.8957,-8.9676,-9.0016,-9.0016,-9.0658,-9.3278,-9.5866,-9.9442,-10.3045,-10.6276,-10.8568,-11.053,-11.0839,-11.0839,-11.1457,-11.2073,-11.2898,-11.3364,-11.3066,-11.2842,-11.2404,-11.1477,-11.011,-10.928,-10.9799,-11.1666,-11.5145,-11.9947,5.4787,5.4155,5.5211,5.5633,5.5633,5.5633,5.5633,5.5633,5.5633,5.5633,5.3342,4.7234,3.9233,3.1982,2.9302,2.7764,2.701,2.5833,2.5056,2.5056,2.5056,2.5056,2.5056,2.5056,2.5056,2.5056,2.5056,2.5056,2.5056,2.5056,2.5056,2.5056,2.5056,2.5056,2.5056,2.5056,2.5056,2.5056,2.5119,2.0398,1.2527,0.4313,-0.0,-0.0,-0.0,-0.0,-0.0,-0.0,-0.0,-0.3535,-0.55,-0.863,-1.3705,-1.7212,-2.1885,-2.6178,-3.0089,-3.1262,-3.1262,-3.1262,-3.1262,-3.2022,-3.3923,-3.7735,-4.2665,-5.067,-5.5633,-5.5633,-5.5633,-5.638,-5.7473,-5.8192,-5.933,-6.0441,-6.118,-6.1918,-6.2996,-6.5506,-6.9083,-7.3756,-7.7343,-7.9877,-8.3095,-8.452,-8.5904,-8.6938,-8.7968,-8.8957,-8.9298,-9.0016,-9.0016,-9.0016,-9.1972,-9.3613,-9.7517,-10.1434,-10.5325,-10.8255,-10.9862,-11.0839,-11.0839,-11.1149,-11.2073,-11.2687,-11.3298,-11.3152,-11.3085,-11.2746,-11.2111,-11.0745,-10.9622,-10.9476,-11.0877,-11.4873,-11.9159,5.5149,5.4155,5.5211,5.5633,5.5633,5.5633,5.5633,5.5633,5.5633,5.5633,5.4488,5.0293,4.3805,3.5418,2.9302,2.7376,2.6222,2.5445,2.5056,2.5056,2.5056,2.5056,2.5056,2.5056,2.5056,2.5056,2.5056,2.5056,2.5056,2.5056,2.5056,2.5056,2.5056,2.5056,2.5056,2.5056,2.5056,2.5066,2.4298,2.0771,1.2527,-0.0,-0.0,-0.0,-0.0,-0.0,-0.0,-0.0,-0.0,-0.432,-0.5498,-0.785,-1.2928,-1.7219,-2.0718,-2.4615,-2.8915,-3.1262,-3.1262,-3.1262,-3.1262,-3.1249,-3.2022,-3.5063,-4.2665,-5.0293,-5.5633,-5.5633,-5.6007,-5.6729,-5.7845,-5.8588,-5.9701,-6.0441,-6.1206,-6.1918,-6.2654,-6.4802,-6.7299,-7.1247,-7.5214,-7.9492,-8.3095,-8.4867,-8.6249,-8.7282,-8.7968,-8.8957,-8.9638,-9.0016,-9.0016,-9.0016,-9.0997,-9.2309,-9.6197,-10.0136,-10.4006,-10.6907,-10.8881,-11.0839,-11.0839,-11.1457,-11.2073,-11.2687,-11.3603,-11.3441,-11.3377,-11.2892,-11.2209,-11.1135,-11.0012,-11.0942,-11.1945,-11.5688,-11.8631,5.5873,5.4155,5.5187,5.5633,5.5633,5.5633,5.5633,5.5633,5.5633,5.5633,5.5633,5.4114,4.8765,4.0761,3.1596,2.6988,2.5445,2.5056,2.5056,2.5056,2.5056,2.5056,2.5056,2.5056,2.5056,2.5056,2.5056,2.5056,2.5056,2.5056,2.5056,2.5056,2.5056,2.5056,2.5056,2.5056,2.5056,2.5056,2.5056,2.1532,1.4095,-0.0,-0.0,-0.0,-0.0,-0.0,-0.0,-0.0,-0.2357,-0.4713,-0.4713,-0.7062,-1.1364,-1.6048,-2.0718,-2.4226,-2.8515,-3.1262,-3.1262,-3.1262,-3.1262,-3.1262,-3.1262,-3.5832,-4.1904,-4.9519,-5.3342,-5.4862,-5.638,-5.7101,-5.8192,-5.933,-6.0441,-6.118,-6.1575,-6.1575,-6.1575,-6.3363,-6.66,-7.0196,-7.3429,-7.8083,-8.3443,-8.4831,-8.6249,-8.7282,-8.831,-8.8957,-8.9638,-9.0016,-9.0016,-9.0016,-9.0658,-9.1972,-9.5574,-9.883,-10.2402,-10.5598,-10.8209,-11.0839,-11.1149,-11.1457,-11.238,-11.2993,-11.386,-11.4285,-11.4059,-11.3478,-11.2355,-11.1477,-11.0598,-11.1571,-11.3105,-11.5688,-11.8631,5.5873,5.4155,5.5211,5.5633,5.5633,5.5633,5.5633,5.5633,5.5633,5.5633,5.4886,5.1443,4.7234,4.1142,3.4649,2.8902,2.5056,2.5056,2.5056,2.5056,2.5056,2.5056,2.5056,2.5056,2.5056,2.5056,2.5056,2.5056,2.5056,2.5056,2.5056,2.5056,2.5056,2.5056,2.5056,2.5056,2.5056,2.5056,2.5056,2.4688,1.9209,-0.0,-0.0,-0.0,-0.0,-0.0,-0.0,-0.2749,-0.4713,-0.5498,-0.5891,-0.6283,-0.8634,-1.4883,-1.9169,-2.1116,-2.7353,-3.0476,-3.1262,-3.1262,-3.1262,-3.1262,-3.1262,-3.5832,-4.1904,-4.5701,-4.9122,-5.4114,-5.6007,-5.6729,-5.8192,-5.8564,-5.9701,-6.118,-6.1575,-6.1575,-6.1575,-6.2654,-6.5534,-6.9474,-7.1996,-7.6989,-8.3095,-8.5559,-8.6594,-8.7282,-8.831,-8.9335,-8.9676,-9.0016,-9.0016,-9.0016,-9.0658,-9.1972,-9.3908,-9.7188,-10.1391,-10.4644,-10.7267,-11.0219,-11.1149,-11.141,-11.2073,-11.2993,-11.386,-11.4418,-11.4635,-11.4503,-11.3234,-11.2062,-11.1184,-11.1733,-11.3358,-11.5688,-11.8631,5.5873,5.4178,5.5187,5.5633,5.5633,5.5633,5.5633,5.5633,5.5633,5.5633,5.4886,5.2592,4.801,4.1886,3.732,3.1955,2.6976,2.5056,2.5056,2.5056,2.5056,2.5056,2.5056,2.5056,2.5056,2.5056,2.5056,2.5056,2.5056,2.5056,2.5056,2.5056,2.5056,2.5056,2.5056,2.5056,2.5056,2.5056,2.5056,2.5087,2.3568,-0.0,-0.0,-0.0,-0.0,-0.0,-0.1964,-0.5105,-0.6283,-0.6283,-0.6283,-0.6283,-0.863,-1.3314,-1.8779,-2.0337,-2.6577,-3.1262,-3.1262,-3.1262,-3.1262,-3.1262,-3.1262,-3.5063,-4.0761,-4.4185,-4.7612,-5.3342,-5.6007,-5.7101,-5.8192,-5.8934,-6.0071,-6.1206,-6.1575,-6.1575,-6.1575,-6.1575,-6.5871,-7.1606,-7.3041,-7.628,-8.2712,-8.5559,-8.6594,-8.7625,-8.8652,-8.9335,-9.0016,-9.0016,-9.0016,-9.0016,-9.0356,-9.0997,-9.1972,-9.6528,-10.1391,-10.3686,-10.5959,-10.9551,-11.1149,-11.1457,-11.2073,-11.2687,-11.3298,-11.4164,-11.443,-11.4343,-11.3523,-11.2697,-11.1913,-11.1695,-11.3561,-11.5688,-11.8578,5.5873,5.4155,5.5211,5.5633,5.5633,5.5633,5.5633,5.5633,5.5633,5.5633,5.5633,5.526,4.9519,4.2267,4.0345,3.4236,2.6588,2.5056,2.5056,2.5056,2.5056,2.5056,2.5056,2.5056,2.5056,2.5056,2.5056,2.5056,2.5056,2.5056,2.5056,2.5056,2.5056,2.5056,2.5056,2.5056,2.5056,2.5056,2.5056,2.5087,2.3158,1.5678,0.7833,-0.0,-0.0,-0.2357,-0.432,-0.55,-0.6283,-0.6278,-0.6278,-0.628,-0.7843,-1.4095,-1.8381,-2.0727,-2.6577,-3.1262,-3.1262,-3.1262,-3.1262,-3.1262,-3.1262,-3.5063,-4.0761,-4.3805,-4.7612,-5.2967,-5.638,-5.7101,-5.8564,-5.8934,-6.0071,-6.1206,-6.1575,-6.1575,-6.1575,-6.2286,-6.4802,-7.1637,-7.3398,-7.5925,-8.163,-8.5559,-8.6594,-8.7625,-8.8652,-8.9676,-9.0016,-9.0016,-9.0016,-9.0016,-9.0016,-9.0016,-9.0016,-9.5906,-10.0461,-10.2402,-10.5959,-10.9551,-11.1149,-11.1457,-11.1766,-11.238,-11.2687,-11.3251,-11.362,-11.3839,-11.3268,-11.279,-11.2402,-11.1655,-11.3914,-11.5947,-11.8791,5.5873,5.4155,5.5211,5.5633,5.5633,5.5633,5.5633,5.5633,5.5633,5.5633,5.5633,5.4488,4.9519,4.1868,3.9582,3.3866,2.7364,2.5056,2.5056,2.5056,2.5056,2.5056,2.5056,2.5056,2.5056,2.5056,2.5056,2.5056,2.5056,2.5056,2.5056,2.5056,2.5056,2.5056,2.5056,2.5056,2.5056,2.5056,2.5056,2.5087,2.3558,1.685,0.8224,0.0785,-0.3142,-0.5105,-0.5498,-0.5891,-0.6283,-0.628,-0.6278,-0.6278,-0.8235,-1.3699,-1.8779,-1.9558,-2.6965,-3.0863,-3.1262,-3.1262,-3.1262,-3.1262,-3.1262,-3.5063,-4.1142,-4.3805,-4.7612,-5.257,-5.6007,-5.6729,-5.8192,-5.8934,-6.0071,-6.118,-6.1575,-6.1575,-6.1575,-6.1575,-6.5168,-7.1277,-7.3429,-7.6634,-8.163,-8.5559,-8.6594,-8.7625,-8.8994,-9.0016,-9.0016,-9.0016,-9.0016,-9.0016,-9.0016,-9.0016,-9.0658,-9.4909,-9.883,-10.1757,-10.6276,-10.8881,-11.0839,-11.1457,-11.1766,-11.1766,-11.2073,-11.2687,-11.3107,-11.3475,-11.3296,-11.2873,-11.2598,-11.2104,-11.391,-11.6361,-11.8631,5.5873,5.4155,5.5187,5.5633,5.5633,5.5633,5.5633,5.5633,5.5633,5.5633,5.5633,5.526,4.9498,4.0726,3.9582,3.4236,2.6976,2.5056,2.5056,2.5056,2.5056,2.5056,2.5056,2.5056,2.5056,2.5056,2.5056,2.5056,2.5056,2.5056,2.5056,2.5056,2.5056,2.5056,2.5056,2.5056,2.5056,2.5056,2.5056,2.5087,2.3959,1.7241,0.8616,-0.157,-0.5105,-0.6283,-0.6283,-0.6283,-0.628,-0.628,-0.6278,-0.7062,-1.0189,-1.5267,-1.9948,-2.2283,-2.8128,-3.0863,-3.1262,-3.1262,-3.1262,-3.1262,-3.1262,-3.5817,-4.0761,-4.3425,-4.7234,-5.3342,-5.638,-5.7101,-5.8959,-5.933,-6.0071,-6.1206,-6.1575,-6.1575,-6.1575,-6.1575,-6.4436,-7.0887,-7.3072,-7.7375,-8.1664,-8.4867,-8.6594,-8.7282,-8.8652,-8.9676,-8.9676,-9.0016,-9.0016,-9.0016,-9.0016,-9.0356,-9.0997,-9.2943,-9.7188,-10.1434,-10.6276,-10.9551,-11.0839,-11.1149,-11.1457,-11.1457,-11.1457,-11.1766,-11.238,-11.3251,-11.3524,-11.2863,-11.2741,-11.2742,-11.3564,-11.5645,-11.7993,5.5873,5.4155,5.5211,5.5633,5.5633,5.5633,5.5633,5.5633,5.5633,5.5633,5.5633,5.5633,4.9519,4.0345,3.9964,3.462,2.5823,2.5056,2.5056,2.5056,2.5056,2.5056,2.5056,2.5056,2.5056,2.5056,2.5056,2.5056,2.5056,2.5056,2.5056,2.5056,2.5056,2.5056,2.5056,2.5056,2.5056,2.5056,2.5056,2.4298,2.1578,1.6452,0.783,-0.4318,-0.6286,-0.6283,-0.628,-0.6278,-0.6278,-0.6278,-0.6278,-0.8235,-1.175,-1.6432,-2.0329,-2.4615,-2.8902,-3.1262,-3.1262,-3.1262,-3.1262,-3.1262,-3.1636,-3.4693,-4.2284,-4.3425,-4.7234,-5.4091,-5.6753,-5.7845,-5.933,-5.9726,-6.0466,-6.1206,-6.1575,-6.1575,-6.1575,-6.1575,-6.5168,-7.0527,-7.3429,-7.5925,-8.3443,-8.5559,-8.6594,-8.7282,-8.831,-8.9335,-8.9676,-9.0016,-9.0016,-9.0016,-9.0016,-9.0016,-9.0658,-9.1297,-9.5574,-9.981,-10.6276,-11.0839,-11.0839,-11.1149,-11.1149,-11.0839,-11.0839,-11.1149,-11.1766,-11.2333,-11.3251,-11.3056,-11.259,-11.255,-11.2919,-11.4696,-11.7034,5.5873,5.4155,5.5211,5.5633,5.5633,5.5633,5.5633,5.5633,5.5633,5.5633,5.5633,5.5633,4.9896,4.0743,4.0345,3.5004,2.5434,2.5434,2.5056,2.5056,2.5056,2.5056,2.5056,2.5056,2.5056,2.5056,2.5056,2.5056,2.5056,2.5056,2.5056,2.5056,2.5056,2.5056,2.5056,2.5056,2.5056,2.5056,2.5056,2.2321,1.7234,1.4486,0.7047,-0.4318,-0.6286,-0.6283,-0.628,-0.6278,-0.6278,-0.6278,-0.6278,-0.8627,-1.2532,-1.6432,-2.0718,-2.5391,-2.8915,-3.1262,-3.1262,-3.1262,-3.1262,-3.1262,-3.1262,-3.4679,-4.1142,-4.3425,-4.7214,-5.5983,-5.7101,-5.7845,-5.8934,-5.9701,-6.0466,-6.1206,-6.1575,-6.1575,-6.1575,-6.1549,-6.4436,-7.1637,-7.3072,-7.6634,-8.2014,-8.5904,-8.7282,-8.7625,-8.8652,-8.9335,-8.9676,-9.0016,-9.0016,-9.0016,-9.0016,-9.0016,-9.0016,-9.0016,-9.4242,-9.9157,-10.5959,-10.9193,-10.9193,-11.0839,-11.0839,-11.0839,-11.0839,-11.0839,-11.1149,-11.1766,-11.238,-11.2534,-11.2429,-11.2154,-11.2402,-11.4471,-11.6166,5.6334,5.4577,5.5328,5.5633,5.5633,5.5633,5.5633,5.5633,5.5633,5.5633,5.5633,5.5633,5.1046,4.4166,4.1488,3.5772,2.889,2.62,2.5056,2.5056,2.5056,2.5056,2.5056,2.5056,2.5056,2.5056,2.5056,2.5056,2.5056,2.5056,2.5056,2.5056,2.5056,2.5056,2.5056,2.5056,2.5056,2.5056,2.4267,2.1134,1.487,1.2131,0.4307,-0.3532,-0.6283,-0.628,-0.6278,-0.6278,-0.6278,-0.6278,-0.667,-0.9406,-1.5261,-1.7992,-2.1894,-2.8128,-3.0089,-3.1262,-3.1262,-3.1262,-3.1262,-3.1262,-3.1262,-3.5448,-4.1142,-4.3425,-4.7214,-5.5563,-5.7449,-5.8564,-5.933,-6.0441,-6.1206,-6.1575,-6.1575,-6.1575,-6.1575,-6.1575,-6.5168,-7.0557,-7.3429,-7.628,-8.4173,-8.6249,-8.7282,-8.831,-8.9335,-8.9676,-9.0016,-9.0016,-9.0016,-9.0016,-9.0016,-9.0016,-9.0016,-9.0318,-9.3613,-9.8503,-10.4006,-10.5959,-10.7896,-11.0839,-11.0839,-11.0839,-11.0839,-11.0839,-11.1149,-11.1457,-11.238,-11.2916,-11.2515,-11.2493,-11.2696,-11.3948,-11.585,5.6673,5.4882,5.5422,5.5633,5.5633,5.5633,5.5633,5.5633,5.5633,5.5633,5.5633,5.5633,5.2195,4.6458,4.1868,3.6922,3.1183,2.6976,2.5056,2.5056,2.5056,2.5056,2.5056,2.5056,2.5056,2.5056,2.5056,2.5056,2.5056,2.5056,2.5056,2.5056,2.5056,2.5056,2.5056,2.5056,2.5056,2.5056,2.4278,2.0753,1.448,0.939,0.235,-0.5498,-0.628,-0.628,-0.6278,-0.6278,-0.6278,-0.6278,-0.6278,-1.0189,-1.7602,-1.8779,-2.2283,-2.9302,-3.1262,-3.1262,-3.1262,-3.1262,-3.1262,-3.1262,-3.1262,-3.4693,-4.2665,-4.3425,-4.797,-5.5166,-5.8192,-5.8934,-6.0441,-6.1206,-6.1575,-6.1575,-6.1575,-6.1575,-6.1575,-6.1918,-6.4436,-7.1277,-7.3072,-7.7343,-8.3408,-8.6594,-8.7625,-8.831,-8.9335,-9.0016,-9.0016,-9.0016,-9.0016,-9.0016,-9.0016,-9.0016,-9.0016,-9.0658,-9.3278,-9.8503,-10.1757,-10.4325,-10.7896,-11.053,-11.0839,-11.0839,-11.0839,-11.1149,-11.1457,-11.1766,-11.2639,-11.3555,-11.3248,-11.2978,-11.3429,-11.3691,-11.5534,5.6649,5.4906,5.5422,5.5633,5.5633,5.5633,5.5633,5.5633,5.5633,5.5633,5.5633,5.526,5.2195,4.6837,4.2267,3.7305,3.1183,2.7364,2.5056,2.5056,2.5056,2.5056,2.5056,2.5056,2.5056,2.5056,2.5056,2.5056,2.5056,2.5056,2.5056,2.5056,2.5056,2.5056,2.5056,2.5056,2.5056,2.5056,2.4698,2.0762,1.2521,0.7044,0.0784,-0.5498,-0.628,-0.6278,-0.6278,-0.6278,-0.6278,-0.6278,-0.6278,-1.0189,-1.7212,-1.8771,-2.2672,-3.0476,-3.1262,-3.1262,-3.1262,-3.1262,-3.1262,-3.1262,-3.2022,-3.4693,-4.1904,-4.4185,-4.8347,-5.7053,-5.8564,-5.9305,-6.0811,-6.1549,-6.1575,-6.1575,-6.1575,-6.1575,-6.1575,-6.1575,-6.5168,-7.0917,-7.3429,-7.628,-8.4485,-8.6594,-8.7625,-8.8652,-8.9298,-9.0016,-9.0016,-9.0016,-9.0016,-9.0016,-9.0016,-9.0016,-9.0016,-9.0997,-9.3613,-9.8503,-10.1757,-10.5007,-10.8881,-11.0219,-11.0839,-11.1149,-11.1149,-11.1766,-11.2073,-11.238,-11.2993,-11.386,-11.3984,-11.3559,-11.3626,-11.4039,-11.5385,5.6442,5.5352,5.5563,5.5633,5.5633,5.5633,5.5633,5.5633,5.5633,5.526,5.4886,5.4511,5.2592,4.8408,4.2267,3.7687,3.4649,2.8128,2.5056,2.5056,2.5056,2.5056,2.5056,2.5056,2.5056,2.5056,2.5056,2.5056,2.5056,2.5056,2.5056,2.5056,2.5056,2.5056,2.5056,2.5056,2.5056,2.5056,2.3909,1.9583,1.1344,0.5479,-0.0,-0.5101,-0.628,-0.6278,-0.6278,-0.6278,-0.6278,-0.6278,-0.6278,-1.0189,-1.7602,-1.9169,-2.2672,-2.9302,-3.1262,-3.1262,-3.1262,-3.1262,-3.1262,-3.1636,-3.3552,-3.7735,-4.2284,-4.6837,-5.0606,-5.7053,-5.8934,-6.0071,-6.118,-6.1575,-6.1575,-6.1575,-6.1575,-6.1575,-6.1575,-6.1575,-6.5168,-7.0887,-7.3429,-7.7663,-8.4067,-8.7282,-8.7968,-8.9335,-8.9676,-9.0016,-9.0016,-9.0016,-9.0016,-9.0016,-9.0016,-9.0016,-9.0016,-9.1972,-9.4576,-9.8175,-10.208,-10.5959,-10.9239,-11.053,-11.0839,-11.0839,-11.1149,-11.1457,-11.238,-11.2687,-11.3298,-11.3812,-11.4274,-11.4198,-11.4112,-11.4396,-11.5815,5.638,5.5633,5.5633,5.5633,5.5633,5.5633,5.5633,5.5633,5.5633,5.4862,5.4114,5.4114,5.2217,4.8031,4.2284,3.7703,3.5034,2.8515,2.5056,2.5056,2.5056,2.5056,2.5056,2.5056,2.5056,2.5056,2.5056,2.5056,2.5056,2.5056,2.5056,2.5056,2.5056,2.5056,2.5056,2.5056,2.5066,2.4677,2.1941,1.6843,0.9785,0.3134,-0.2354,-0.5888,-0.628,-0.6278,-0.6278,-0.6278,-0.6278,-0.6278,-0.6278,-1.0189,-1.6829,-1.8771,-2.2672,-3.0089,-3.1262,-3.1262,-3.1262,-3.1262,-3.1262,-3.2022,-3.5078,-3.925,-4.3425,-4.797,-5.29,-5.8192,-5.9701,-6.0466,-6.1206,-6.1575,-6.1575,-6.1575,-6.1575,-6.1575,-6.1575,-6.1575,-6.5506,-7.1606,-7.447,-7.8722,-8.5451,-8.7625,-8.8273,-8.9676,-9.0016,-9.0016,-9.0016,-9.0016,-9.0016,-9.0016,-9.0016,-9.0016,-9.0997,-9.2309,-9.5574,-9.9157,-10.2724,-10.6592,-10.9193,-11.0839,-11.0839,-11.0839,-11.0839,-11.1149,-11.2073,-11.2993,-11.386,-11.4418,-11.4673,-11.4586,-11.4649,-11.5729,-11.7112,5.638,5.5633,5.5633,5.5633,5.5633,5.5633,5.5633,5.5633,5.5633,5.4886,5.4114,5.4114,5.067,4.5323,4.0743,3.5772,3.1196,2.6965,2.5056,2.5056,2.5056,2.5056,2.5056,2.5056,2.5056,2.5056,2.5056,2.5056,2.5056,2.5056,2.5056,2.5056,2.5056,2.5056,2.5056,2.5056,2.5066,2.3119,1.8405,1.2923,0.8627,-0.0392,-0.5498,-0.6286,-0.628,-0.6278,-0.6278,-0.6278,-0.6278,-0.6278,-0.6278,-1.0189,-1.6822,-1.9169,-2.2672,-2.9689,-3.1262,-3.1262,-3.1262,-3.1262,-3.1249,-3.2395,-3.5448,-4.0014,-4.4944,-4.9477,-5.4023,-5.8564,-6.0096,-6.0466,-6.1575,-6.1575,-6.1575,-6.1575,-6.1575,-6.1575,-6.1549,-6.1549,-6.4775,-7.2294,-7.7277,-8.2259,-8.6865,-8.8615,-8.8994,-8.9676,-9.0016,-9.0016,-9.0016,-9.0016,-9.0016,-9.0016,-9.0016,-9.0016,-9.1335,-9.2943,-9.6197,-9.981,-10.3001,-10.6276,-10.8881,-11.0839,-11.0839,-11.0839,-11.0839,-11.1457,-11.238,-11.3251,-11.4164,-11.5072,-11.5373,-11.5479,-11.5836,-11.6618,-11.8444,5.7101,5.5633,5.5633,5.5633,5.5633,5.5633,5.5633,5.5633,5.5633,5.4511,5.3365,5.299,4.954,4.3842,3.9632,3.388,2.7364,2.5823,2.5056,2.5056,2.5056,2.5056,2.5056,2.5056,2.5056,2.5056,2.5056,2.5056,2.5056,2.5056,2.5056,2.5056,2.5056,2.5056,2.5056,2.4278,2.2311,1.9567,1.5658,1.0176,0.3917,-0.2747,-0.6286,-0.6283,-0.628,-0.6278,-0.6278,-0.6278,-0.6278,-0.6278,-0.6278,-0.8627,-1.448,-1.9939,-2.5391,-3.0476,-3.1262,-3.1262,-3.1262,-3.1262,-3.2408,-3.5063,-3.9632,-4.4185,-4.8724,-5.4023,-5.7449,-5.933,-6.0466,-6.118,-6.1575,-6.1575,-6.1575,-6.1575,-6.1575,-6.1575,-6.1944,-6.3703,-6.6572,-7.0497,-7.6215,-8.2259,-8.7208,-8.8273,-8.8994,-9.0016,-9.0016,-9.0016,-9.0016,-9.0016,-9.0016,-9.0016,-9.0016,-9.0016,-9.0658,-9.1634,-9.4242,-9.883,-10.2402,-10.5642,-10.8255,-10.9862,-11.0839,-11.0839,-11.1149,-11.1718,-11.2639,-11.3555,-11.4467,-11.5373,-11.5674,-11.5926,-11.6726,-11.731,-11.9423,5.7473,5.5657,5.5633,5.5633,5.5633,5.5633,5.5633,5.5633,5.5633,5.4511,5.2967,5.2614,4.8408,4.1177,3.6953,3.121,2.5445,2.5056,2.5056,2.5056,2.5056,2.5056,2.5056,2.5056,2.5056,2.5056,2.5056,2.5056,2.5056,2.5056,2.5056,2.5056,2.4667,2.4656,2.4278,2.3489,2.0355,1.5645,1.2521,0.6656,-0.0784,-0.4316,-0.6283,-0.6278,-0.6278,-0.6278,-0.6278,-0.6278,-0.6278,-0.6278,-0.6278,-0.8235,-1.2532,-1.9161,-2.5402,-3.0476,-3.1262,-3.1262,-3.1262,-3.1262,-3.3167,-3.6969,-4.1904,-4.6458,-5.1378,-5.6681,-6.0071,-6.0466,-6.1206,-6.1549,-6.1575,-6.1575,-6.1575,-6.1575,-6.1575,-6.2286,-6.3703,-6.5871,-6.8721,-7.1935,-7.6537,-8.2955,-8.7551,-8.8957,-8.9335,-9.0016,-9.0016,-9.0016,-9.0016,-9.0016,-9.0016,-9.0016,-9.0016,-9.0016,-9.0016,-9.0658,-9.3278,-9.8175,-10.2402,-10.5642,-10.8568,-11.053,-11.1149,-11.1149,-11.1457,-11.2073,-11.2993,-11.386,-11.4769,-11.5373,-11.5674,-11.5926,-11.7072,-11.8397,-12.0272,5.7473,5.5633,5.5633,5.5633,5.5633,5.5633,5.5633,5.5633,5.5633,5.4114,5.2217,5.2217,4.6498,3.6953,3.3069,2.8878,2.5434,2.5024,2.5024,2.5056,2.5056,2.5056,2.5056,2.5056,2.5056,2.5056,2.5056,2.5056,2.5056,2.5056,2.5056,2.5056,2.3878,2.3489,2.31,2.1931,1.8405,1.3314,0.9785,0.3524,-0.4318,-0.5888,-0.628,-0.6278,-0.6278,-0.6278,-0.6278,-0.6278,-0.6278,-0.6278,-0.6278,-0.8235,-1.2532,-1.6822,-2.2672,-3.0089,-3.1262,-3.1262,-3.1249,-3.1636,-3.3538,-3.7719,-4.2665,-4.7195,-5.2856,-5.7796,-6.0441,-6.1575,-6.1575,-6.1575,-6.1575,-6.1575,-6.1575,-6.1627,-6.1996,-6.3838,-6.6713,-6.8284,-7.2057,-7.7828,-8.1383,-8.452,-8.9069,-9.0054,-9.0016,-9.0016,-9.0016,-9.0016,-9.0016,-9.0016,-9.0016,-9.0016,-9.0016,-9.0016,-9.0658,-9.227,-9.6197,-10.0418,-10.3686,-10.6592,-10.8881,-11.0839,-11.1149,-11.1766,-11.2073,-11.2687,-11.3298,-11.4212,-11.4769,-11.5373,-11.5674,-11.7072,-11.8504,-11.9577,-12.1747,5.7473,5.5633,5.5633,5.5633,5.5633,5.5633,5.5633,5.5633,5.5633,5.2945,4.8367,4.799,4.2267,3.3467,3.1738,2.8719,2.5391,2.4876,2.4887,2.5045,2.5056,2.5056,2.5056,2.5056,2.5056,2.5056,2.5056,2.5056,2.5056,2.5056,2.4656,2.3878,2.3499,2.31,2.1931,1.8007,1.5267,1.3308,0.9003,0.3916,-0.1176,-0.4707,-0.6278,-0.6278,-0.6278,-0.6278,-0.6278,-0.6278,-0.6278,-0.6278,-0.6278,-0.941,-1.6432,-1.7999,-2.2672,-3.0089,-3.1262,-3.1649,-3.2408,-3.2408,-3.5832,-4.3045,-4.5663,-5.0208,-5.6657,-6.0071,-6.1206,-6.1575,-6.1575,-6.1575,-6.1575,-6.1575,-6.1757,-6.2466,-6.5062,-6.7075,-6.8921,-7.519,-7.9141,-8.1686,-8.5096,-8.8401,-8.94,-9.0017,-9.0016,-9.0016,-9.0016,-9.0016,-9.0016,-9.0016,-9.0016,-9.0016,-9.0016,-9.0997,-9.3278,-9.4909,-9.8133,-10.2036,-10.4644,-10.6592,-10.9862,-11.053,-11.1149,-11.2073,-11.2687,-11.3298,-11.386,-11.4769,-11.5674,-11.5674,-11.5625,-11.6774,-11.992,-12.2185,-12.4445,5.7473,5.5633,5.5633,5.5633,5.5633,5.5633,5.5633,5.526,5.3342,5.0272,4.6439,4.2088,3.6322,2.8707,2.8573,2.7006,2.4749,2.4622,2.4686,2.4897,2.4908,2.5013,2.5183,2.5204,2.5193,2.5193,2.5193,2.5151,2.5066,2.5056,2.4656,2.3489,2.271,2.1152,1.8787,1.6836,1.4095,1.0958,0.783,0.4293,0.0388,-0.2326,-0.4267,-0.5821,-0.6209,-0.6209,-0.6209,-0.6212,-0.6209,-0.6209,-0.6209,-1.0077,-1.8171,-1.8565,-2.2413,-3.0128,-3.0906,-3.1289,-3.2421,-3.2915,-3.7147,-4.545,-4.7471,-5.1357,-5.933,-6.1206,-6.1575,-6.1575,-6.1575,-6.1575,-6.1575,-6.1575,-6.2153,-6.3368,-6.6762,-7.0252,-7.2745,-7.9006,-8.416,-8.5912,-8.8201,-8.9812,-9.0428,-9.0168,-9.0054,-9.0016,-9.0016,-9.0016,-9.0016,-9.0016,-9.0016,-8.9979,-9.1297,-9.2943,-9.4576,-9.6197,-9.9768,-10.3686,-10.5598,-10.6907,-10.9862,-11.0839,-11.1457,-11.238,-11.3298,-11.4164,-11.4721,-11.5324,-11.5674,-11.5674,-11.5926,-11.7072,-12.1321,-12.3561,-12.6211,5.7101,5.5633,5.5563,5.5563,5.5539,5.5492,5.5073,5.3931,5.0145,4.7095,4.4734,3.5727,2.92,2.5037,2.4633,2.4527,2.4011,2.397,2.4475,2.508,2.4696,2.4929,2.532,2.5362,2.5373,2.5362,2.5352,2.5225,2.5056,2.5056,2.4267,2.3489,2.1542,1.8795,1.5267,1.6829,1.4474,0.7038,0.6251,0.4264,0.0382,-0.0,-0.2285,-0.61,-0.6098,-0.6092,-0.6092,-0.6087,-0.6084,-0.6084,-0.6076,-0.9854,-1.7014,-1.8144,-2.1925,-2.9511,-3.0274,-3.0675,-3.1812,-3.3221,-3.7522,-4.5044,-4.727,-5.1666,-5.9205,-6.1051,-6.1419,-6.1445,-6.1471,-6.1471,-6.1549,-6.1575,-6.2153,-6.3421,-6.7841,-7.2452,-7.7089,-8.1969,-8.6303,-9.0731,-9.0335,-9.0195,-9.0773,-9.051,-9.0016,-9.0016,-9.0016,-9.0016,-9.0016,-9.0016,-9.0016,-9.0997,-9.2943,-9.5242,-9.7188,-9.9157,-10.2359,-10.528,-10.6231,-10.7582,-10.9862,-11.1457,-11.238,-11.2945,-11.386,-11.4769,-11.5324,-11.5674,-11.5674,-11.5674,-11.5926,-11.737,-12.2472,-12.5026,-12.7425,5.6729,5.5586,5.5187,5.5,5.4976,5.4577,5.2171,4.882,4.7693,4.4696,3.9847,3.0458,2.557,2.4422,2.4253,2.3855,2.3938,2.4179,2.4305,2.4665,2.4696,2.4855,2.5109,2.513,2.513,2.513,2.513,2.5109,2.5056,2.4267,2.3888,2.3489,2.1542,1.9591,1.7631,1.5171,1.2786,1.1229,0.7694,0.4209,0.0381,-0.3029,-0.4905,-0.6037,-0.5997,-0.5973,-0.597,-0.5928,-0.5904,-0.5901,-0.5862,-0.947,-1.6713,-1.7438,-2.1129,-2.826,-3.0104,-3.0562,-3.1176,-3.2947,-3.8022,-4.6772,-4.8311,-5.1926,-5.9361,-6.0484,-6.0406,-6.0822,-6.0848,-6.1056,-6.1419,-6.1523,-6.1783,-6.3048,-6.8946,-7.4307,-7.7057,-8.3767,-8.9248,-9.062,-9.1031,-9.0886,-9.108,-9.051,-9.0054,-9.0016,-9.0016,-9.0016,-9.0016,-9.0016,-9.1335,-9.3278,-9.4576,-9.7188,-10.2359,-10.4006,-10.5642,-10.8881,-10.9505,-11.0173,-11.1102,-11.1766,-11.2333,-11.386,-11.4467,-11.4769,-11.5324,-11.5674,-11.5625,-11.5926,-11.5926,-11.7072,-12.1032,-12.4745,-12.9285,5.6213,5.5234,5.4953,5.4695,5.446,5.4178,5.2561,4.9923,4.4895,3.8551,3.1766,2.6744,2.421,2.4189,2.3957,2.3925,2.3658,2.3798,2.3946,2.4369,2.4379,2.4622,2.5024,2.5056,2.5109,2.5214,2.4823,2.438,2.4278,2.31,2.2662,2.1792,2.1018,1.8644,1.5858,1.5386,1.3044,0.9591,0.5278,0.1494,-0.2617,-0.4838,-0.5939,-0.5939,-0.5883,-0.5841,-0.5814,-0.5782,-0.5753,-0.5727,-0.5695,-0.9191,-1.6158,-1.6842,-2.0353,-2.739,-2.8779,-2.9598,-3.062,-3.2219,-3.7155,-4.6086,-4.9467,-5.2849,-5.7721,-5.8407,-5.8926,-5.9471,-5.9783,-6.0173,-6.0718,-6.103,-6.1761,-6.2707,-7.0573,-7.606,-7.8481,-8.5591,-9.1045,-9.1709,-9.1378,-9.1231,-9.1231,-9.051,-9.0016,-9.0016,-9.0016,-9.0016,-9.0016,-9.0016,-9.1297,-9.4576,-9.6528,-9.9768,-10.4325,-10.6592,-10.8568,-11.0483,-11.0839,-11.1149,-11.1457,-11.2073,-11.2993,-11.3908,-11.4467,-11.5023,-11.5674,-11.5674,-11.6525,-11.7072,-11.7617,-11.9042,-12.1897,-12.5867,-12.9441,5.5857,5.4718,5.4648,5.4319,5.3827,5.378,5.3709,5.2779,4.3254,3.4095,2.5382,2.4873,2.4602,2.3862,2.3661,2.3566,2.3545,2.3354,2.3492,2.4286,2.3957,2.4295,2.4897,2.494,2.5066,2.4854,2.411,2.3618,2.3032,2.2264,2.1009,2.0071,1.9636,1.7626,1.3684,1.5917,1.3619,0.6045,0.2214,-0.1825,-0.5843,-0.5838,-0.5833,-0.583,-0.5761,-0.5695,-0.5647,-0.5629,-0.5594,-0.5887,-0.6218,-0.9253,-1.5886,-1.6863,-1.9805,-2.5898,-2.7527,-2.8638,-2.9542,-3.0656,-3.5074,-4.35,-4.9144,-5.2909,-5.4133,-5.5706,-5.6978,-5.7627,-5.8147,-5.8796,-5.9445,-5.9887,-6.1104,-6.2882,-7.0887,-7.686,-7.852,-8.6191,-9.1227,-9.1535,-9.1231,-9.0814,-9.07,-9.032,-9.0016,-9.0016,-9.0016,-9.0016,-9.0016,-9.0016,-9.1634,-9.5242,-9.8503,-10.208,-10.5959,-10.8881,-11.0483,-11.0839,-11.1149,-11.1149,-11.1718,-11.2687,-11.3603,-11.3603,-11.4576,-11.5381,-11.5381,-11.5333,-11.6133,-11.8629,-11.916,-12.0366,-12.3954,-12.7052,-12.9371,5.4296,5.4155,5.3733,5.3287,5.2771,5.2372,5.1926,5.1134,4.8419,0.0,0.0,2.9166,2.6002,2.3154,2.3111,2.2732,2.2721,2.3048,2.3534,2.4177,2.4007,2.3893,2.42,2.4401,2.4126,2.3395,2.3192,2.2778,2.1812,2.083,2.0036,1.9856,1.8947,1.7736,1.6932,1.4448,1.061,0.5809,0.2184,-0.1825,-0.5843,-0.5798,-0.5772,-0.5772,-0.5626,-0.5538,-0.5528,-0.5435,-0.5693,-0.6293,-0.8846,-1.1939,-1.5797,-1.9203,-2.2223,-2.5388,-2.6904,-2.7849,-2.823,-2.9658,-3.2246,-3.6152,-4.4123,-4.9801,-5.1086,-5.2771,-5.4199,-5.5238,-5.5862,-5.6641,-5.7653,-5.8528,-5.9323,-6.0762,-6.8549,-7.4055,-7.6087,-8.2469,-8.7753,-8.8125,-8.8878,-8.9219,-8.9219,-8.9599,-9.0016,-8.9979,-8.9941,-9.0016,-9.0016,-8.9979,-9.1894,-9.7435,-9.9442,-10.2724,-10.8255,-11.053,-11.1149,-11.1457,-11.1718,-11.2333,-11.3555,-11.4164,-11.4467,-11.4877,-11.4643,-11.4503,-11.4356,-11.3771,-11.421,-11.6898,-11.7468,-11.9114,-12.4081,-12.766,-12.969,5.3756,5.3263,5.3005,5.2466,0.0,5.1504,5.0635,4.906,4.4307,3.6974,2.8617,2.637,2.4357,2.2615,2.2615,2.2678,2.244,2.244,2.2921,2.3502,2.3259,2.3439,2.3661,2.3893,2.3699,2.3428,2.2505,2.1793,2.1321,1.9899,1.9038,1.8773,1.8318,1.6701,1.5058,1.4546,1.1457,0.5613,-0.0,-0.3954,-0.5753,-0.5727,-0.5697,-0.5668,-0.5557,0.0,0.0,0.0,0.0,0.0,0.0,0.0,0.0,-1.6814,0.0,-2.3591,-2.5108,-2.6159,-2.6174,-2.7184,-3.0286,-3.5476,-3.9988,-4.3886,-4.644,-4.8928,-5.0901,-5.2018,-5.2927,-5.3784,-5.5269,-5.6204,-5.7866,-6.1031,-6.7034,-7.2475,-7.5121,-8.0976,-8.4927,-8.5726,-8.6713,-8.7549,-8.7549,-8.8232,-8.8878,-8.9295,-8.9409,-8.9523,-8.9865,-8.9675,-9.0382,-9.3937,-9.7515,-10.3045,-10.9193,-11.1149,-11.1457,-11.2026,-11.238,-11.2755,-11.2837,-11.3393,-11.3501,-11.3518,-11.3377,-11.3331,-11.3283,-11.4304,-11.5536,-11.8267,-12.0163,-12.263,-12.5139,-12.708,-12.8148,5.3005,5.2254,5.2137,5.1551,5.0659,5.0834,4.9723,4.7085,3.9875,3.2834,2.6128,2.4636,2.3356,2.2002,2.2002,2.2129,2.2003,2.235,2.2477,2.271,2.2752,2.2889,2.3111,2.3354,2.3221,2.308,2.18,2.0733,2.0651,1.8823,1.7914,1.758,1.7509,1.5894,1.2821,0.0,0.0,0.0,-0.2444,-0.5674,-0.5684,-0.5684,-0.5663,-0.5618,-0.553,0.0,-0.5342,-0.526,-0.5183,-0.5434,-0.5941,0.0,0.0,0.0,0.0,0.0,0.0,0.0,0.0,0.0,0.0,0.0,-3.5856,-3.7436,-4.1156,-4.4305,-4.6798,-4.846,-4.9655,-5.1222,-5.2212,-5.3529,-5.6279,-6.0724,-6.5653,-7.0447,-7.4158,-7.9293,-8.2385,-8.2575,-8.4056,-8.5081,-8.5081,-8.6144,-8.7017,-8.7587,-8.8118,-8.8794,-8.9653,-8.9038,-8.9138,-9.0361,-9.6316,-10.2853,-10.9522,-11.0799,-11.127,-11.1764,-11.2373,-11.2645,-11.2178,-11.2333,-11.259,-11.1912,-11.177,-11.2209,-11.2209,-11.4463,-11.6658,-12.0032,-12.2739,-12.5209,-12.6238,-12.6342,-12.6342,5.1292,5.1128,5.1046,5.019,4.958,4.8664,4.7867,4.6893,4.4644,4.2751,4.1169,3.3415,2.6537,2.1051,2.1051,2.0849,2.1057,2.1399,2.1537,2.1769,2.1959,2.2171,2.2403,2.1943,2.1092,2.0579,1.9697,1.8893,1.7508,1.7303,1.7199,1.6866,1.6557,1.6112,1.5839,1.2964,0.7514,-0.0,-0.3801,-0.5695,-0.5745,-0.5745,-0.5742,-0.5727,-0.553,-0.5414,-0.5395,-0.5244,-0.5425,-0.6243,-0.8525,-1.1173,-1.3749,-1.7236,-1.9805,0.0,-2.1723,0.0,0.0,0.0,0.0,0.0,0.0,0.0,0.0,-3.8591,-4.1188,-4.4798,-4.6728,-4.8141,-4.9487,-5.1348,-5.4233,-5.83,-6.2634,-6.7083,-7.1085,-7.4986,-7.7488,-7.8247,-7.9804,-8.0829,-8.0943,-8.2841,-8.4246,-8.4474,-8.5423,-8.6543,-8.8197,-8.8429,-8.9609,-9.3112,-9.7722,-10.2333,-10.7105,-10.8937,-10.9584,-11.1073,-11.137,-11.1665,-11.2061,-11.2355,-11.2355,-11.2063,-11.1526,-11.0989,-11.1086,-11.2433,-11.4839,-11.7827,-12.0692,-12.3431,-12.5427,-12.6116,-12.6342,4.9955,4.9673,4.9107,4.7895,4.6388,4.6321,4.5846,4.4678,3.9428,3.8067,3.8755,2.8796,2.2566,1.973,1.9846,2.0026,1.9954,2.0533,2.0776,2.1008,2.1368,2.1254,2.1032,2.1027,2.0546,1.9599,1.9108,1.8352,1.7401,1.7119,1.6588,1.6144,1.5985,1.5047,1.3071,1.2799,0.9098,0.2263,0.1006,-0.1728,-0.5655,-0.5663,-0.5647,-0.5613,-0.5512,-0.5427,-0.5364,-0.522,-0.5409,-0.6217,-0.868,-1.1449,-1.3861,-1.6655,-1.8761,0.0,0.0,0.0,0.0,0.0,0.0,0.0,0.0,0.0,0.0,0.0,-3.7125,-3.9916,-4.2602,-4.4828,-4.615,-4.7555,-5.0304,-5.4438,-5.7806,-6.1592,-6.5855,-6.9417,-7.1869,-7.3198,-7.483,-7.6197,-7.7146,-7.9044,-8.0639,-8.1588,-8.0753,-8.0891,-8.2895,-8.4965,-8.7415,-9.0566,-9.5677,-10.0132,-10.2061,-10.5299,-10.7806,-10.8431,-10.9443,-10.9876,-10.9964,-10.9817,-10.9622,-10.9036,-10.8548,-10.8207,-10.8207,-11.0618,-11.3406,-11.6516,-11.9783,-12.2531,-12.401,-12.4254,-12.4311,4.8312,4.7867,4.5867,4.4376,4.3062,4.4039,4.3253,4.0724,3.4433,3.2521,3.3008,2.3794,1.9928,2.0278,1.9607,1.9285,1.9001,1.9423,1.9793,2.0131,2.0533,2.0495,2.0019,2.001,1.9519,1.8905,1.8046,1.7317,1.7098,1.6382,1.5474,1.4401,1.4752,1.3679,1.0757,1.1415,0.9334,0.442,0.3247,-0.0,-0.521,-0.5591,-0.5583,-0.5538,-0.5499,-0.543,-0.5324,-0.5181,-0.5358,-0.6137,-0.8454,-1.0757,-1.3279,-1.5429,0.0,0.0,0.0,0.0,0.0,0.0,0.0,0.0,0.0,-2.745,-3.0021,0.0,-3.3377,0.0,-3.8544,-4.137,-4.2619,-4.3858,0.0,0.0,-5.2714,-5.5981,-6.0451,-6.343,-6.5794,-6.7693,-6.9401,-7.0958,-7.24,-7.4451,-7.5931,-7.6311,-7.4527,-7.4417,-7.7555,-8.1036,-8.4246,-8.758,-9.2763,-9.6406,-9.7014,-10.1206,-10.4614,-10.4939,-10.6367,-10.7084,-10.6303,-10.6352,-10.6303,-10.5522,-10.5825,-10.6468,-10.6714,-11.0239,-11.3418,-11.4914,-11.7955,-12.0602,-12.1715,-12.1771,-12.1771,4.5872,4.5191,4.018,3.8298,3.9424,4.2192,4.0139,3.4743,3.3802,3.1845,2.8768,2.3674,2.2582,2.41,2.1291,0.0,1.7574,1.7828,1.8303,1.8937,1.918,1.9635,1.9944,1.8398,1.7878,1.8063,1.6483,1.5358,1.5337,1.4858,1.3442,1.0825,1.2234,1.2763,1.2187,0.7403,0.4579,0.391,-0.1575,-0.4612,-0.5501,-0.5607,-0.566,-0.5652,-0.5501,-0.5387,-0.5318,-0.5741,-0.5824,-0.5919,-0.8343,-1.0397,-1.2326,0.0,0.0,0.0,0.0,0.0,0.0,0.0,0.0,0.0,0.0,0.0,0.0,0.0,0.0,-3.0359,-3.4557,0.0,-3.9436,-4.0827,0.0,0.0,0.0,-5.0328,-5.4772,-5.7098,-5.9226,-6.1694,0.0,0.0,-6.5643,-6.8604,-6.9515,-6.6554,-6.7237,-6.96,-7.4278,-7.7826,-8.1151,-8.5088,-9.0599,-9.4322,-9.3594,-9.6409,-9.9273,-9.9941,-10.1227,-10.1813,-10.1764,-10.2398,-10.3131,-10.2838,-10.4797,-10.6524,-10.7898,-11.1683,-11.5169,-11.1988,-11.2682,-11.4729,-11.8088,-11.8837,-11.8781,4.1508,3.9038,3.5126,3.4398,3.6094,3.7872,3.6646,3.3372,2.9352,2.8335,2.8927,2.2074,2.0328,2.2156,1.939,0.0,0.0,0.0,1.6792,1.7352,1.7997,1.8237,1.8045,1.7411,1.6971,1.6742,1.5128,1.464,1.4681,1.4113,1.1893,0.8311,0.0,0.8567,0.7288,0.5502,0.3585,0.1462,-0.0922,-0.3209,-0.5334,-0.5454,-0.5512,-0.5509,-0.5752,-0.5977,-0.587,-0.6237,-0.7443,-0.8816,-1.0832,-1.2965,0.0,0.0,0.0,0.0,0.0,0.0,0.0,0.0,0.0,0.0,0.0,-2.1737,-2.3451,0.0,0.0,0.0,-3.1361,-3.4139,-3.6268,-3.8211,0.0,0.0,0.0,0.0,0.0,0.0,0.0,-5.5696,-5.7024,-5.8581,-6.0859,-6.1466,-6.139,-6.0555,-6.3475,-6.7168,-7.1245,0.0,-7.8804,-8.2913,-8.6546,-8.8689,-8.8689,-9.0366,-9.1863,-9.3613,-9.5224,-9.6298,-9.6346,-9.6688,-9.6981,-9.7282,-9.9431,-10.1724,-10.218,-10.5417,-10.773,-10.8008,-10.8397,-10.9341,-11.1676,-11.2179,-11.2179,3.6252,0.0,0.0,0.0,0.0,3.3546,3.2481,2.9567,2.5074,2.4491,2.5666,1.9317,0.0,0.0,0.0,0.0,0.0,0.0,1.5143,1.5693,1.6559,1.6608,1.6413,1.5945,1.5552,1.5261,1.3962,1.3506,1.3573,1.2614,1.0589,0.7768,0.0,0.0,0.0,0.0,0.2919,-0.0,-0.0901,-0.2514,-0.5205,-0.534,-0.5401,-0.5385,-0.5959,-0.6482,-0.5997,-0.7529,-0.8847,-1.0473,-1.3123,0.0,0.0,0.0,0.0,0.0,0.0,0.0,0.0,0.0,0.0,0.0,0.0,0.0,0.0,0.0,0.0,0.0,0.0,0.0,-3.2393,-3.4708,-3.6241,0.0,0.0,0.0,0.0,0.0,0.0,0.0,0.0,0.0,-5.4519,-5.4557,-5.4936,0.0,0.0,-6.3554,-6.7627,-7.1413,-7.5385,-7.8943,-8.1809,0.0,-8.3604,-8.4289,-8.5462,-8.7024,-8.8488,-8.9562,-8.9855,-9.0197,-9.0392,-9.0392,-9.3754,-9.5877,-9.4305,-9.5879,-9.8585,-10.092,-10.1965,-10.2586,-10.3715,-10.4279,-10.4504,0.0,0.0,0.0,0.0,0.0,0.0,0.0,0.0,2.1884,2.0104,0.0,1.52,0.0,0.0,0.0,0.0,1.1952,1.2649,0.0,0.0,1.4731,1.5179,1.5045,1.4532,1.3869,1.334,1.2656,1.1969,1.1723,1.0263,0.0,0.0,0.0,0.0,0.0,0.0,0.2034,-0.0273,-0.3236,-0.4661,-0.5144,-0.5316,-0.5379,-0.5321,-0.5801,-0.6233,-0.6015,-0.9142,-1.0447,-0.9375,-1.3647,0.0,0.0,0.0,0.0,0.0,0.0,0.0,0.0,0.0,0.0,0.0,0.0,0.0,0.0,0.0,0.0,0.0,0.0,0.0,0.0,-2.9818,0.0,0.0,0.0,0.0,0.0,0.0,0.0,0.0,0.0,-4.7115,-4.5825,-4.8292,-5.114,-5.3569,0.0,0.0,0.0,0.0,-7.019,-7.2332,-7.7024,-7.9982,-7.834,-7.9433,-8.0581,-8.0679,0.0,0.0,-8.2143,-8.3119,-8.3754,-8.3852,-8.8212,-9.0038,-8.3445,-8.4824,-8.7922,-9.0704,-9.2191,-9.3614,-9.4855,-9.5815,-9.6661,0.0,0.0,0.0,0.0,0.0,0.0,0.0,0.0,0.0,1.7976,1.7644,1.5094,0.0,0.0,0.0,0.0,0.0,0.0,0.0,0.0,1.2594,1.2954,1.2879,1.2543,1.2468,0.0,1.1358,1.0326,0.0,0.0,0.0,0.0,0.0,0.0,0.0,0.0,-0.0965,-0.0785,-0.3373,-0.4762,-0.4969,-0.5112,-0.5154,-0.5096,-0.5619,-0.6287,-0.67,-0.9158,-1.0463,0.0,0.0,0.0,0.0,0.0,0.0,0.0,0.0,0.0,0.0,0.0,0.0,0.0,0.0,0.0,0.0,0.0,0.0,0.0,0.0,0.0,0.0,0.0,-2.9232,0.0,0.0,0.0,0.0,0.0,0.0,0.0,0.0,0.0,-4.1838,-4.5103,-4.8839,-5.2075,-5.6125,-5.9681,-6.2277,0.0,0.0,0.0,0.0,0.0,0.0,0.0,-7.531,-7.6042,-7.5554,-7.5213,-7.5554,-7.5359,-7.5408,-7.6091,0.0,0.0,-7.2617,-7.3866,-7.6525,-7.838,-7.9808,-8.1409,-8.3413,-8.487,-8.594,0.0,0.0,0.0,0.0,0.0,0.0,0.0,0.0,0.0,1.6143,1.6569,0.0,0.0,0.0,0.0,0.0,0.0,0.0,0.0,0.0,0.0,0.0,1.0873,1.0817,0.0,0.0,0.0,0.0,0.0,0.0,0.0,0.0,0.0,0.0,0.0,0.0,-0.2301,-0.2005,-0.354,-0.4629,-0.4823,-0.5268,-0.5304,-0.5226,-0.6048,-0.6657,-0.7228,0.0,0.0,0.0,0.0,0.0,0.0,0.0,0.0,0.0,0.0,0.0,0.0,0.0,0.0,0.0,0.0,0.0,0.0,0.0,0.0,0.0,0.0,0.0,0.0,0.0,-2.7987,0.0,0.0,0.0,0.0,0.0,0.0,0.0,0.0,0.0,0.0,-4.2422,-4.6223,-4.9849,-5.5209,-5.9572,-6.2128,-6.7102,-7.056,0.0,0.0,0.0,0.0,0.0,0.0,0.0,0.0,0.0,0.0,0.0,0.0,0.0,0.0,-6.6701,-6.2537,-6.3411,-6.5316,-6.6992,0.0,0.0,0.0,0.0,0.0,0.0,0.0,0.0,0.0,0.0,0.0,0.0,0.0,0.0,0.0,1.2859,0.0,0.0,0.8891,0.0,0.0,0.0,0.0,0.0,0.0,0.0,0.0,0.0,0.0,0.0,0.0,0.0,0.0,0.0,0.0,0.0,0.0,0.0,0.0,0.0,0.0,-0.1328,-0.384,-0.4288,-0.4582,-0.4706,-0.5485,-0.5827,-0.5995,-0.6434,-0.7041,-0.7468,0.0,0.0,0.0,0.0,0.0,0.0,0.0,0.0,0.0,0.0,0.0,0.0,0.0,0.0,0.0,0.0,0.0,0.0,0.0,0.0,0.0,0.0,0.0,0.0,0.0,0.0,-2.7271,-2.7363,-2.8438,0.0,0.0,0.0,0.0,0.0,0.0,0.0,0.0,0.0,-4.7046,-5.2228,-5.7521,-6.2411,-6.6227,-6.9239,-7.115,-7.1956,-7.1943,-7.0869,-6.9795,-6.8721,0.0,0.0,0.0,0.0,0.0,0.0,0.0,0.0,0.0,0.0,0.0,0.0,0.0,0.0,0.0,0.0,0.0,0.0,0.0,0.0,0.0,0.0,0.0,0.0,0.0,0.0,0.0,0.0,0.0,0.0,0.0,0.0,0.0,0.0,0.0,0.0,0.0,0.0,0.0,0.0,0.0,0.0,0.0,0.0,0.0,0.0,0.0,0.0,0.0,0.0,0.0,0.0,0.0,0.0,-0.0849,-0.165,-0.3344,-0.4662,-0.5444,-0.5604,-0.6214,-0.6634,-0.6971,-0.7201,0.0,0.0,0.0,0.0,0.0,0.0,0.0,0.0,0.0,0.0,0.0,0.0,0.0,0.0,0.0,0.0,0.0,0.0,0.0,0.0,0.0,0.0,0.0,0.0,0.0,0.0,0.0,0.0,-2.7275,-2.8332,-2.9363,0.0,0.0,0.0,0.0,0.0,0.0,0.0,0.0,0.0,0.0,-5.7624,-6.1832,-6.6476,-6.9435,-6.887,-7.081,-7.165,-6.9844,-6.8672,-6.7355,-6.5549,0.0,0.0,0.0,0.0,0.0,0.0,0.0,0.0,0.0,0.0,0.0,0.0,0.0,0.0,0.0,0.0,0.0,0.0,0.0,0.0,0.0,0.0,0.0,0.0,0.0,0.0,0.0,0.0,0.0,0.0,0.0,0.0,0.0,0.0,0.0,0.0,0.0,0.0,0.0,0.0,0.0,0.0,0.0,0.0,0.0,0.0,0.0,0.0,0.0,0.0,0.0,0.0,0.0,-0.163,-0.205,-0.3754,-0.5082,-0.5856,-0.6302,-0.6593,-0.6987,-0.7445,-0.7805,0.0,0.0,0.0,0.0,0.0,0.0,0.0,0.0,0.0,0.0,0.0,0.0,0.0,0.0,0.0,0.0,0.0,0.0,0.0,0.0,0.0,0.0,0.0,0.0,0.0,0.0,0.0,0.0,-2.6851,-2.7597,-2.7509,0.0,0.0,0.0,0.0,0.0,0.0,0.0,0.0,0.0,0.0,-5.7076,-6.023,-6.497,0.0,0.0,-6.897,-6.999,-6.8672,-6.7257,-6.5549,-6.3401,-6.0912,0.0,0.0,0.0,0.0,0.0,0.0,0.0,0.0,0.0,0.0,0.0,0.0,0.0,0.0,0.0,0.0,0.0,0.0,0.0,0.0,0.0,0.0,0.0,0.0,0.0,0.0,0.0,0.0,0.0,0.0,0.0,0.0,0.0,0.0,0.0,0.0,0.0,0.0,0.0,0.0,0.0,0.0,0.0,0.0,0.0,0.0,0.0,0.0,0.0,0.0,0.0,0.0,-0.3328,-0.4362,-0.4918,-0.5543,-0.6529,-0.7254,-0.782,-0.7621,-0.7633,-0.8324,0.0,0.0,0.0,0.0,0.0,0.0,0.0,0.0,0.0,0.0,0.0,0.0,0.0,0.0,0.0,0.0,0.0,0.0,0.0,0.0,0.0,0.0,0.0,0.0,0.0,0.0,0.0,0.0,0.0,0.0,0.0,0.0,0.0,0.0,0.0,0.0,0.0,0.0,0.0,0.0,0.0,-5.5817,-5.7921,-6.2503,-6.5598,0.0,-6.6574,-6.7208,-6.7062,-6.5353,-6.3304,-6.0961,0.0,0.0,0.0,0.0,0.0,0.0,0.0,0.0,0.0,0.0,0.0,0.0,0.0,0.0,0.0,0.0,0.0,0.0,0.0,0.0,0.0,0.0,0.0,0.0,0.0,0.0,0.0,0.0,0.0,0.0,0.0,0.0,0.0,0.0,0.0,0.0,0.0,0.0,0.0,0.0,0.0,0.0,0.0,0.0,0.0,0.0,0.0,0.0,0.0,0.0,0.0,0.0,0.0,0.0,-0.4355,-0.5195,-0.6068,-0.7233,-0.7639,-0.7921,-0.8323,-0.7774,0.0,0.0,0.0,0.0,0.0,0.0,0.0,0.0,0.0,0.0,0.0,0.0,0.0,0.0,0.0,0.0,0.0,0.0,0.0,0.0,0.0,0.0,0.0,0.0,0.0,0.0,0.0,-2.4021,0.0,0.0,0.0,0.0,0.0,0.0,0.0,0.0,0.0,0.0,0.0,0.0,0.0,0.0,-5.3361,-5.7515,-6.04,-6.2523,0.0,0.0,-6.4524,-6.2913,-6.2181,-6.057,0.0,0.0,0.0,0.0,0.0,0.0,0.0,0.0,0.0,0.0,0.0,0.0,0.0,0.0,0.0,0.0,0.0,0.0,0.0,0.0,0.0,0.0,0.0,0.0,0.0,0.0,0.0,0.0,0.0,0.0,0.0,0.0,0.0,0.0,0.0,0.0,0.0,0.0,0.0,0.0,0.0,0.0,0.0,0.0,0.0,0.0,0.0,0.0,0.0,0.0,0.0,0.0,0.0,0.0,-0.276,-0.4579,-0.5464,-0.6367,-0.7782,-0.7956,-0.7961,-0.8326,-0.7807,-0.8351,0.0,0.0,0.0,0.0,0.0,0.0,0.0,0.0,0.0,0.0,0.0,0.0,0.0,0.0,0.0,0.0,0.0,0.0,0.0,0.0,0.0,0.0,0.0,0.0,0.0,0.0,0.0,0.0,0.0,0.0,0.0,0.0,0.0,0.0,0.0,0.0,0.0,0.0,0.0,0.0,0.0,0.0,-5.4522,-5.691,0.0,0.0,0.0,-6.1107,-5.9838,0.0,0.0,0.0,0.0,0.0,0.0,0.0,0.0,0.0,0.0,0.0,0.0,0.0,0.0,0.0,0.0,0.0,0.0,0.0,0.0,0.0,0.0,0.0,0.0,0.0,0.0,0.0,0.0,0.0,0.0,0.0,0.0,0.0,0.0,0.0,0.0,0.0,0.0,0.0,0.0,0.0,0.0,0.0,0.0,0.0,0.0,0.0,0.0,0.0,0.0,0.0,0.0,0.0,0.0,0.0,0.0,0.0,-0.5084,-0.5717,-0.6666,-0.7738,-0.8215,-0.8231,-0.8024,-0.7553,-0.8709,0.0,0.0,0.0,0.0,0.0,0.0,0.0,0.0,0.0,0.0,0.0,0.0,0.0,0.0,0.0,0.0,0.0,0.0,0.0,0.0,0.0,0.0,0.0,0.0,0.0,0.0,0.0,0.0,0.0,0.0,0.0,0.0,0.0,0.0,0.0,0.0,0.0,0.0,0.0,0.0,0.0,-4.7539,-5.0467,-5.2712,-5.4421,0.0,0.0,-5.7154,-5.6959,-5.525,0.0,0.0,0.0,0.0,0.0,0.0,0.0,0.0,0.0,0.0,0.0,0.0,0.0,0.0,0.0,0.0,0.0,0.0,0.0,0.0,0.0,0.0,0.0,0.0,0.0,0.0,0.0,0.0,0.0,0.0,0.0,0.0,0.0,0.0,0.0,0.0,0.0,0.0,0.0,0.0,0.0,0.0,0.0,0.0,0.0,0.0,0.0,0.0,0.0,0.0,0.0,0.0,0.0,0.0,0.0,0.0,-0.4976,-0.6126,-0.7107,-0.7855,-0.8019,-0.8067,-0.8009,-0.7479,-0.8343,0.0,0.0,0.0,0.0,0.0,0.0,0.0,0.0,0.0,0.0,0.0,0.0,0.0,0.0,0.0,0.0,0.0,0.0,0.0,0.0,0.0,0.0,0.0,0.0,0.0,0.0,0.0,0.0,0.0,0.0,0.0,0.0,0.0,0.0,0.0,0.0,0.0,0.0,0.0,0.0,0.0,-4.5879,-4.7392,-4.9393,0.0,0.0,0.0,0.0,-5.1541,-5.037,0.0,0.0,0.0,0.0,0.0,0.0,0.0,0.0,0.0,0.0,0.0,0.0,0.0,0.0,0.0,0.0,0.0,0.0,0.0,0.0,0.0,0.0,0.0,0.0,0.0,0.0,0.0,0.0,0.0,0.0,0.0,0.0,0.0,0.0,0.0,0.0,0.0,0.0,0.0,0.0,0.0,0.0,0.0,0.0,0.0,0.0,0.0,0.0,0.0,0.0,0.0,0.0,0.0,0.0,0.0,0.0,-0.4926,-0.5823,-0.6789,-0.7574,-0.7765,-0.7829,-0.7765,-0.7309,-0.8411,0.0,0.0,0.0,0.0,0.0,0.0,0.0,0.0,0.0,0.0,0.0,0.0,0.0,0.0,0.0,0.0,0.0,0.0,0.0,0.0,0.0,0.0,0.0,0.0,0.0,0.0,0.0,0.0,0.0,0.0,0.0,0.0,0.0,0.0,0.0,0.0,0.0,0.0,0.0,0.0,-4.0484,-4.2609,-4.4757,0.0,0.0,0.0,0.0,0.0,0.0,-4.6563,-4.5489,0.0,0.0,0.0,0.0,0.0,0.0,0.0,0.0,0.0,0.0,0.0,0.0,0.0,0.0,0.0,0.0,0.0,0.0,0.0,0.0,0.0,0.0,0.0,0.0,0.0,0.0,0.0,0.0,0.0,0.0,0.0,0.0,0.0,0.0,0.0,0.0,0.0,0.0,0.0,0.0,0.0,0.0,0.0,0.0,0.0,0.0,0.0,0.0,0.0,0.0,0.0,0.0,0.0,0.0,0.0,-0.5007,-0.5526,-0.6252,-0.7225,-0.7468,-0.7548,-0.7442,-0.7319,-0.8615,-1.1133,0.0,0.0,0.0,0.0,0.0,0.0,0.0,0.0,0.0,0.0,0.0,0.0,0.0,0.0,0.0,0.0,0.0,0.0,0.0,0.0,0.0,0.0,0.0,0.0,0.0,0.0,0.0,0.0,0.0,0.0,0.0,0.0,0.0,0.0,0.0,0.0,0.0,0.0,0.0,-3.8021,-3.9241,0.0,0.0,0.0,0.0,0.0,0.0,0.0,0.0,-4.2463,0.0,0.0,0.0,0.0,0.0,0.0,0.0,0.0,0.0,0.0,0.0,0.0,0.0,0.0,0.0,0.0,0.0,0.0,0.0,0.0,0.0,0.0,0.0,0.0,0.0,0.0,0.0,0.0,0.0,0.0,0.0,0.0,0.0,0.0,0.0,0.0,0.0,0.0,0.0,0.0,0.0,0.0,0.0,0.0,0.0,0.0,0.0,0.0,0.0,0.0,0.0,0.0,0.0,0.0,0.0,0.0,-0.5493,-0.6194,-0.6859,-0.7108,-0.7225,-0.7198,-0.8356,-0.9625,-1.1129,0.0,0.0,0.0,0.0,0.0,0.0,0.0,0.0,0.0,0.0,0.0,0.0,0.0,0.0,0.0,0.0,0.0,0.0,0.0,0.0,0.0,0.0,0.0,0.0,0.0,0.0,0.0,0.0,0.0,0.0,0.0,0.0,0.0,0.0,0.0,0.0,0.0,0.0,-3.4312,-3.6069,0.0,0.0,0.0,0.0,0.0,0.0,0.0,0.0,-4.0441,0.0,0.0,0.0,0.0,0.0,0.0,0.0,0.0,0.0,0.0,0.0,0.0,0.0,0.0,0.0,0.0,0.0,0.0,0.0,0.0,0.0,0.0,0.0,0.0,0.0,0.0,0.0,0.0,0.0,0.0,0.0,0.0,0.0,0.0,0.0,0.0,0.0,0.0,0.0,0.0,0.0,0.0,0.0,0.0,0.0,0.0,0.0,0.0,0.0,0.0,0.0,0.0,0.0,0.0,0.0,0.0,0.0,0.0,-0.6144,-0.6605,-0.6843,-0.6933,-0.6859,-0.9197,-1.0952,0.0,0.0,0.0,0.0,0.0,0.0,0.0,0.0,0.0,0.0,0.0,0.0,0.0,0.0,0.0,0.0,0.0,0.0,0.0,0.0,0.0,0.0,0.0,0.0,0.0,0.0,0.0,0.0,0.0,0.0,0.0,0.0,0.0,0.0,0.0,0.0,0.0,0.0,0.0,0.0,0.0,0.0,0.0,0.0,0.0,0.0,0.0,0.0,0.0,0.0,0.0,0.0,0.0,0.0,0.0,0.0,0.0,0.0,0.0,0.0,0.0,0.0,0.0,0.0,0.0,0.0,0.0,0.0,0.0,0.0,0.0,0.0,0.0,0.0,0.0,0.0,0.0,0.0,0.0,0.0,0.0,0.0,0.0,0.0,0.0,0.0,0.0,0.0,0.0,0.0,0.0,0.0,0.0,0.0,0.0,0.0,0.0,0.0,0.0,0.0,0.0,0.0,0.0,0.0,0.0,0.0,0.0,0.0,-0.5858,-0.6292,-0.6531,-0.68,-0.7084,-1.0116,-1.2068,0.0,0.0,0.0,0.0,0.0,0.0,0.0,0.0,0.0,0.0,0.0,0.0,0.0,0.0,0.0,0.0,0.0,0.0,0.0,0.0,0.0,0.0,0.0,0.0,0.0,0.0,0.0,0.0,0.0,0.0,0.0,0.0,0.0,0.0,0.0,0.0,0.0,0.0,0.0,0.0,0.0,0.0,0.0,0.0,0.0,0.0,0.0,0.0,-3.5897,0.0,0.0,0.0,0.0,0.0,0.0,0.0,0.0,0.0,0.0,0.0,0.0,0.0,0.0,0.0,0.0,0.0,0.0,0.0,0.0,0.0,0.0,0.0,0.0,0.0,0.0,0.0,0.0,0.0,0.0,0.0,0.0,0.0,0.0,0.0,0.0,0.0,0.0,0.0,0.0,0.0,0.0,0.0,0.0,0.0,0.0,0.0,0.0,0.0,0.0,0.0,0.0,0.0,0.0,0.0,0.0,0.0,0.0,0.0,-0.5461,-0.5816,-0.6054,-0.6684,-0.8217,-1.1638,-1.3062,0.0,0.0,0.0,0.0,0.0,0.0,0.0,0.0,0.0,0.0,0.0,0.0,0.0,0.0,0.0,0.0,0.0,0.0,0.0,0.0,0.0,0.0,0.0,0.0,0.0,0.0,0.0,0.0,0.0,0.0,0.0,0.0,0.0,0.0,0.0,0.0,0.0,0.0,0.0,0.0,0.0,0.0,0.0,0.0,0.0,0.0,0.0,0.0,0.0,0.0,0.0,0.0,0.0,0.0,0.0,0.0,0.0,0.0,0.0,0.0,0.0,0.0,0.0,0.0,0.0,0.0,0.0,0.0,0.0,0.0,0.0,0.0,0.0,0.0,0.0,0.0,0.0,0.0,0.0,0.0,0.0,0.0,0.0,0.0,0.0,0.0,0.0,0.0,0.0,0.0,0.0,0.0,0.0,0.0,0.0,0.0,0.0,0.0,0.0,0.0,0.0,0.0,0.0,0.0,0.0,0.0,0.0,0.0,-0.5233,-0.5445,-0.6734,-0.8223,-0.9601,-1.1896,-1.308,0.0,0.0,0.0,0.0,0.0,0.0,0.0,0.0,0.0,0.0,0.0,0.0,0.0,0.0,0.0,0.0,0.0,0.0,0.0,0.0,0.0,0.0,0.0,0.0,0.0,0.0,0.0,0.0,0.0,0.0,0.0,0.0,0.0,0.0,0.0,0.0,0.0,0.0,0.0,0.0,0.0,0.0,0.0,0.0,0.0,0.0,0.0,0.0,0.0,0.0,0.0,0.0,0.0,0.0,0.0,0.0,0.0,0.0,0.0,0.0,0.0,0.0,0.0,0.0,0.0,0.0,0.0,0.0,0.0,0.0,0.0,0.0,0.0,0.0,0.0,0.0,0.0,0.0,0.0,0.0,0.0,0.0,0.0,0.0,0.0,0.0,0.0,0.0,0.0,0.0,0.0,0.0,0.0,0.0,0.0,0.0,0.0,0.0,0.0,0.0,0.0,0.0,0.0,0.0,0.0,0.0,0.0,0.0,0.0,-0.5408,-0.7578,-0.9501,-1.0828,-1.2109,-1.319,0.0,0.0,0.0,0.0,0.0,0.0,0.0,0.0,0.0,0.0,0.0,0.0,0.0,0.0,0.0,0.0,0.0,0.0,0.0,0.0,0.0,0.0,0.0,0.0,0.0,0.0,0.0,0.0,0.0,0.0,0.0,0.0,0.0,0.0,0.0,0.0,0.0,0.0,0.0,0.0,0.0,0.0,0.0,0.0,0.0,0.0,0.0,0.0,0.0,0.0,0.0,0.0,0.0,0.0,0.0,0.0,0.0,0.0,0.0,0.0,0.0,0.0,0.0,0.0,0.0,0.0,0.0,0.0,0.0,0.0,0.0,0.0,0.0,0.0,0.0,0.0,0.0,0.0,0.0,0.0,0.0,0.0,0.0,0.0,0.0,0.0,0.0,0.0,0.0,0.0,0.0,0.0,0.0,0.0,0.0,0.0,0.0,0.0,0.0,0.0,0.0,0.0,0.0,0.0,0.0,0.0,0.0,0.0,0.0,-0.5769,-0.8129,-0.9907,-1.1375,-1.2987,-1.3711,0.0,0.0,0.0,0.0,0.0,0.0,0.0,0.0,0.0,0.0,0.0,0.0,0.0,0.0,0.0,0.0,0.0,0.0,0.0,0.0,0.0,0.0,0.0,0.0,0.0,0.0,0.0,0.0,0.0,0.0,0.0,0.0,0.0,0.0,0.0,0.0,0.0,0.0,0.0,0.0,0.0,0.0,0.0,0.0,0.0,0.0,0.0,0.0,0.0,0.0,0.0,0.0,0.0,0.0,0.0,0.0,0.0,0.0,0.0,0.0,0.0,0.0,0.0,0.0,0.0,0.0,0.0,0.0,0.0,0.0,0.0,0.0,0.0,0.0,0.0,0.0,0.0,0.0,0.0,0.0,0.0,0.0,0.0,0.0,0.0,0.0,0.0,0.0,0.0,0.0,0.0,0.0,0.0,0.0,0.0,0.0,0.0,0.0,0.0,0.0,0.0,0.0,0.0,0.0,0.0,0.0,0.0,0.0,0.0,-0.5195,-0.6541,-0.8139,-1.0215,-1.1322,-1.2267,-1.2837,0.0,0.0,0.0,0.0,0.0,0.0,0.0,0.0,0.0,0.0,0.0,0.0,0.0,0.0,0.0,0.0,0.0,0.0,0.0,0.0,0.0,0.0,0.0,0.0,0.0,0.0,0.0,0.0,0.0,0.0,0.0,0.0,0.0,0.0,0.0,0.0,0.0,0.0,0.0,0.0,0.0,0.0,0.0,0.0,0.0,0.0,0.0,0.0,0.0,0.0,0.0,0.0,0.0,0.0,0.0,0.0,0.0,0.0,0.0,0.0,0.0,0.0,0.0,0.0,0.0,0.0,0.0,0.0,0.0,0.0,0.0,0.0,0.0,0.0,0.0,0.0,0.0,0.0,0.0,0.0,0.0,0.0,0.0,0.0,0.0,0.0,0.0,0.0,0.0,0.0,0.0,0.0,0.0,0.0,0.0,0.0,0.0,0.0,0.0,0.0,0.0,0.0,0.0,0.0,0.0,0.0,0.0,0.0,-0.5123,-0.5927,-0.7418,-0.9599,-1.0513,-1.1438,0.0,0.0,0.0,0.0,0.0,0.0,0.0,0.0,0.0,0.0,0.0,0.0,0.0,0.0,0.0,0.0,0.0,0.0,0.0,0.0,0.0,0.0,0.0,0.0,0.0,0.0,0.0,0.0,0.0,0.0,0.0,0.0,0.0,0.0,0.0,0.0,0.0,0.0,0.0,0.0,0.0,0.0,0.0,0.0,0.0,0.0,0.0,0.0,0.0,0.0,0.0,0.0,0.0,0.0,0.0,0.0,0.0,0.0,0.0,0.0,0.0,0.0,0.0,0.0,0.0,0.0,0.0,0.0,0.0,0.0,0.0,0.0,0.0,0.0,0.0,0.0,0.0,0.0,0.0,0.0,0.0,0.0,0.0,0.0,0.0,0.0,0.0,0.0,0.0,0.0,0.0,0.0,0.0,0.0,0.0,0.0,0.0,0.0,0.0,0.0,0.0,0.0,0.0,0.0,0.0,0.0,0.0,0.0,-0.4018,-0.5539,-0.6953,-0.8259,-0.9824,-1.0954,-1.1699,0.0,0.0,0.0,0.0,0.0,0.0,0.0,0.0,0.0,0.0,0.0,0.0,0.0,0.0,0.0,0.0,0.0,0.0,0.0,0.0,0.0,0.0,0.0,0.0,0.0,0.0,0.0,0.0,0.0,0.0,0.0,0.0,0.0,0.0,0.0,0.0,0.0,0.0,0.0,0.0,0.0,0.0,0.0,0.0,0.0,0.0,0.0,0.0,0.0,0.0,0.0,0.0,0.0,0.0,0.0,0.0,0.0,0.0,0.0,0.0,0.0,0.0,0.0,0.0,0.0,0.0,0.0,0.0,0.0,0.0,0.0,0.0,0.0,0.0,0.0,0.0,0.0,0.0,0.0,0.0,0.0,0.0,0.0,0.0,0.0,0.0,0.0,0.0,0.0,0.0,0.0,0.0,0.0,0.0,0.0,0.0,0.0,0.0,0.0,0.0,0.0,0.0,0.0,0.0,0.0,0.0,0.0,0.0,0.0,-0.4239,0.0,-0.6717,-0.8234,-0.9519,-1.0594,0.0,0.0,0.0,0.0,0.0,0.0,0.0,0.0,0.0,0.0,0.0,0.0,0.0,0.0,0.0,0.0,0.0,0.0,0.0,0.0,0.0,0.0,0.0,0.0,0.0,0.0,0.0,0.0,0.0,0.0,0.0,0.0,0.0,0.0,0.0,0.0,0.0,0.0,0.0,0.0,0.0,0.0,0.0,0.0,0.0,0.0,0.0,0.0,0.0,0.0,0.0,0.0,0.0,0.0,0.0,0.0,0.0,0.0,0.0,0.0,0.0,0.0,0.0,0.0,0.0,0.0,0.0,0.0,0.0,0.0,0.0,0.0,0.0,0.0,0.0,0.0,0.0,0.0,0.0,0.0,0.0,0.0,0.0,0.0,0.0,0.0,0.0,0.0,0.0,0.0,0.0,0.0,0.0,0.0,0.0,0.0,0.0,0.0,0.0,0.0,0.0,0.0,0.0,0.0,0.0,0.0,0.0,0.0,0.0,-0.3485,-0.4246,-0.5539,-0.7374,-0.9212,-1.044,0.0,0.0,0.0,0.0,0.0,0.0,0.0,0.0,0.0,0.0,0.0,0.0,0.0,0.0,0.0,0.0,0.0,0.0,0.0,0.0,0.0,0.0,0.0,0.0,0.0,0.0,0.0,0.0,0.0,0.0,0.0,0.0,0.0,0.0,0.0,0.0,0.0,0.0,0.0,0.0,0.0,0.0,0.0,0.0,0.0,0.0,0.0,0.0,0.0,0.0,0.0,0.0,0.0,0.0,0.0,0.0,0.0,0.0,0.0,0.0,0.0,0.0,0.0,0.0,0.0,0.0,0.0,0.0,0.0,0.0,0.0,0.0,0.0,0.0,0.0,0.0,0.0,0.0,0.0,0.0,0.0,0.0,0.0,0.0,0.0,0.0,0.0,0.0,0.0,0.0,0.0,0.0,0.0,0.0,0.0,0.0,0.0,0.0,0.0,0.0,0.0,0.0,0.0,0.0,0.0,0.0,0.0,0.0,0.0,-0.3485,-0.3605,-0.4789,-0.7266,-0.9839,-1.1156,0.0,0.0,0.0,0.0,0.0,0.0,0.0,0.0,0.0,0.0,0.0,0.0,0.0,0.0,0.0,0.0,0.0,0.0,0.0,0.0,0.0,0.0,0.0,0.0,0.0,0.0,0.0,0.0,0.0,0.0,0.0,0.0,0.0,0.0,0.0,0.0,0.0,0.0,0.0,0.0,0.0,0.0,0.0,0.0,0.0,0.0,0.0,0.0,0.0,0.0,0.0,0.0,0.0,0.0,0.0,0.0,0.0,0.0,0.0,0.0,0.0,0.0,0.0,0.0,0.0,0.0,0.0,0.0,0.0,0.0,0.0,0.0,0.0,0.0,0.0,0.0,0.0,0.0,0.0,0.0,0.0,0.0,0.0,0.0,0.0,0.0,0.0,0.0,0.0,0.0,0.0,0.0,0.0,0.0,0.0,0.0,0.0,0.0,0.0,0.0,0.0,0.0,0.0,0.0,0.0,0.0,0.0,0.0,0.0,0.0,-0.4355,-0.5539,-0.7147,-0.951,-1.0759,-1.0671,0.0,0.0,0.0,0.0,0.0,0.0,0.0,0.0,0.0,0.0,0.0,0.0,0.0,0.0,0.0,0.0,0.0,0.0,0.0,0.0,0.0,0.0,0.0,0.0,0.0,0.0,0.0,0.0,0.0,0.0,0.0,0.0,0.0,0.0,0.0,0.0,0.0,0.0,0.0,0.0,0.0,0.0,0.0,0.0,0.0,0.0,0.0,0.0,0.0,0.0,0.0,0.0,0.0,0.0,0.0,0.0,0.0,0.0,0.0,0.0,0.0,0.0,0.0,0.0,0.0,0.0,0.0,0.0,0.0,0.0,0.0,0.0,0.0,0.0,0.0,0.0,0.0,0.0,0.0,0.0,0.0,0.0,0.0,0.0,0.0,0.0,0.0,0.0,0.0,0.0,0.0,0.0,0.0,0.0,0.0,0.0,0.0,0.0,0.0,0.0,0.0,0.0,0.0,0.0,0.0,0.0,0.0,0.0,0.0,0.0,-0.5755,-0.6943,-0.8801,-0.9943,0.0,0.0,0.0,0.0,0.0,0.0,0.0,0.0,0.0,0.0,0.0,0.0,0.0,0.0,0.0,0.0,0.0,0.0,0.0,0.0,0.0,0.0,0.0,0.0,0.0,0.0,0.0,0.0,0.0,0.0,0.0,0.0,0.0,0.0,0.0,0.0,0.0,0.0,0.0,0.0,0.0,0.0,0.0,0.0,0.0,0.0,0.0,0.0,0.0,0.0,0.0,0.0,0.0,0.0,0.0,0.0,0.0,0.0,0.0,0.0,0.0,0.0,0.0,0.0,0.0,0.0,0.0,0.0,0.0,0.0,0.0,0.0,0.0,0.0,0.0,0.0,0.0,0.0,0.0,0.0,0.0,0.0,0.0,0.0,0.0,0.0,0.0,0.0,0.0,0.0,0.0,0.0,0.0,0.0,0.0,0.0,0.0,0.0,0.0,0.0,0.0,0.0,0.0,0.0,0.0,0.0,0.0,0.0,0.0,0.0,0.0,-0.5846,-0.6901,-0.8165,0.0,-0.9816,0.0,0.0,0.0,0.0,0.0,0.0,0.0,0.0,0.0,0.0,0.0,0.0,0.0,0.0,0.0,0.0,0.0,0.0,0.0,0.0,0.0,0.0,0.0,0.0,0.0,0.0,0.0,0.0,0.0,0.0,0.0,0.0,0.0,0.0,0.0,0.0,0.0,0.0,0.0,0.0,0.0,0.0,0.0,0.0,0.0,0.0,0.0,0.0,0.0,0.0,0.0,0.0,0.0,0.0,0.0,0.0,0.0,0.0,0.0,0.0,0.0,0.0,0.0,0.0,0.0,0.0,0.0,0.0,0.0,0.0,0.0,0.0,0.0,0.0,0.0,0.0,0.0,0.0,0.0,0.0,0.0,0.0,0.0,0.0,0.0,0.0,0.0,0.0,0.0,0.0,0.0,0.0,0.0,0.0,0.0,0.0,0.0,0.0,0.0,0.0,0.0,0.0,0.0,0.0,0.0,0.0,0.0,0.0,0.0,0.0,0.0,0.0,-0.8982,-1.0138,-0.9889,0.0,0.0,0.0,0.0,0.0,0.0,0.0,0.0,0.0,0.0,0.0,0.0,0.0,0.0,0.0,0.0,0.0,0.0,0.0,0.0,0.0,0.0,0.0,0.0,0.0,0.0,0.0,0.0,0.0,0.0,0.0,0.0,0.0,0.0,0.0,0.0,0.0,0.0,0.0,0.0,0.0,0.0,0.0,0.0,0.0,0.0,0.0,0.0,0.0,0.0,0.0,0.0,0.0,0.0,0.0,0.0,0.0,0.0,0.0,0.0,0.0,0.0,0.0,0.0,0.0,0.0,0.0,0.0,0.0,0.0,0.0,0.0,0.0,0.0,0.0,0.0,0.0,0.0,0.0,0.0,0.0,0.0,0.0,0.0,0.0,0.0,0.0,0.0,0.0,0.0,0.0,0.0,0.0,0.0,0.0,0.0,0.0,0.0,0.0,0.0,0.0,0.0,0.0,0.0,0.0,0.0,0.0,0.0,0.0,0.0,-0.6679,-0.6546,-0.8791,-0.9881,-0.9582,0.0,0.0,0.0,0.0,0.0,0.0,0.0,0.0,0.0,0.0,0.0,0.0,0.0,0.0,0.0,0.0,0.0,0.0,0.0,0.0,0.0,0.0,0.0,0.0,0.0,0.0,0.0,0.0,0.0,0.0,0.0,0.0,0.0,0.0,0.0,0.0,0.0,0.0,0.0,0.0,0.0,0.0,0.0,0.0,0.0,0.0,0.0,0.0,0.0,0.0,0.0,0.0,0.0,0.0,0.0,0.0,0.0,0.0,0.0,0.0,0.0,0.0,0.0,0.0,0.0,0.0,0.0,0.0,0.0,0.0,0.0,0.0,0.0,0.0,0.0,0.0,0.0,0.0,0.0,0.0,0.0,0.0,0.0,0.0,0.0,0.0,0.0,0.0,0.0,0.0,0.0,0.0,0.0,0.0,0.0,0.0,0.0,0.0,0.0,0.0,0.0,0.0,0.0,0.0,0.0,0.0,0.0,0.0,0.0,0.0,0.0,0.0,0.0,0.0,-0.9194,0.0,0.0,0.0,0.0,0.0,0.0,0.0,0.0,0.0,0.0,0.0,0.0,0.0,0.0,0.0,0.0,0.0,0.0,0.0,0.0,0.0,0.0,0.0,0.0,0.0,0.0,0.0,0.0,0.0,0.0,0.0,0.0,0.0,0.0,0.0,0.0,0.0,0.0,0.0,0.0,0.0,0.0,0.0,0.0,0.0,0.0,0.0,0.0,0.0,0.0,0.0,0.0,0.0,0.0,0.0,0.0,0.0,0.0,0.0,0.0,0.0,0.0,0.0,0.0,0.0,0.0,0.0,0.0,0.0,0.0,0.0,0.0,0.0,0.0,0.0,0.0,0.0,0.0,0.0,0.0,0.0,0.0,0.0,0.0,0.0,0.0,0.0,0.0,0.0,0.0,0.0,0.0,0.0,0.0,0.0,0.0,0.0,0.0,0.0,0.0,0.0,0.0,0.0,0.0,0.0,0.0,0.0,0.0,0.0,0.0,0.0,0.0,0.0,0.0,0.0,0.0,0.0,0.0,0.0,0.0,0.0,0.0,0.0,0.0,0.0,0.0,0.0,0.0,0.0,0.0,0.0,0.0,0.0,0.0,0.0,0.0,0.0,0.0,0.0,0.0,0.0,0.0,0.0,0.0,0.0,0.0,0.0,0.0,0.0,0.0,0.0,0.0,0.0,0.0,0.0,0.0,0.0,0.0,0.0,0.0,0.0,0.0,0.0,0.0,0.0,0.0,0.0,0.0,0.0,0.0,0.0,0.0,0.0,0.0,0.0,0.0,0.0,0.0,0.0,0.0,0.0,0.0,0.0,0.0,0.0,0.0,0.0,0.0,0.0,0.0,0.0,0.0,0.0,0.0,0.0,0.0,0.0,0.0,0.0,0.0,0.0,0.0,0.0,0.0,0.0,0.0,0.0,0.0,0.0,0.0,0.0,0.0,0.0,0.0,0.0,0.0,0.0,0.0,0.0,0.0,0.0,0.0,0.0,0.0,0.0,0.0,0.0,0.0,0.0,0.0,0.0,0.0,0.0,0.0,0.0,0.0,0.0,0.0,0.0,0.0,0.0,0.0,0.0,0.0,0.0,0.0,0.0,0.0,0.0,0.0,0.0,0.0,0.0,0.0,0.0,0.0,0.0,0.0,0.0,0.0,0.0,0.0,0.0,0.0,0.0,0.0,0.0,0.0,0.0,0.0,0.0,0.0,0.0,0.0,0.0,0.0,0.0,0.0,0.0,0.0,0.0,0.0,0.0,0.0,0.0,0.0,0.0,0.0,0.0,0.0,0.0,0.0,0.0,0.0,0.0,0.0,0.0,0.0,0.0,0.0,0.0,0.0,0.0,0.0,0.0,0.0,0.0,0.0,0.0,0.0,0.0,0.0,0.0,0.0,0.0,0.0,0.0,0.0,0.0,0.0,0.0,0.0,0.0,0.0,0.0,0.0,0.0,0.0,0.0,0.0,0.0,0.0,0.0,0.0,0.0,0.0,0.0,0.0,0.0,0.0,0.0,0.0,0.0,0.0,0.0,0.0,0.0,0.0,0.0,0.0,0.0,0.0,0.0,0.0,0.0,0.0,0.0,0.0,0.0,0.0,0.0,0.0,0.0,0.0,0.0,0.0,0.0,0.0,0.0,0.0,0.0,0.0,0.0,0.0,0.0,0.0,0.0,0.0,0.0,0.0,0.0,0.0,0.0,0.0,0.0,0.0,0.0,0.0,0.0,0.0,0.0,0.0,0.0,0.0,0.0,0.0,0.0,0.0,0.0,0.0,0.0,0.0,0.0,0.0,0.0,0.0,0.0,0.0,0.0,0.0,0.0,0.0,0.0,0.0,0.0,0.0,0.0,0.0,0.0,0.0,0.0,0.0,0.0,0.0,0.0,0.0,0.0,0.0,0.0,0.0,0.0,0.0,0.0,0.0,0.0,0.0,0.0,0.0,0.0,0.0,0.0,0.0,0.0,0.0,0.0,0.0,0.0,0.0,0.0,0.0,0.0,0.0,0.0,0.0,0.0,0.0,0.0,0.0,0.0,0.0,0.0,0.0,0.0,0.0,0.0,0.0,0.0,0.0,0.0,0.0,0.0,0.0,0.0,0.0,0.0,0.0,0.0,0.0,0.0,0.0,0.0,0.0,0.0,0.0,0.0,0.0,0.0,0.0,0.0,0.0,0.0,0.0,0.0,0.0,0.0,0.0,0.0,0.0,0.0,0.0,0.0,0.0,0.0,0.0,0.0,0.0,0.0,0.0,0.0,0.0,0.0,0.0,0.0,0.0,0.0,0.0,0.0,0.0,0.0,0.0,0.0,0.0,0.0,0.0,0.0,0.0,0.0,0.0,0.0,0.0,0.0,0.0,0.0,0.0,0.0,0.0,0.0,0.0,0.0,0.0,0.0,0.0,0.0,0.0,0.0,0.0,0.0,0.0,0.0,0.0,0.0,0.0,0.0,0.0,0.0,0.0,0.0,0.0,0.0,0.0,0.0,0.0,0.0,0.0,0.0,0.0,0.0,0.0,0.0,0.0,0.0,0.0,0.0,0.0,0.0,0.0,0.0,0.0,0.0,0.0,0.0,0.0,0.0,0.0,0.0,0.0,0.0,0.0,0.0,0.0,0.0,0.0,0.0,0.0,0.0,0.0,0.0,0.0,0.0,0.0,0.0,0.0,0.0,0.0,0.0,0.0,0.0,0.0,0.0,0.0,0.0,0.0,0.0,0.0,0.0,0.0,0.0,0.0,0.0,0.0,0.0,0.0,0.0,0.0,0.0,0.0,0.0,0.0,0.0,0.0,0.0,0.0,0.0,0.0,0.0,0.0,0.0,0.0,0.0,0.0,0.0,0.0,0.0,0.0,0.0,0.0,0.0,0.0,0.0,0.0,0.0,0.0,0.0,0.0,0.0,0.0,0.0,0.0,0.0,0.0,0.0,0.0,0.0,0.0,0.0,0.0,0.0,0.0,0.0,0.0,0.0,0.0,0.0,0.0,0.0,0.0,0.0,0.0,0.0,0.0,0.0,0.0,0.0,0.0,0.0,0.0,0.0,0.0,0.0,0.0,0.0,0.0,0.0,0.0,0.0,0.0,0.0,0.0,0.0,0.0,0.0,0.0,0.0,0.0,0.0,0.0,0.0,0.0,0.0,0.0,0.0,0.0,0.0,0.0,0.0,0.0,0.0,0.0,0.0,0.0,0.0,0.0,0.0,0.0,0.0,0.0,0.0,0.0,0.0,0.0,0.0,0.0,0.0,0.0,0.0,0.0,0.0,0.0,0.0,0.0,0.0,0.0,0.0,0.0,0.0,0.0,0.0,0.0,0.0,0.0,0.0,0.0,0.0,0.0,0.0,0.0,0.0,0.0,0.0,0.0,0.0,0.0,0.0,0.0,0.0,0.0,0.0,0.0,0.0,0.0,0.0,0.0,0.0,0.0,0.0,0.0,0.0,0.0,0.0,0.0,0.0,0.0,0.0,0.0,0.0,0.0,0.0,0.0,0.0,0.0,0.0,0.0,0.0,0.0,0.0,0.0,0.0,0.0,0.0,0.0,0.0,0.0,0.0,0.0,0.0,0.0,0.0,0.0,0.0,0.0,0.0,0.0,0.0,0.0,0.0,0.0,0.0,0.0,0.0,0.0,0.0,0.0,0.0,0.0,0.0,0.0,0.0,0.0,0.0,0.0,0.0,0.0,0.0,0.0,0.0,0.0,0.0,0.0,0.0,0.0,0.0,0.0,0.0,0.0,0.0,0.0,0.0,0.0,0.0,0.0,0.0,0.0,0.0,0.0,0.0,0.0,0.0,0.0,0.0,0.0,0.0,0.0,0.0,0.0,0.0,0.0,0.0,0.0,0.0,0.0,0.0,0.0,0.0,0.0,0.0,0.0,0.0,0.0,0.0,0.0,0.0,0.0,0.0,0.0,0.0,0.0,0.0,0.0,0.0,0.0,0.0,0.0,0.0,0.0,0.0,0.0,0.0,0.0,0.0,0.0,0.0,0.0,0.0,0.0,0.0,0.0,0.0,0.0,0.0,0.0,0.0,0.0,0.0,0.0,0.0,0.0,0.0,0.0,0.0,0.0,0.0,0.0,0.0,0.0,0.0,0.0,0.0,0.0,0.0,0.0,0.0,0.0,0.0,0.0,0.0,0.0,0.0,0.0,0.0,0.0,0.0,0.0,0.0,0.0,0.0,0.0,0.0,0.0,0.0,0.0,0.0,0.0,0.0,0.0,0.0,0.0,0.0,0.0,0.0,0.0,0.0,0.0,0.0,0.0,0.0,0.0,0.0,0.0,0.0,0.0,0.0,0.0,0.0,0.0,0.0,0.0,0.0,0.0,0.0,0.0,0.0,0.0,0.0,0.0,0.0,0.0,0.0,0.0]}],[{"header":{"parameterUnit":"kt","parameterCategory":2,"dx":1,"dy":1,"la1":29.587661999999998,"la2":31.0,"lo1":-88.76705300000003,"lo2":-86.6583820000003,"nx":115,"ny":88,"refTime":"2022-10-22T06:00:00:Z","depth":0,"parameterNumber":2,"parameterNumberName":"V-component_of_WINDS"},"data":[-17.1222,-17.1222,-17.1222,-17.1222,-17.1222,-17.1222,-17.1343,-17.151,-17.139,-17.179,-17.2835,-17.3784,-17.445,-17.4633,-17.6648,-17.7553,-17.7667,-17.798,-17.817,-17.8206,-17.8281,-17.8281,-17.8431,-17.8657,-17.9634,-18.1514,-18.3469,-18.3996,-18.5048,-18.4672,-18.4221,-18.4447,-18.4372,-18.4296,-18.4221,-18.3544,-18.3375,-18.2407,-18.2033,-18.1202,-18.0355,-18.0033,-17.9957,-17.9957,-17.9957,-17.9957,-17.9957,-17.9957,-17.9572,-17.8935,-17.8142,-17.7667,-17.7358,-17.7298,-17.7298,-17.7298,-17.7298,-17.6199,-17.5236,-17.445,-17.3486,-17.1949,-17.1222,-17.1222,-17.1222,-17.1222,-17.11,-17.0782,-17.0335,-17.0081,-16.9824,-16.9504,-16.897,-16.7863,-16.5676,-16.2655,-16.0164,-15.9327,-15.896,-15.9027,-15.8842,-15.8403,-15.765,-15.7137,-15.6555,-15.5711,-15.4466,-15.3875,-15.3151,-15.1263,-14.923,-14.7136,-14.5162,-14.2451,-13.9095,-13.8393,-13.7859,-13.6902,-13.6124,-13.5585,-13.5047,-13.4389,-13.3741,-13.3639,-13.3536,-13.3479,-13.3645,-13.4028,-13.2663,-13.1556,-13.0291,-12.8087,-12.5095,-12.2083,-11.9701,-17.1222,-17.1222,-17.1222,-17.1222,-17.1222,-17.1222,-17.1673,-17.2216,-17.1556,-17.179,-17.2728,-17.4633,-17.5405,-17.5968,-17.6999,-17.7404,-17.7802,-17.8038,-17.8226,-17.8281,-17.8281,-17.8281,-17.8281,-17.8507,-18.0311,-18.2567,-18.4973,-18.6026,-18.6778,-18.6853,-18.6853,-18.7454,-18.753,-18.7454,-18.7078,-18.6101,-18.4372,-18.3107,-18.2149,-18.0936,-18.0047,-17.9653,-17.9881,-17.9957,-17.9957,-17.9957,-17.9957,-17.9844,-17.9584,-17.8936,-17.8116,-17.7605,-17.7366,-17.7298,-17.7298,-17.7298,-17.7298,-17.6576,-17.5489,-17.4633,-17.3486,-17.2585,-17.1673,-17.1343,-17.1222,-17.1222,-17.1222,-17.0977,-17.0335,-17.0081,-16.9824,-16.9563,-16.9238,-16.849,-16.5676,-16.2821,-16.0914,-15.9144,-15.896,-15.896,-15.8775,-15.8403,-15.8028,-15.746,-15.682,-15.6239,-15.5387,-15.4795,-15.3943,-15.257,-15.0453,-14.8396,-14.652,-14.3707,-14.0305,-13.9475,-13.9175,-13.8278,-13.75,-13.6722,-13.5944,-13.4526,-13.3639,-13.2998,-13.2533,-13.2478,-13.2585,-13.3221,-13.2781,-13.1822,-12.9835,-12.7435,-12.4951,-12.312,-12.0756,-17.1222,-17.1222,-17.1222,-17.1222,-17.1222,-17.1222,-17.151,-17.1833,-17.2063,-17.2328,-17.2941,-17.4633,-17.5727,-17.5889,-17.7066,-17.7667,-17.7713,-17.8095,-17.8226,-17.8281,-17.8281,-17.8281,-17.8281,-17.8356,-18.0461,-18.2416,-18.4747,-18.6627,-18.768,-18.8206,-18.8206,-18.8056,-18.8056,-18.7981,-18.7906,-18.7379,-18.5951,-18.3695,-18.3314,-18.1584,-17.9344,-17.9577,-17.9957,-17.9957,-17.9957,-17.9957,-17.9957,-17.9922,-17.9559,-17.8852,-17.8366,-17.7917,-17.744,-17.7298,-17.7298,-17.7298,-17.7155,-17.6797,-17.5809,-17.4723,-17.3685,-17.2694,-17.179,-17.1343,-17.1222,-17.1222,-17.1222,-17.11,-17.0658,-17.0208,-16.9953,-16.9766,-16.9371,-16.8352,-16.5828,-16.3962,-16.2389,-16.0097,-15.896,-15.896,-15.8775,-15.8403,-15.784,-15.746,-15.7078,-15.6304,-15.5913,-15.5256,-15.4994,-15.4273,-15.1466,-14.9035,-14.6897,-14.4146,-14.1448,-14.0492,-14.0252,-13.9714,-13.8996,-13.8158,-13.6907,-13.5187,-13.3532,-13.2651,-13.2066,-13.1653,-13.1825,-13.2163,-13.1917,-13.1311,-12.947,-12.7,-12.5784,-12.3897,-12.1691,-17.1222,-17.1222,-17.1222,-17.1222,-17.1222,-17.1222,-17.1222,-17.1343,-17.2476,-17.3046,-17.3385,-17.5063,-17.6121,-17.6352,-17.7274,-17.7652,-17.7772,-17.802,-17.8281,-17.8281,-17.8281,-17.8281,-17.8281,-17.8356,-17.986,-18.1815,-18.3394,-18.4823,-18.6853,-18.7906,-18.8206,-18.8206,-18.8206,-18.8206,-18.8131,-18.7304,-18.5951,-18.377,-18.301,-18.1471,-17.9609,-17.9653,-17.9957,-17.9957,-17.9957,-17.9957,-17.9957,-17.9957,-17.9544,-17.9068,-17.884,-17.8279,-17.7582,-17.7373,-17.7298,-17.7298,-17.7298,-17.6869,-17.6121,-17.4989,-17.4074,-17.3046,-17.2063,-17.1628,-17.1222,-17.1222,-17.1222,-17.11,-17.0782,-17.0533,-17.0081,-16.9895,-16.9371,-16.7792,-16.6128,-16.5064,-16.3962,-16.154,-15.9144,-15.896,-15.896,-15.8403,-15.784,-15.727,-15.6886,-15.6499,-15.6109,-15.5847,-15.5519,-15.5191,-15.2457,-14.9456,-14.7263,-14.5343,-14.2888,-14.1449,-14.109,-14.0611,-14.0312,-13.9475,-13.8281,-13.6853,-13.543,-13.3539,-13.1654,-13.1065,-13.094,-13.1282,-13.1253,-13.0618,-12.8871,-12.5912,-12.444,-12.2598,-12.1249,-17.1222,-17.1222,-17.1222,-17.1222,-17.1222,-17.1222,-17.1222,-17.139,-17.3151,-17.4074,-17.4357,-17.6199,-17.7015,-17.701,-17.7414,-17.7652,-17.7772,-17.802,-17.8281,-17.8281,-17.8281,-17.8281,-17.8281,-17.8431,-17.9559,-18.0913,-18.2416,-18.392,-18.58,-18.7304,-18.8206,-18.8206,-18.8206,-18.7906,-18.768,-18.6778,-18.5199,-18.3168,-18.2021,-18.1155,-17.9958,-17.9805,-17.9957,-17.9957,-17.9957,-17.9957,-17.9957,-17.9957,-17.9878,-17.9416,-17.9063,-17.8516,-17.7948,-17.7582,-17.7298,-17.7298,-17.7298,-17.7085,-17.6576,-17.5321,-17.445,-17.3458,-17.2328,-17.1556,-17.1343,-17.1222,-17.1222,-17.1222,-17.0977,-17.0658,-17.028,-16.9895,-16.9504,-16.849,-16.6572,-16.5218,-16.3801,-16.1882,-15.9805,-15.896,-15.896,-15.8403,-15.784,-15.746,-15.7078,-15.6304,-15.5913,-15.5913,-15.5847,-15.5847,-15.3115,-14.9836,-14.8216,-14.6712,-14.407,-14.223,-14.187,-14.1688,-14.1569,-14.0851,-13.9356,-13.8162,-13.703,-13.4716,-13.2414,-13.1173,-13.0235,-13.0526,-13.0627,-12.9952,-12.8231,-12.5198,-12.272,-12.0555,-11.9414,-17.1222,-17.1222,-17.1222,-17.1222,-17.1222,-17.1222,-17.1222,-17.1628,-17.3357,-17.417,-17.445,-17.6352,-17.7298,-17.7291,-17.7553,-17.7667,-17.7652,-17.8038,-17.8281,-17.8281,-17.8281,-17.8281,-17.8281,-17.8431,-17.9258,-18.0386,-18.174,-18.3093,-18.5575,-18.7229,-18.8056,-18.7981,-18.8206,-18.7605,-18.6702,-18.565,-18.4071,-18.2191,-18.0721,-17.9869,-17.9642,-17.9729,-17.9881,-17.9957,-17.9957,-17.9957,-17.9957,-17.9957,-17.9729,-17.9372,-17.904,-17.8592,-17.7956,-17.7648,-17.7358,-17.7298,-17.7298,-17.7298,-17.7085,-17.5809,-17.4901,-17.3978,-17.2941,-17.1949,-17.1628,-17.1222,-17.1222,-17.1222,-17.11,-17.0854,-17.0407,-17.0025,-16.9635,-16.9104,-16.7223,-16.5218,-16.3408,-16.1813,-16.0385,-15.9327,-15.8775,-15.8403,-15.8028,-15.765,-15.7078,-15.6304,-15.5913,-15.5913,-15.5913,-15.5913,-15.3718,-15.0883,-14.9376,-14.7835,-14.5404,-14.3125,-14.247,-14.1808,-14.1868,-14.1447,-14.0485,-13.9167,-13.7794,-13.5653,-13.3104,-13.1581,-13.0293,-13.0293,-12.9749,-12.9209,-12.8121,-12.39,-12.0578,-11.8702,-11.8291,-17.0788,-17.1222,-17.1222,-17.1222,-17.1222,-17.1222,-17.1222,-17.151,-17.3357,-17.417,-17.4264,-17.6352,-17.7298,-17.7298,-17.7553,-17.7605,-17.7788,-17.8038,-17.8226,-17.8281,-17.8281,-17.8281,-17.8281,-17.8356,-17.8958,-17.986,-18.0762,-18.2041,-18.4146,-18.5725,-18.6477,-18.6778,-18.6251,-18.58,-18.5048,-18.4372,-18.2341,-18.0537,-17.9634,-17.9253,-17.9264,-17.9668,-17.9881,-17.9957,-17.9957,-17.9957,-17.9957,-17.9957,-17.9881,-17.9491,-17.9202,-17.8703,-17.8103,-17.7755,-17.7489,-17.7291,-17.7298,-17.7298,-17.7085,-17.6276,-17.5236,-17.417,-17.3486,-17.2585,-17.1628,-17.1222,-17.1222,-17.1222,-17.1222,-17.0658,-17.0208,-16.9953,-16.9694,-16.8898,-16.7509,-16.5676,-16.3892,-16.2152,-16.0562,-15.9624,-15.896,-15.8589,-15.784,-15.746,-15.7078,-15.6304,-15.5913,-15.5913,-15.5913,-15.5913,-15.439,-15.2211,-15.0242,-14.7994,-14.5573,-14.3362,-14.253,-14.1868,-14.1868,-14.1506,-14.0723,-13.9635,-13.8496,-13.6585,-13.433,-13.2329,-13.0817,-12.9575,-12.9035,-12.843,-12.6969,-12.2551,-11.8719,-11.7207,-11.6249,-16.9777,-17.1149,-17.1222,-17.1222,-17.1222,-17.1222,-17.1222,-17.1463,-17.3357,-17.417,-17.4264,-17.6276,-17.7155,-17.7366,-17.7553,-17.7667,-17.7727,-17.8095,-17.8226,-17.8281,-17.8281,-17.8281,-17.8281,-17.8281,-17.8507,-17.9033,-17.9785,-18.0762,-18.1138,-18.3018,-18.377,-18.3695,-18.4146,-18.3469,-18.2717,-18.1815,-18.0386,-17.9484,-17.8862,-17.9027,-17.9216,-17.9653,-17.9957,-17.9957,-17.9957,-17.9957,-17.9957,-17.9957,-17.9957,-17.9797,-17.947,-17.9051,-17.8605,-17.8065,-17.7713,-17.7349,-17.7298,-17.7298,-17.7085,-17.6502,-17.5405,-17.4357,-17.4074,-17.2941,-17.2021,-17.1222,-17.1222,-17.1222,-17.1222,-17.0782,-17.0208,-17.0081,-16.9824,-16.8827,-16.7651,-16.6128,-16.4369,-16.2821,-16.1194,-15.9805,-15.9144,-15.8589,-15.784,-15.746,-15.7078,-15.6499,-15.6109,-15.5913,-15.5913,-15.5913,-15.5056,-15.2833,-15.0883,-14.8216,-14.5802,-14.3599,-14.253,-14.1868,-14.1868,-14.1626,-14.065,-13.9676,-13.8899,-13.7336,-13.5193,-13.3493,-13.1806,-13.0211,-12.8781,-12.6781,-12.5317,-12.1737,-11.9055,-11.71,-11.5965,-16.9705,-17.1149,-17.1222,-17.1222,-17.1222,-17.1222,-17.1222,-17.151,-17.2585,-17.3586,-17.4357,-17.5646,-17.6576,-17.7223,-17.7553,-17.7667,-17.7667,-17.8038,-17.8281,-17.8281,-17.8281,-17.8281,-17.8281,-17.8281,-17.8281,-17.8431,-17.9033,-17.986,-18.0612,-18.1364,-18.1965,-18.2642,-18.3168,-18.189,-18.0386,-17.9785,-17.8882,-17.8732,-17.8765,-17.9057,-17.9216,-17.9577,-17.9957,-17.9957,-17.9957,-17.9957,-17.9957,-17.9957,-17.9957,-17.9881,-17.9598,-17.9238,-17.8749,-17.8286,-17.783,-17.7414,-17.7298,-17.7298,-17.7298,-17.6724,-17.5809,-17.445,-17.4264,-17.3254,-17.179,-17.1343,-17.1222,-17.1222,-17.1222,-17.0782,-17.0208,-17.0208,-16.9824,-16.9371,-16.8074,-16.6642,-16.5064,-16.4052,-16.2488,-15.9917,-15.896,-15.8589,-15.8028,-15.765,-15.727,-15.6693,-15.6043,-15.6109,-15.5913,-15.5913,-15.5453,-15.3718,-15.1938,-14.953,-14.6938,-14.407,-14.253,-14.2109,-14.1868,-14.1626,-14.0895,-14.0159,-13.9181,-13.8156,-13.6082,-13.4016,-13.262,-13.1457,-13.0163,-12.8007,-12.537,-12.2535,-11.9685,-11.799,-11.684,-16.8911,-17.0427,-17.1005,-17.1222,-17.1222,-17.1222,-17.1222,-17.1343,-17.1949,-17.2941,-17.417,-17.5236,-17.6276,-17.708,-17.7553,-17.7667,-17.7727,-17.8038,-17.8281,-17.8281,-17.8281,-17.8281,-17.8281,-17.8281,-17.8281,-17.8281,-17.8356,-17.9033,-18.001,-17.986,-18.0687,-18.1138,-18.0837,-18.0161,-17.8882,-17.8281,-17.8281,-17.8356,-17.8689,-17.9057,-17.9064,-17.9577,-17.9957,-17.9957,-17.9957,-17.9957,-17.9957,-17.9957,-17.9957,-17.9957,-17.9909,-17.9402,-17.8745,-17.8552,-17.8055,-17.7424,-17.7298,-17.7298,-17.7298,-17.7085,-17.6426,-17.5236,-17.4357,-17.3385,-17.1949,-17.151,-17.1222,-17.1222,-17.1222,-17.0782,-17.0335,-17.0081,-16.9824,-16.9371,-16.8698,-16.7223,-16.5525,-16.4527,-16.3151,-16.0562,-15.896,-15.8589,-15.8403,-15.8028,-15.746,-15.6886,-15.6304,-15.6109,-15.5913,-15.5913,-15.5913,-15.439,-15.2626,-15.0456,-14.7612,-14.407,-14.2109,-14.1868,-14.1868,-14.1626,-14.1139,-14.0405,-13.9488,-13.8566,-13.6549,-13.454,-13.3434,-13.2271,-13.1166,-12.9575,-12.6914,-12.4312,-12.1248,-11.9055,-11.7506,-16.7394,-16.8838,-17.0572,-17.1222,-17.1222,-17.1222,-17.1222,-17.1222,-17.1463,-17.2439,-17.417,-17.5149,-17.6121,-17.7155,-17.7553,-17.7667,-17.7727,-17.8038,-17.8281,-17.8281,-17.8281,-17.8281,-17.8281,-17.8281,-17.8281,-17.8281,-17.8281,-17.8356,-17.8507,-17.8657,-17.8582,-17.8882,-17.9183,-17.8657,-17.8356,-17.8281,-17.8281,-17.8356,-17.8732,-17.8995,-17.914,-17.9653,-17.9957,-17.9957,-17.9957,-17.9957,-17.9957,-17.9957,-17.9957,-17.9998,-17.9985,-17.9496,-17.8779,-17.8618,-17.8192,-17.7424,-17.7298,-17.7298,-17.7298,-17.7298,-17.665,-17.5646,-17.4542,-17.3685,-17.2621,-17.1833,-17.1222,-17.1222,-17.1222,-17.0854,-17.0533,-17.0081,-16.9694,-16.9371,-16.9104,-16.8074,-16.5828,-16.4369,-16.2655,-16.0562,-15.9624,-15.896,-15.8589,-15.8216,-15.765,-15.7078,-15.6499,-15.6109,-15.5913,-15.5913,-15.5913,-15.4591,-15.2626,-15.067,-14.8279,-14.4538,-14.235,-14.1868,-14.1868,-14.1626,-14.1139,-14.065,-13.9853,-13.8991,-13.7323,-13.5368,-13.4319,-13.3027,-13.1631,-13.0113,-12.795,-12.5868,-12.2791,-12.0001,-11.7459,-16.7322,-16.8911,-17.0572,-17.1222,-17.1222,-17.1222,-17.1222,-17.1222,-17.1222,-17.2328,-17.417,-17.4542,-17.5571,-17.701,-17.7553,-17.7667,-17.7727,-17.8038,-17.8226,-17.8281,-17.8281,-17.8281,-17.8281,-17.8281,-17.8281,-17.8281,-17.8281,-17.8281,-17.8281,-17.8281,-17.8281,-17.8281,-17.8281,-17.8281,-17.8281,-17.8281,-17.8281,-17.8356,-17.8689,-17.9057,-17.914,-17.9653,-17.9957,-17.9957,-17.9957,-17.9957,-17.9957,-17.9957,-17.9957,-18.0006,-17.9873,-17.944,-17.897,-17.8498,-17.8116,-17.7592,-17.7298,-17.7298,-17.7298,-17.7155,-17.6797,-17.5963,-17.4812,-17.3784,-17.2801,-17.179,-17.1343,-17.1222,-17.1222,-17.11,-17.0658,-17.0208,-16.9824,-16.9371,-16.931,-16.8352,-16.6276,-16.4839,-16.2986,-16.0914,-15.9985,-15.9144,-15.8775,-15.8589,-15.8028,-15.746,-15.6693,-15.6304,-15.6109,-15.5913,-15.5913,-15.4591,-15.2833,-15.1095,-14.9158,-14.6031,-14.3423,-14.2948,-14.1868,-14.1626,-14.1383,-14.1139,-14.0346,-13.9488,-13.798,-13.614,-13.4669,-13.3318,-13.1922,-13.0526,-12.9035,-12.7405,-12.4563,-12.1765,-11.8631,-16.6961,-16.8044,-17.0355,-17.1222,-17.1222,-17.1222,-17.1222,-17.1222,-17.1222,-17.1949,-17.3046,-17.3882,-17.5075,-17.6575,-17.7274,-17.7667,-17.7863,-17.817,-17.8226,-17.8281,-17.8281,-17.8281,-17.8281,-17.8281,-17.8281,-17.8281,-17.8281,-17.8281,-17.8281,-17.8281,-17.8281,-17.8281,-17.8281,-17.8281,-17.8281,-17.8281,-17.8281,-17.8356,-17.8765,-17.9057,-17.914,-17.9653,-17.9957,-17.9957,-17.9957,-17.9957,-17.9957,-17.9957,-17.9957,-18.0022,-17.9998,-17.9407,-17.8818,-17.8674,-17.8167,-17.7424,-17.7298,-17.7298,-17.7298,-17.7155,-17.7015,-17.6121,-17.5063,-17.3978,-17.3385,-17.1949,-17.1463,-17.1222,-17.1222,-17.0905,-17.0533,-17.0208,-16.9953,-16.9504,-16.897,-16.8142,-16.6934,-16.5978,-16.4211,-16.1711,-16.0453,-15.9509,-15.9327,-15.896,-15.8216,-15.765,-15.6886,-15.6304,-15.6109,-15.5913,-15.5913,-15.4991,-15.3244,-15.1518,-14.9158,-14.6938,-14.4477,-14.3186,-14.1868,-14.1868,-14.1626,-14.1383,-14.0591,-13.9922,-13.8711,-13.6621,-13.4902,-13.3551,-13.2213,-13.0759,-12.9517,-12.8679,-12.6364,-12.3554,-11.9422,-16.6383,-16.6672,-16.9922,-17.1222,-17.1222,-17.1222,-17.1222,-17.1222,-17.1222,-17.1343,-17.179,-17.3254,-17.4901,-17.6203,-17.7274,-17.7802,-17.8072,-17.817,-17.8281,-17.8281,-17.8281,-17.8281,-17.8281,-17.8281,-17.8281,-17.8281,-17.8281,-17.8281,-17.8281,-17.8281,-17.8281,-17.8281,-17.8281,-17.8281,-17.8281,-17.8281,-17.8281,-17.8356,-17.8732,-17.8982,-17.9216,-17.9577,-17.9957,-17.9957,-17.9957,-17.9957,-17.9957,-17.9957,-17.9957,-17.995,-17.9981,-17.9559,-17.8917,-17.8751,-17.8191,-17.7667,-17.7358,-17.7298,-17.7298,-17.7298,-17.7298,-17.6724,-17.5809,-17.4633,-17.3882,-17.2328,-17.139,-17.1222,-17.1222,-17.0977,-17.0533,-17.0081,-16.9824,-16.9504,-16.9104,-16.8352,-16.7722,-16.6789,-16.4994,-16.2586,-16.102,-16.0097,-15.9805,-15.896,-15.8216,-15.765,-15.6886,-15.6433,-15.6109,-15.5913,-15.5913,-15.5453,-15.3718,-15.1938,-14.953,-14.7163,-14.4942,-14.3423,-14.2109,-14.1868,-14.1868,-14.1383,-14.0895,-14.0041,-13.937,-13.716,-13.5077,-13.3958,-13.2853,-13.1224,-13.0235,-12.9699,-12.7893,-12.4563,-11.9947,-16.6146,-16.6672,-16.9922,-17.1222,-17.1222,-17.1222,-17.1222,-17.1222,-17.1222,-17.1222,-17.179,-17.3254,-17.5161,-17.6861,-17.7479,-17.7802,-17.8072,-17.817,-17.8281,-17.8281,-17.8281,-17.8281,-17.8281,-17.8281,-17.8281,-17.8281,-17.8281,-17.8281,-17.8281,-17.8281,-17.8281,-17.8281,-17.8281,-17.8281,-17.8281,-17.8281,-17.8281,-17.8281,-17.8732,-17.9027,-17.914,-17.9678,-17.9881,-17.9957,-17.9957,-17.9957,-17.9957,-17.9957,-17.9957,-17.9998,-18.0025,-17.9674,-17.913,-17.8751,-17.8239,-17.7813,-17.7424,-17.7298,-17.7298,-17.7298,-17.7298,-17.7085,-17.6576,-17.5646,-17.4357,-17.2439,-17.1222,-17.1222,-17.1222,-17.0977,-17.0533,-17.0208,-16.9895,-16.9504,-16.9238,-16.897,-16.849,-16.7367,-16.5758,-16.3732,-16.2152,-16.1089,-15.9624,-15.896,-15.8216,-15.765,-15.7078,-15.6433,-15.6239,-15.5913,-15.5913,-15.5913,-15.4591,-15.3514,-15.0883,-14.8279,-14.5634,-14.3659,-14.253,-14.1868,-14.1868,-14.1626,-14.0895,-14.0405,-13.9912,-13.7876,-13.5368,-13.4365,-13.3609,-13.198,-13.0642,-13.0468,-12.8679,-12.4814,-12.0729,-16.6026,-16.6672,-16.9922,-17.1222,-17.1222,-17.1222,-17.1222,-17.1222,-17.1222,-17.1222,-17.151,-17.2549,-17.4074,-17.605,-17.7479,-17.7863,-17.8113,-17.8226,-17.8281,-17.8281,-17.8281,-17.8281,-17.8281,-17.8281,-17.8281,-17.8281,-17.8281,-17.8281,-17.8281,-17.8281,-17.8281,-17.8281,-17.8281,-17.8281,-17.8281,-17.8281,-17.8281,-17.8356,-17.8539,-17.8831,-17.914,-17.9653,-17.9957,-17.9957,-17.9957,-17.9957,-17.9957,-17.9957,-17.9957,-17.9981,-17.9949,-17.9786,-17.9264,-17.8826,-17.8378,-17.7959,-17.7542,-17.7298,-17.7298,-17.7298,-17.7298,-17.7223,-17.7085,-17.6276,-17.4357,-17.2549,-17.1222,-17.1222,-17.11,-17.0782,-17.0407,-17.0153,-16.9766,-16.9504,-16.931,-16.897,-16.8698,-16.7722,-16.6572,-16.4839,-16.3151,-16.1194,-15.9624,-15.8775,-15.8028,-15.746,-15.7078,-15.6433,-15.6043,-15.5913,-15.5913,-15.5913,-15.5255,-15.439,-15.1728,-14.9158,-14.6486,-14.4477,-14.3186,-14.1868,-14.1868,-14.1383,-14.0895,-14.0405,-13.9664,-13.8228,-13.5718,-13.454,-13.3725,-13.2446,-13.1108,-12.9324,-12.7649,-12.406,-12.1248,-16.5784,-16.6672,-16.9849,-17.1222,-17.1222,-17.1222,-17.1222,-17.1222,-17.1222,-17.1222,-17.1222,-17.1628,-17.2908,-17.4812,-17.693,-17.7922,-17.8226,-17.8281,-17.8281,-17.8281,-17.8281,-17.8281,-17.8281,-17.8281,-17.8281,-17.8281,-17.8281,-17.8281,-17.8281,-17.8281,-17.8281,-17.8281,-17.8281,-17.8281,-17.8281,-17.8281,-17.8281,-17.8281,-17.8281,-17.8588,-17.91,-17.9653,-17.9957,-17.9957,-17.9957,-17.9957,-17.9957,-17.9957,-18.0018,-17.9971,-17.9971,-17.9742,-17.937,-17.8935,-17.8378,-17.8012,-17.753,-17.7298,-17.7298,-17.7298,-17.7298,-17.7298,-17.7298,-17.6121,-17.4542,-17.2694,-17.179,-17.139,-17.0977,-17.0658,-17.0208,-16.9895,-16.9504,-16.9238,-16.9176,-16.9176,-16.9176,-16.8352,-16.6934,-16.5372,-16.3962,-16.1882,-15.9442,-15.8708,-15.8028,-15.746,-15.6886,-15.6433,-15.6043,-15.5913,-15.5913,-15.5913,-15.5453,-15.4591,-15.2211,-15.0026,-14.7612,-14.5343,-14.3599,-14.1868,-14.1626,-14.1383,-14.065,-14.0159,-13.9357,-13.8024,-13.6534,-13.5238,-13.39,-13.2853,-13.1806,-12.9484,-12.6724,-12.406,-12.1248,-16.5784,-16.6672,-16.9922,-17.1222,-17.1222,-17.1222,-17.1222,-17.1222,-17.1222,-17.1222,-17.1463,-17.2289,-17.3254,-17.4723,-17.6203,-17.7467,-17.8281,-17.8281,-17.8281,-17.8281,-17.8281,-17.8281,-17.8281,-17.8281,-17.8281,-17.8281,-17.8281,-17.8281,-17.8281,-17.8281,-17.8281,-17.8281,-17.8281,-17.8281,-17.8281,-17.8281,-17.8281,-17.8281,-17.8281,-17.8486,-17.9005,-17.9653,-17.9957,-17.9957,-17.9957,-17.9957,-17.9957,-18.0012,-17.9971,-17.9949,-17.9937,-17.9923,-17.975,-17.9112,-17.8628,-17.8408,-17.7713,-17.7358,-17.7298,-17.7298,-17.7298,-17.7298,-17.7298,-17.6121,-17.4542,-17.3586,-17.2728,-17.1628,-17.11,-17.0782,-17.0208,-17.0081,-16.9766,-16.9238,-16.9176,-16.9176,-16.9176,-16.8698,-16.7437,-16.5676,-16.4596,-16.2321,-15.9624,-15.8403,-15.784,-15.746,-15.6886,-15.6304,-15.6109,-15.5913,-15.5913,-15.5913,-15.5453,-15.4591,-15.3244,-15.1095,-14.8216,-14.6031,-14.4304,-14.235,-14.1626,-14.1323,-14.0895,-14.0159,-13.9357,-13.8801,-13.7833,-13.6459,-13.4947,-13.3551,-13.2504,-13.0246,-12.7007,-12.406,-12.1248,-16.5784,-16.6744,-16.9849,-17.1222,-17.1222,-17.1222,-17.1222,-17.1222,-17.1222,-17.1222,-17.1463,-17.2021,-17.3119,-17.4468,-17.5579,-17.6711,-17.7847,-17.8281,-17.8281,-17.8281,-17.8281,-17.8281,-17.8281,-17.8281,-17.8281,-17.8281,-17.8281,-17.8281,-17.8281,-17.8281,-17.8281,-17.8281,-17.8281,-17.8281,-17.8281,-17.8281,-17.8281,-17.8281,-17.8281,-17.8507,-17.902,-17.9274,-17.9729,-17.9881,-17.9957,-17.9957,-18.0022,-17.9961,-17.9923,-17.9923,-17.9923,-17.9923,-17.9674,-17.9159,-17.8669,-17.8498,-17.783,-17.7298,-17.7298,-17.7298,-17.7298,-17.7298,-17.7298,-17.6276,-17.4812,-17.3978,-17.3151,-17.179,-17.11,-17.0658,-17.0208,-16.9953,-16.9635,-16.931,-16.9176,-16.9176,-16.9176,-16.9176,-16.7223,-16.4683,-16.4052,-16.2655,-15.9737,-15.8403,-15.784,-15.727,-15.6693,-15.6304,-15.5913,-15.5913,-15.5913,-15.5913,-15.5716,-15.5255,-15.4591,-15.1518,-14.8216,-14.6712,-14.5173,-14.277,-14.1626,-14.1383,-14.0895,-14.0405,-13.9912,-13.9109,-13.82,-13.7483,-13.5893,-13.4307,-13.2783,-13.0778,-12.7234,-12.406,-12.1194,-16.5784,-16.6672,-16.9922,-17.1222,-17.1222,-17.1222,-17.1222,-17.1222,-17.1222,-17.1222,-17.1222,-17.1343,-17.2694,-17.4376,-17.4753,-17.6129,-17.7905,-17.8281,-17.8281,-17.8281,-17.8281,-17.8281,-17.8281,-17.8281,-17.8281,-17.8281,-17.8281,-17.8281,-17.8281,-17.8281,-17.8281,-17.8281,-17.8281,-17.8281,-17.8281,-17.8281,-17.8281,-17.8281,-17.8281,-17.8507,-17.892,-17.9197,-17.9406,-17.9957,-17.9957,-18.0018,-17.9981,-18.0025,-17.9923,-17.9772,-17.9772,-17.9847,-17.9634,-17.91,-17.8634,-17.8454,-17.783,-17.7298,-17.7298,-17.7298,-17.7298,-17.7298,-17.7298,-17.6276,-17.4812,-17.4074,-17.3151,-17.1906,-17.0977,-17.0658,-17.0081,-16.9953,-16.9635,-16.931,-16.9176,-16.9176,-16.9176,-16.8834,-16.7722,-16.4753,-16.3892,-16.2821,-16.0208,-15.8403,-15.784,-15.727,-15.6693,-15.6109,-15.5913,-15.5913,-15.5913,-15.5913,-15.5913,-15.5913,-15.5913,-15.2002,-14.8939,-14.7612,-14.5173,-14.277,-14.1626,-14.1383,-14.1139,-14.065,-14.0405,-13.9853,-13.9063,-13.8098,-13.6796,-13.5615,-13.3364,-13.131,-12.763,-12.4337,-12.1411,-16.5784,-16.6672,-16.9922,-17.1222,-17.1222,-17.1222,-17.1222,-17.1222,-17.1222,-17.1222,-17.1222,-17.151,-17.2694,-17.4394,-17.4927,-17.6278,-17.7788,-17.8281,-17.8281,-17.8281,-17.8281,-17.8281,-17.8281,-17.8281,-17.8281,-17.8281,-17.8281,-17.8281,-17.8281,-17.8281,-17.8281,-17.8281,-17.8281,-17.8281,-17.8281,-17.8281,-17.8281,-17.8281,-17.8281,-17.8507,-17.8944,-17.909,-17.9389,-17.9879,-18.0006,-17.9961,-17.9949,-17.9937,-17.9923,-17.9847,-17.9772,-17.9772,-17.9617,-17.9054,-17.8669,-17.8586,-17.7772,-17.7291,-17.7298,-17.7298,-17.7298,-17.7298,-17.7298,-17.6276,-17.4723,-17.4074,-17.3151,-17.1949,-17.11,-17.0782,-17.0208,-16.9953,-16.9635,-16.9238,-16.9176,-16.9176,-16.9176,-16.9176,-16.758,-16.4909,-16.3962,-16.2488,-16.0208,-15.8403,-15.784,-15.727,-15.6499,-15.5913,-15.5913,-15.5913,-15.5913,-15.5913,-15.5913,-15.5913,-15.5453,-15.2626,-15.0026,-14.8057,-14.4942,-14.3186,-14.1868,-14.1383,-14.1139,-14.1139,-14.0895,-14.0405,-13.9676,-13.8887,-13.8052,-13.6926,-13.4786,-13.2423,-12.8752,-12.4782,-12.1779,-16.5784,-16.6672,-16.9849,-17.1222,-17.1222,-17.1222,-17.1222,-17.1222,-17.1222,-17.1222,-17.1222,-17.1343,-17.2621,-17.4664,-17.4927,-17.6129,-17.7847,-17.8281,-17.8281,-17.8281,-17.8281,-17.8281,-17.8281,-17.8281,-17.8281,-17.8281,-17.8281,-17.8281,-17.8281,-17.8281,-17.8281,-17.8281,-17.8281,-17.8281,-17.8281,-17.8281,-17.8281,-17.8281,-17.8281,-17.8507,-17.8968,-17.9053,-17.9371,-17.9874,-17.9961,-17.9923,-17.9923,-17.9923,-17.9847,-17.9847,-17.9772,-17.9742,-17.944,-17.9003,-17.8542,-17.8266,-17.7592,-17.7291,-17.7298,-17.7298,-17.7298,-17.7298,-17.7298,-17.6047,-17.4812,-17.417,-17.3254,-17.179,-17.0977,-17.0658,-17.0025,-16.9895,-16.9635,-16.931,-16.9176,-16.9176,-16.9176,-16.9176,-16.7863,-16.4994,-16.4121,-16.2221,-16.0275,-15.8775,-15.784,-15.746,-15.6693,-15.6109,-15.6109,-15.5913,-15.5913,-15.5913,-15.5913,-15.5716,-15.5255,-15.3921,-15.1095,-14.8279,-14.4942,-14.277,-14.1868,-14.1626,-14.1383,-14.1383,-14.1383,-14.1139,-14.065,-13.9853,-13.8946,-13.7524,-13.5556,-13.3176,-13.0066,-12.5652,-12.2186,-16.5784,-16.6672,-16.9922,-17.1222,-17.1222,-17.1222,-17.1222,-17.1222,-17.1222,-17.1222,-17.1222,-17.1222,-17.2694,-17.4753,-17.4841,-17.6054,-17.8095,-17.8281,-17.8281,-17.8281,-17.8281,-17.8281,-17.8281,-17.8281,-17.8281,-17.8281,-17.8281,-17.8281,-17.8281,-17.8281,-17.8281,-17.8281,-17.8281,-17.8281,-17.8281,-17.8281,-17.8281,-17.8281,-17.8281,-17.8539,-17.8965,-17.9051,-17.9331,-17.9905,-17.9999,-17.9923,-17.9847,-17.9772,-17.9772,-17.9772,-17.9772,-17.9617,-17.9269,-17.8824,-17.8423,-17.7959,-17.7467,-17.7298,-17.7298,-17.7298,-17.7298,-17.7298,-17.7155,-17.6426,-17.445,-17.417,-17.3254,-17.1556,-17.0854,-17.0407,-16.9895,-16.9837,-16.9575,-16.931,-16.9176,-16.9176,-16.9176,-16.9176,-16.758,-16.5148,-16.3962,-16.2821,-15.9442,-15.8403,-15.784,-15.746,-15.6886,-15.6304,-15.6109,-15.5913,-15.5913,-15.5913,-15.5913,-15.5913,-15.5453,-15.4991,-15.2211,-14.9376,-14.4942,-14.1868,-14.1868,-14.1626,-14.1626,-14.1868,-14.1868,-14.1626,-14.1139,-14.0591,-13.9853,-13.7759,-13.5977,-13.4132,-13.1629,-12.6826,-12.2791,-16.5784,-16.6672,-16.9922,-17.1222,-17.1222,-17.1222,-17.1222,-17.1222,-17.1222,-17.1222,-17.1222,-17.1222,-17.2585,-17.4738,-17.4753,-17.5978,-17.8151,-17.8151,-17.8281,-17.8281,-17.8281,-17.8281,-17.8281,-17.8281,-17.8281,-17.8281,-17.8281,-17.8281,-17.8281,-17.8281,-17.8281,-17.8281,-17.8281,-17.8281,-17.8281,-17.8281,-17.8281,-17.8281,-17.8281,-17.8567,-17.8977,-17.9068,-17.9363,-17.9905,-17.9999,-17.9923,-17.9847,-17.9772,-17.9772,-17.9772,-17.9772,-17.9598,-17.9216,-17.8824,-17.8378,-17.785,-17.7542,-17.7298,-17.7298,-17.7298,-17.7298,-17.7298,-17.7298,-17.6352,-17.4723,-17.417,-17.3181,-17.1028,-17.0658,-17.0407,-16.9953,-16.9766,-16.9575,-16.931,-16.9176,-16.9176,-16.9176,-16.9104,-16.7863,-16.4753,-16.4121,-16.2488,-16.0097,-15.8216,-15.746,-15.727,-15.6693,-15.6304,-15.6109,-15.5913,-15.5913,-15.5913,-15.5913,-15.5913,-15.5913,-15.5913,-15.3039,-14.981,-14.5173,-14.2948,-14.2948,-14.1868,-14.1868,-14.1868,-14.1868,-14.1868,-14.1626,-14.1139,-14.065,-13.8968,-13.6996,-13.5451,-13.3364,-12.8253,-12.4029,-16.7151,-16.7972,-17.0283,-17.1222,-17.1222,-17.1222,-17.1222,-17.1222,-17.1222,-17.1222,-17.1222,-17.1222,-17.2328,-17.3905,-17.4485,-17.5824,-17.7392,-17.7963,-17.8281,-17.8281,-17.8281,-17.8281,-17.8281,-17.8281,-17.8281,-17.8281,-17.8281,-17.8281,-17.8281,-17.8281,-17.8281,-17.8281,-17.8281,-17.8281,-17.8281,-17.8281,-17.8281,-17.8281,-17.8313,-17.8559,-17.8961,-17.9091,-17.945,-17.9846,-17.9923,-17.9847,-17.9772,-17.9772,-17.9772,-17.9772,-17.9757,-17.9483,-17.8928,-17.8674,-17.8314,-17.7592,-17.7424,-17.7298,-17.7298,-17.7298,-17.7298,-17.7298,-17.7298,-17.6199,-17.4723,-17.417,-17.3181,-17.1005,-17.0461,-17.0081,-16.9895,-16.9504,-16.931,-16.9176,-16.9176,-16.9176,-16.9176,-16.9176,-16.758,-16.5218,-16.3962,-16.2655,-15.9144,-15.8028,-15.746,-15.6886,-15.6304,-15.6109,-15.5913,-15.5913,-15.5913,-15.5913,-15.5913,-15.5913,-15.5913,-15.5651,-15.3514,-15.0242,-14.6486,-14.5173,-14.3835,-14.1868,-14.1868,-14.1868,-14.1868,-14.1868,-14.1626,-14.1383,-14.065,-13.944,-13.7711,-13.586,-13.3712,-12.9933,-12.5876,-16.8158,-16.8911,-17.0572,-17.1222,-17.1222,-17.1222,-17.1222,-17.1222,-17.1222,-17.1222,-17.1222,-17.1222,-17.2063,-17.3385,-17.4394,-17.5586,-17.6849,-17.7847,-17.8281,-17.8281,-17.8281,-17.8281,-17.8281,-17.8281,-17.8281,-17.8281,-17.8281,-17.8281,-17.8281,-17.8281,-17.8281,-17.8281,-17.8281,-17.8281,-17.8281,-17.8281,-17.8281,-17.8281,-17.8389,-17.868,-17.8993,-17.918,-17.9486,-17.9949,-17.9847,-17.9847,-17.9772,-17.9772,-17.9772,-17.9772,-17.9772,-17.944,-17.8713,-17.8669,-17.8266,-17.7479,-17.7298,-17.7298,-17.7298,-17.7298,-17.7298,-17.7298,-17.7298,-17.6426,-17.4357,-17.417,-17.2973,-17.1053,-17.0208,-16.9953,-16.9504,-16.931,-16.9176,-16.9176,-16.9176,-16.9176,-16.9176,-16.897,-16.7863,-16.4909,-16.4121,-16.2152,-15.9375,-15.784,-15.727,-15.6886,-15.6304,-15.5913,-15.5913,-15.5913,-15.5913,-15.5913,-15.5913,-15.5913,-15.5913,-15.5453,-15.3718,-15.0242,-14.8057,-14.6259,-14.3835,-14.2109,-14.1868,-14.1868,-14.1868,-14.1626,-14.1383,-14.1139,-14.0346,-13.9605,-13.7993,-13.6445,-13.3988,-13.1365,-12.7193,-16.8086,-16.8983,-17.0572,-17.1222,-17.1222,-17.1222,-17.1222,-17.1222,-17.1222,-17.1222,-17.1222,-17.1343,-17.2063,-17.3283,-17.4376,-17.5505,-17.6849,-17.7788,-17.8281,-17.8281,-17.8281,-17.8281,-17.8281,-17.8281,-17.8281,-17.8281,-17.8281,-17.8281,-17.8281,-17.8281,-17.8281,-17.8281,-17.8281,-17.8281,-17.8281,-17.8281,-17.8281,-17.8281,-17.8561,-17.8755,-17.9064,-17.9287,-17.9652,-17.9949,-17.9847,-17.9772,-17.9772,-17.9772,-17.9772,-17.9772,-17.9772,-17.944,-17.8751,-17.8594,-17.8217,-17.7358,-17.7298,-17.7298,-17.7298,-17.7298,-17.7298,-17.7298,-17.7085,-17.6426,-17.4542,-17.3978,-17.2868,-17.0514,-17.0081,-16.9824,-16.9371,-16.9104,-16.9176,-16.9176,-16.9176,-16.9176,-16.9176,-16.9176,-16.758,-16.5064,-16.3962,-16.2655,-15.8893,-15.784,-15.727,-15.6693,-15.6239,-15.5913,-15.5913,-15.5913,-15.5913,-15.5913,-15.5913,-15.5913,-15.5913,-15.5255,-15.3514,-15.0242,-14.8057,-14.5864,-14.3186,-14.235,-14.1868,-14.1626,-14.1626,-14.1139,-14.0895,-14.065,-14.0159,-13.9357,-13.8273,-13.7147,-13.4816,-13.1766,-12.8148,-16.9917,-17.0355,-17.1005,-17.1222,-17.1222,-17.1222,-17.1222,-17.1222,-17.1222,-17.1343,-17.1463,-17.1582,-17.2021,-17.3087,-17.4376,-17.5423,-17.6203,-17.7592,-17.8281,-17.8281,-17.8281,-17.8281,-17.8281,-17.8281,-17.8281,-17.8281,-17.8281,-17.8281,-17.8281,-17.8281,-17.8281,-17.8281,-17.8281,-17.8281,-17.8281,-17.8281,-17.8281,-17.8281,-17.8592,-17.8812,-17.9067,-17.9342,-17.9653,-17.9809,-17.9847,-17.9772,-17.9772,-17.9772,-17.9772,-17.9772,-17.9772,-17.944,-17.8713,-17.8628,-17.8217,-17.7479,-17.7298,-17.7298,-17.7298,-17.7298,-17.7298,-17.7155,-17.6724,-17.5646,-17.445,-17.3283,-17.222,-17.0514,-16.9953,-16.9635,-16.9238,-16.9176,-16.9176,-16.9176,-16.9176,-16.9176,-16.9176,-16.9176,-16.758,-16.4994,-16.3962,-16.1915,-15.8942,-15.746,-15.7078,-15.6304,-15.6109,-15.5913,-15.5913,-15.5913,-15.5913,-15.5913,-15.5913,-15.5913,-15.5913,-15.4591,-15.2833,-15.0456,-14.7835,-14.5173,-14.3008,-14.2109,-14.1868,-14.1868,-14.1626,-14.1383,-14.065,-14.0405,-13.9912,-13.9299,-13.8625,-13.7308,-13.5994,-13.2763,-12.9191,-17.0977,-17.1222,-17.1222,-17.1222,-17.1222,-17.1222,-17.1222,-17.1222,-17.1222,-17.139,-17.1628,-17.1628,-17.2136,-17.3193,-17.445,-17.5497,-17.6127,-17.753,-17.8281,-17.8281,-17.8281,-17.8281,-17.8281,-17.8281,-17.8281,-17.8281,-17.8281,-17.8281,-17.8281,-17.8281,-17.8281,-17.8281,-17.8281,-17.8281,-17.8281,-17.8281,-17.8356,-17.841,-17.8691,-17.9015,-17.9235,-17.955,-17.979,-17.9861,-17.9847,-17.9772,-17.9772,-17.9772,-17.9772,-17.9772,-17.9772,-17.944,-17.8863,-17.8594,-17.8217,-17.7424,-17.7298,-17.7298,-17.7298,-17.7298,-17.7298,-17.7085,-17.635,-17.5236,-17.417,-17.2973,-17.1688,-17.0208,-16.9766,-16.9575,-16.931,-16.9176,-16.9176,-16.9176,-16.9176,-16.9176,-16.9176,-16.9176,-16.7367,-16.4683,-16.3408,-16.1403,-15.8203,-15.727,-15.682,-15.6109,-15.5913,-15.5913,-15.5913,-15.5913,-15.5913,-15.5913,-15.5913,-15.5913,-15.5255,-15.439,-15.2211,-14.981,-14.7388,-14.471,-14.2948,-14.1868,-14.1868,-14.1868,-14.1868,-14.1626,-14.0895,-14.0159,-13.9357,-13.8801,-13.8492,-13.7775,-13.6634,-13.3719,-13.0066,-17.0977,-17.1222,-17.1222,-17.1222,-17.1222,-17.1222,-17.1222,-17.1222,-17.1222,-17.1463,-17.1628,-17.1628,-17.2439,-17.3685,-17.4738,-17.5824,-17.6924,-17.7772,-17.8281,-17.8281,-17.8281,-17.8281,-17.8281,-17.8281,-17.8281,-17.8281,-17.8281,-17.8281,-17.8281,-17.8281,-17.8281,-17.8281,-17.8281,-17.8281,-17.8281,-17.8281,-17.8356,-17.8619,-17.8861,-17.9188,-17.9598,-17.9805,-17.9949,-17.9999,-17.9847,-17.9772,-17.9772,-17.9772,-17.9772,-17.9772,-17.9772,-17.944,-17.8788,-17.8628,-17.8217,-17.7414,-17.7298,-17.7298,-17.7298,-17.7298,-17.7223,-17.694,-17.6199,-17.5063,-17.3784,-17.2548,-17.1338,-17.0081,-16.9707,-16.9575,-16.9176,-16.9176,-16.9176,-16.9176,-16.9176,-16.9176,-16.9104,-16.9104,-16.7651,-16.43,-16.2015,-15.9715,-15.7517,-15.6627,-15.6499,-15.6109,-15.5913,-15.5913,-15.5913,-15.5913,-15.5913,-15.5913,-15.5913,-15.5913,-15.5056,-15.3921,-15.1728,-14.9376,-14.7101,-14.4942,-14.3186,-14.1868,-14.1868,-14.1868,-14.1868,-14.1383,-14.065,-13.9853,-13.9109,-13.8359,-13.8107,-13.7622,-13.6227,-13.4153,-13.0397,-17.0658,-17.1222,-17.1222,-17.1222,-17.1222,-17.1222,-17.1222,-17.1222,-17.1222,-17.1582,-17.1863,-17.1979,-17.2767,-17.4222,-17.5149,-17.6352,-17.7788,-17.8095,-17.8281,-17.8281,-17.8281,-17.8281,-17.8281,-17.8281,-17.8281,-17.8281,-17.8281,-17.8281,-17.8281,-17.8281,-17.8281,-17.8281,-17.8281,-17.8281,-17.8281,-17.8389,-17.8492,-17.8661,-17.897,-17.9213,-17.9535,-17.986,-17.9999,-17.9923,-17.9847,-17.9772,-17.9772,-17.9772,-17.9772,-17.9772,-17.9772,-17.9598,-17.8993,-17.8467,-17.785,-17.7358,-17.7298,-17.7298,-17.7298,-17.7298,-17.7015,-17.6276,-17.5149,-17.3978,-17.2762,-17.1338,-17.0461,-16.9895,-16.9575,-16.9238,-16.9176,-16.9176,-16.9176,-16.9176,-16.9176,-16.9176,-16.9041,-16.8142,-16.6864,-16.5079,-16.2518,-15.9715,-15.7328,-15.682,-15.6499,-15.5913,-15.5913,-15.5913,-15.5913,-15.5913,-15.5913,-15.5913,-15.5913,-15.5913,-15.5453,-15.4791,-15.3039,-15.0026,-14.7612,-14.5404,-14.3659,-14.253,-14.1868,-14.1868,-14.1626,-14.108,-14.0346,-13.9605,-13.8859,-13.8107,-13.7855,-13.7544,-13.6066,-13.4356,-13.0327,-17.0533,-17.1294,-17.1222,-17.1222,-17.1222,-17.1222,-17.1222,-17.1222,-17.1222,-17.1582,-17.1906,-17.2094,-17.3087,-17.4871,-17.5734,-17.6999,-17.8226,-17.8281,-17.8281,-17.8281,-17.8281,-17.8281,-17.8281,-17.8281,-17.8281,-17.8281,-17.8281,-17.8281,-17.8281,-17.8281,-17.8281,-17.8281,-17.8335,-17.826,-17.8389,-17.8418,-17.8649,-17.8818,-17.9064,-17.9378,-17.9652,-17.9829,-17.9923,-17.9772,-17.9772,-17.9772,-17.9772,-17.9772,-17.9772,-17.9772,-17.9772,-17.9617,-17.9216,-17.8552,-17.7925,-17.7358,-17.7298,-17.7298,-17.7298,-17.7298,-17.6797,-17.5809,-17.4542,-17.3385,-17.2071,-17.0638,-16.9635,-16.9575,-16.931,-16.9104,-16.9176,-16.9176,-16.9176,-16.9176,-16.9176,-16.8834,-16.8142,-16.7223,-16.5908,-16.4457,-16.2282,-15.9354,-15.7137,-15.6433,-15.6304,-15.5913,-15.5913,-15.5913,-15.5913,-15.5913,-15.5913,-15.5913,-15.5913,-15.5913,-15.5913,-15.5453,-15.3718,-15.0456,-14.7612,-14.5404,-14.3423,-14.2109,-14.1626,-14.1626,-14.1383,-14.0895,-14.0159,-13.9357,-13.8609,-13.8107,-13.7855,-13.7544,-13.647,-13.4413,-13.0681,-17.0533,-17.1222,-17.1222,-17.1222,-17.1222,-17.1222,-17.1222,-17.1222,-17.1222,-17.1628,-17.2136,-17.2136,-17.3532,-17.5734,-17.6275,-17.7317,-17.8151,-17.8055,-17.8055,-17.8281,-17.8281,-17.8281,-17.8281,-17.8281,-17.8281,-17.8281,-17.8281,-17.8281,-17.8281,-17.8281,-17.8281,-17.8281,-17.8366,-17.8418,-17.8468,-17.8616,-17.8861,-17.9159,-17.9235,-17.9467,-17.9905,-17.9861,-17.9847,-17.9772,-17.9772,-17.9772,-17.9772,-17.9772,-17.9772,-17.9772,-17.9772,-17.9617,-17.9216,-17.8788,-17.8217,-17.7424,-17.7298,-17.7298,-17.7223,-17.7155,-17.665,-17.5571,-17.4357,-17.3107,-17.1543,-17.0263,-16.9504,-16.9176,-16.9176,-16.9176,-16.9176,-16.9176,-16.9176,-16.9318,-16.9184,-16.8497,-16.7216,-16.6909,-16.4735,-16.2257,-16.0589,-15.896,-15.6631,-15.5979,-15.5913,-15.5913,-15.5913,-15.5913,-15.5913,-15.5913,-15.5913,-15.5913,-15.5913,-15.5913,-15.5453,-15.4325,-15.1728,-14.8876,-14.6712,-14.471,-14.3186,-14.1868,-14.1626,-14.1139,-14.0895,-14.0405,-13.9912,-13.9167,-13.8609,-13.8107,-13.7855,-13.647,-13.5128,-13.3975,-13.0557,-17.0533,-17.1222,-17.1222,-17.1222,-17.1222,-17.1222,-17.1222,-17.1222,-17.1222,-17.1833,-17.2941,-17.3046,-17.4376,-17.6277,-17.5516,-17.6343,-17.785,-17.7003,-17.7078,-17.8206,-17.8281,-17.8281,-17.8281,-17.8281,-17.8281,-17.8281,-17.8281,-17.8281,-17.8281,-17.8281,-17.826,-17.8366,-17.8493,-17.8468,-17.8616,-17.8825,-17.9003,-17.9084,-17.9276,-17.9459,-17.9649,-17.9744,-17.9772,-17.9772,-17.9772,-17.9772,-17.9772,-17.9772,-17.9772,-17.9772,-17.9772,-17.9559,-17.8824,-17.8749,-17.8217,-17.7424,-17.7298,-17.7229,-17.7015,-17.7015,-17.6121,-17.4264,-17.3439,-17.2257,-17.0566,-16.9635,-16.931,-16.9176,-16.9176,-16.9176,-16.9176,-16.9176,-16.9675,-17.0467,-16.9493,-16.9197,-16.9519,-16.6917,-16.4996,-16.3836,-16.0889,-15.8663,-15.8014,-15.6702,-15.5913,-15.5913,-15.5913,-15.5913,-15.5913,-15.5913,-15.5913,-15.5913,-15.5913,-15.5255,-15.3718,-15.2626,-15.0393,-14.7772,-14.6031,-14.471,-14.253,-14.2109,-14.1626,-14.0895,-14.0405,-13.9912,-13.9357,-13.8609,-13.7855,-13.7855,-13.7797,-13.6725,-13.377,-13.1601,-12.8305,-17.0533,-17.1222,-17.1222,-17.1222,-17.1222,-17.1222,-17.1222,-17.1343,-17.179,-17.2476,-17.3312,-17.3638,-17.4625,-17.6268,-17.5444,-17.5461,-17.61,-17.5198,-17.5649,-17.7153,-17.7228,-17.798,-17.9183,-17.9334,-17.9258,-17.9258,-17.9258,-17.8958,-17.8356,-17.8281,-17.826,-17.8418,-17.8518,-17.871,-17.8745,-17.8939,-17.91,-17.9167,-17.9331,-17.8843,-17.7831,-17.7664,-17.778,-17.7812,-17.7799,-17.7799,-17.7799,-17.7874,-17.7799,-17.7799,-17.7799,-17.7469,-17.6595,-17.663,-17.6183,-17.5337,-17.5279,-17.5211,-17.4928,-17.5454,-17.4762,-17.2632,-17.2638,-17.1998,-16.9895,-16.931,-16.9176,-16.9176,-16.9176,-16.9176,-16.9176,-16.9176,-16.9611,-17.062,-16.9484,-16.8561,-16.932,-16.6574,-16.4287,-16.3292,-16.0769,-15.8741,-15.8216,-15.6965,-15.5979,-15.5913,-15.5913,-15.5913,-15.5913,-15.5913,-15.5913,-15.5847,-15.4991,-15.3921,-15.2833,-15.1728,-14.9313,-14.6712,-14.5343,-14.4477,-14.253,-14.1868,-14.1383,-14.065,-13.9912,-13.9109,-13.8551,-13.8049,-13.7855,-13.7855,-13.7544,-13.647,-13.2398,-13.0206,-12.7318,-17.0658,-17.1222,-17.1005,-17.1005,-17.0933,-17.0788,-17.0764,-17.1049,-17.2039,-17.2741,-17.2975,-17.3663,-17.4493,-17.5369,-17.5273,-17.4521,-17.3597,-17.3296,-17.4145,-17.567,-17.5724,-17.7379,-18.0161,-18.0461,-18.0537,-18.0461,-18.0386,-17.9484,-17.8281,-17.8281,-17.8313,-17.8418,-17.8663,-17.882,-17.9003,-17.8863,-17.8917,-17.9135,-17.9013,-17.7628,-17.4945,-17.4642,-17.4551,-17.4687,-17.4611,-17.446,-17.446,-17.4308,-17.4232,-17.4232,-17.4004,-17.3527,-17.2743,-17.2628,-17.2342,-17.1745,-17.169,-17.1773,-17.1643,-17.2922,-17.2817,-17.109,-17.1906,-17.1667,-16.9537,-16.8881,-16.8748,-16.8819,-16.889,-16.889,-16.9104,-16.9176,-16.9611,-17.0762,-16.8973,-16.7627,-16.7219,-16.5306,-16.3171,-16.1187,-15.9667,-15.8611,-15.8019,-15.6768,-15.5913,-15.5913,-15.5913,-15.5913,-15.5913,-15.5913,-15.5913,-15.5255,-15.3921,-15.2419,-15.1095,-14.981,-14.7549,-14.5573,-14.488,-14.407,-14.253,-14.1383,-14.065,-14.01,-13.9357,-13.8609,-13.8049,-13.7855,-13.7855,-13.7855,-13.7544,-13.6214,-13.1335,-12.8905,-12.6318,-17.0782,-17.1077,-16.9849,-16.9272,-16.92,-16.7972,-16.8019,-16.8865,-16.9108,-16.9768,-17.0893,-17.2736,-17.3681,-17.3769,-17.2566,-17.2468,-17.307,-17.204,-17.2942,-17.5499,-17.5724,-17.6852,-17.8657,-17.8807,-17.8807,-17.8807,-17.8807,-17.8657,-17.8281,-17.8313,-17.8441,-17.8418,-17.8663,-17.8887,-17.9015,-17.7869,-17.7295,-17.7248,-17.622,-17.5351,-17.4717,-17.3552,-17.2902,-17.2866,-17.1728,-17.1045,-17.0969,-16.9755,-16.9072,-16.8996,-16.7858,-16.678,-16.5982,-16.5907,-16.609,-16.6644,-16.6475,-16.6932,-16.8208,-16.9495,-16.9752,-16.8656,-16.988,-16.9843,-16.7631,-16.6179,-16.5965,-16.7106,-16.7178,-16.7749,-16.8748,-16.9033,-16.9746,-17.09,-16.8525,-16.6896,-16.715,-16.4402,-16.1839,-16.0988,-15.9271,-15.8216,-15.7754,-15.6768,-15.5979,-15.5913,-15.5913,-15.5913,-15.5913,-15.5913,-15.5056,-15.3718,-15.2833,-15.1095,-14.7549,-14.6486,-14.5404,-14.3186,-14.2709,-14.229,-14.1566,-14.1139,-14.0591,-13.9357,-13.8859,-13.8609,-13.8049,-13.7855,-13.7797,-13.7544,-13.7544,-13.647,-13.2663,-12.9177,-12.4305,-17.0472,-16.9994,-16.9127,-16.8333,-16.7611,-16.6744,-16.6704,-16.7196,-16.61,-16.6984,-16.9334,-17.1276,-17.2266,-17.2115,-17.0461,-17.0235,-17.1039,-16.9333,-17.0386,-17.3393,-17.3469,-17.5198,-17.8055,-17.8281,-17.8657,-17.9409,-17.9463,-17.9141,-17.8389,-17.8468,-17.8142,-17.7485,-17.7579,-17.7385,-17.6818,-17.5868,-17.5525,-17.5671,-17.2739,-17.1218,-17.1357,-17.0549,-17.0058,-17.0058,-16.8465,-16.7251,-16.6492,-16.5581,-16.4746,-16.3987,-16.3077,-16.1852,-16.0467,-16.0243,-15.9989,-15.9397,-15.9152,-15.9697,-16.1282,-16.1977,-16.2553,-16.3408,-16.5668,-16.5099,-15.9669,-16.0471,-16.1898,-16.3396,-16.4252,-16.5323,-16.6821,-16.7677,-16.8542,-16.9974,-16.7274,-16.5938,-16.6403,-16.3546,-16.0922,-16.0458,-15.9072,-15.8017,-15.8017,-15.6768,-15.5913,-15.5913,-15.5913,-15.5913,-15.5913,-15.5913,-15.4991,-15.2833,-15.1518,-14.9313,-14.6259,-14.471,-14.3423,-14.2049,-14.1868,-14.1626,-14.1383,-14.0895,-14.0159,-13.9416,-13.8859,-13.83,-13.7855,-13.7855,-13.7037,-13.647,-13.59,-13.4552,-13.1868,-12.8084,-12.3373,-16.9391,-16.8405,-16.8189,-16.7178,-16.5661,-16.5517,-16.53,-16.4882,-16.2845,-16.392,-16.7337,-16.8948,-16.9678,-16.9784,-16.8356,-16.7679,-16.7528,-16.6175,-16.7152,-17.0108,-17.0461,-17.2867,-17.7153,-17.7454,-17.8356,-17.9689,-18.0097,-17.9396,-17.7941,-17.8115,-17.7503,-17.616,-17.575,-17.5048,-17.3876,-17.3229,-17.3044,-17.3094,-16.916,-16.7267,-16.7326,-16.7175,-16.7023,-16.6947,-16.4974,-16.3077,-16.1711,-16.118,-16.0193,-15.8663,-15.827,-15.6905,-15.4388,-15.3979,-15.3016,-15.0717,-15.0351,-15.0839,-15.1979,-15.2378,-15.3448,-15.5537,-15.9497,-15.8128,-14.9744,-15.305,-15.6546,-15.833,-15.9757,-16.1541,-16.3325,-16.4538,-16.5628,-16.7073,-16.4994,-16.3893,-16.462,-16.1253,-15.8809,-15.8543,-15.8017,-15.7294,-15.7097,-15.6439,-15.5913,-15.5913,-15.5913,-15.5913,-15.5913,-15.5913,-15.4791,-15.2419,-15.0242,-14.7835,-14.5173,-14.3186,-14.2049,-14.1868,-14.1626,-14.1626,-14.108,-14.0405,-13.9664,-13.9664,-13.8375,-13.7506,-13.7506,-13.7448,-13.5974,-13.3498,-13.2922,-13.1933,-12.8358,-12.54,-12.2233,-16.7105,-16.6672,-16.5372,-16.4,-16.2411,-16.1184,-15.9812,-15.8551,-15.837,0.0,0.0,-16.3326,-16.4167,-16.4746,-16.4446,-16.4345,-16.427,-16.3994,-16.4846,-16.6748,-16.8153,-17.001,-17.219,-17.3619,-17.4424,-17.4753,-17.6159,-17.5983,-17.4499,-17.5995,-17.5858,-17.4274,-17.3,-17.2365,-17.1912,-16.9395,-16.7472,-16.634,-16.6807,-16.7267,-16.7326,-16.6036,-16.5278,-16.5278,-16.1104,-15.86,-15.8296,-15.564,-15.3427,-15.1732,-15.0007,-14.7584,-14.4242,-14.3445,-14.2317,-14.0398,-14.0038,-14.0008,-14.0319,-14.2584,-14.3967,-14.3663,-14.8958,-14.8839,-14.1317,-14.4987,-14.8912,-15.1766,-15.3478,-15.5619,-15.8402,-15.8647,-15.9729,-16.2515,-15.9552,-15.7912,-15.8629,-15.5922,-15.3536,-15.341,-15.394,-15.4532,-15.4532,-15.519,-15.5913,-15.5847,-15.5782,-15.5913,-15.5913,-15.5847,-15.446,-15.0756,-14.953,-14.7388,-14.3659,-14.2109,-14.1626,-14.1383,-14.108,-14.0591,-13.9605,-13.9109,-13.8859,-13.8125,-13.7233,-13.6459,-13.6285,-13.5587,-13.3723,-13.0973,-13.0461,-12.8857,-12.4081,-12.0617,-11.8319,-16.5444,-16.3928,-16.3133,-16.1473,0.0,-15.8512,-15.584,-15.212,-15.3255,-15.55,-15.8256,-15.9723,-16.058,-16.0912,-16.0912,-16.1363,-16.2239,-16.2239,-16.3092,-16.462,-16.5498,-16.6777,-16.8356,-17.001,-17.134,-17.2144,-17.3875,-17.4348,-17.3642,-17.4651,-17.383,-17.1415,-17.0701,-16.9569,-16.7893,-16.6262,-16.3839,-16.0724,-16.3328,-16.4723,-16.4746,-16.3987,-16.3153,-16.2318,-15.9131,0.0,0.0,0.0,0.0,0.0,0.0,0.0,0.0,-13.6939,0.0,-13.046,-12.9171,-12.8575,-12.865,-13.069,-13.25,-13.3564,-13.7194,-13.6077,-12.8464,-13.4427,-13.985,-14.2918,-14.5415,-14.777,-14.9814,-15.133,-15.2734,-15.395,-15.2346,-15.1098,-15.1497,-14.9918,-14.8591,-14.8482,-15.0192,-15.1639,-15.1639,-15.2823,-15.394,-15.4664,-15.4861,-15.5058,-15.565,-15.5321,-15.4207,-15.18,-15.0161,-14.7163,-14.2948,-14.1626,-14.1383,-14.0836,-14.065,-13.9863,-13.8722,-13.817,-13.7687,-13.649,-13.5718,-13.5063,-13.5005,-13.3243,-13.1165,-12.8502,-12.6626,-12.3705,-11.8752,-11.6447,-11.5385,-16.3133,-16.0823,-16.0462,-15.8656,-15.5912,-15.5296,-15.1904,-14.7092,-14.8815,-15.1224,-15.4067,-15.5543,-15.6277,-15.655,-15.655,-15.7453,-15.908,-15.9032,-15.9934,-16.1588,-16.1889,-16.2866,-16.4446,-16.6175,-16.788,-16.9586,-17.1362,-17.1954,-17.1275,-17.1868,-17.0438,-16.7266,-16.6587,-16.507,-16.29,0.0,0.0,0.0,-16.0044,-16.247,-16.2773,-16.2773,-16.2166,-16.0876,-15.8372,0.0,-15.2984,-15.0632,-14.8431,-14.6447,-14.3235,0.0,0.0,0.0,0.0,0.0,0.0,0.0,0.0,0.0,0.0,0.0,-12.2026,-11.9642,-11.4629,-12.1727,-12.8576,-13.3143,-13.6425,-13.8843,-14.0582,-14.317,-14.4722,-14.4809,-14.4062,-14.3642,-14.3986,-14.3049,-14.2696,-14.3025,-14.5589,-14.7365,-14.7365,-14.9206,-15.0718,-15.1705,-15.2625,-15.3024,-15.2962,-15.1914,-15.1327,-15.1131,-14.8314,-14.5534,-14.145,-14.0548,-13.9885,-13.9879,-13.939,-13.8486,-13.7299,-13.6878,-13.5977,-13.5159,-13.4389,-13.3725,-13.3725,-13.1096,-12.843,-12.5387,-12.2739,-11.9339,-11.4667,-11.3759,-11.3759,-15.7862,-15.7356,-15.5945,-15.4468,-15.259,-14.9774,-14.7318,-14.5399,-14.6026,-14.667,-14.7201,-14.7674,-14.86,-14.9783,-14.9783,-15.0731,-15.2236,-15.2264,-15.3242,-15.4896,-15.625,-15.7753,-15.9408,-16.1234,-16.2956,-16.4629,-16.6419,-16.5824,-16.3151,-16.4623,-16.3642,-16.047,-15.7525,-15.6579,-15.7293,-15.1994,-14.9624,-15.0648,-15.8347,-16.3077,-16.4519,-16.4519,-16.4443,-16.3987,-15.8372,-15.5033,-15.4502,-15.0176,-14.6219,-14.2994,-13.9377,-13.4466,-12.812,-12.2639,-11.6785,0.0,-10.6774,0.0,0.0,0.0,0.0,0.0,0.0,0.0,0.0,-10.6029,-11.3164,-12.3082,-12.6661,-12.962,-13.2359,-13.3766,-13.508,-13.6518,-13.5087,-13.4548,-13.5829,-13.4585,-13.4213,-13.5528,-13.8224,-14.0,-14.0197,-14.3485,-14.5918,-14.6312,-14.7956,-14.7656,-14.4632,-14.3599,-14.3404,-14.2698,-14.1524,-14.0205,-13.8328,-13.7568,-13.715,-13.5947,-13.5704,-13.5461,-13.4739,-13.4494,-13.4494,-13.4145,-13.2911,-13.2271,-13.2387,-12.934,-12.5875,-12.3083,-12.0167,-11.7132,-11.443,-11.3556,-11.3759,-15.3746,-15.2879,-15.2264,-14.8506,-14.2769,-14.0474,-13.9032,-13.8534,-13.9803,-13.9629,-13.8572,-13.9971,-14.0494,-14.0384,-14.1211,-14.2489,-14.4263,-14.6099,-14.7828,-14.9482,-15.2039,-15.3665,-15.4538,-15.7067,-15.8739,-15.9624,-16.1442,-16.1071,-15.8885,-15.9527,-15.7827,-15.3598,-15.2088,-14.9436,-14.5735,-14.2709,-14.3602,-14.8201,-15.3757,-15.8383,-16.1939,-16.2166,-16.1711,-16.0724,-15.7841,-15.5412,-15.3591,-14.9493,-14.5764,-14.2387,-13.7009,-13.0861,-12.4059,-11.6662,-10.9184,0.0,0.0,0.0,0.0,0.0,0.0,0.0,0.0,0.0,0.0,0.0,-10.131,-10.9668,-11.5477,-11.9104,-12.0226,-12.2288,-12.3728,-12.4456,-12.3263,-12.2862,-12.4509,-12.3953,-12.4481,-12.6782,-12.961,-13.1977,-13.3621,-13.6909,-13.9671,-14.1315,-13.9868,-13.7326,-13.4612,-13.6635,-13.7877,-13.683,-13.6008,-13.5321,-13.4826,-13.3571,-13.2537,-13.2124,-13.2176,-13.2112,-13.105,-13.0875,-13.0642,-12.9944,-12.9363,-12.8956,-12.8956,-12.6692,-12.4305,-12.1184,-11.7198,-11.3763,-11.215,-11.1879,-11.193,-14.8691,-14.7318,-14.4372,-13.8631,-13.1554,-13.067,-13.0212,-13.015,-13.1954,-13.1656,-12.9969,-13.1581,-13.1377,-12.9863,-13.1195,-13.3007,-13.5196,-13.8203,-14.0835,-14.3241,-14.6099,-14.8174,-14.9541,-15.1994,-15.3435,-15.3971,-15.5374,-15.4998,-15.3036,-15.2657,-15.0385,-14.6219,-14.3361,-13.889,-13.2977,-13.3836,-13.7803,-14.4657,-14.879,-15.3685,-15.9143,-16.0117,-15.989,-15.86,-15.7461,-15.5488,-15.2453,-14.8355,-14.4398,-14.0567,-13.3447,-12.6119,-11.8852,-10.9781,0.0,0.0,0.0,0.0,0.0,0.0,0.0,0.0,0.0,-7.5419,-8.2483,0.0,-9.0472,0.0,-10.3781,-10.8478,-10.8891,-11.1341,0.0,0.0,-11.1141,-11.1065,-11.2504,-11.2685,-11.3959,-11.7247,-12.0206,-12.2902,-12.5401,-12.8952,-13.1517,-13.2174,-12.9084,-12.6335,-12.5327,-12.8434,-13.0349,-12.9234,-12.8855,-12.9103,-12.8742,-12.7805,-12.6907,-12.6737,-12.7327,-12.7618,-12.6687,-12.6745,-12.6687,-12.5756,-12.5005,-12.4658,-12.4946,-12.2972,-12.0567,-11.7449,-11.3411,-11.0029,-10.9593,-10.9643,-10.9643,-14.118,-14.0124,-12.8411,-12.2396,-12.0441,-12.1672,-12.1725,-12.1163,-12.2926,-12.3134,-12.2173,-12.1792,-12.0377,-11.8456,-11.9224,0.0,-12.5045,-12.6849,-13.0233,-13.4745,-13.6474,-13.9707,-14.4187,-14.4622,-14.5606,-14.7113,-14.7528,-14.6122,-14.2917,-14.1365,-13.9599,-13.7542,-12.7053,-12.1429,-12.103,-12.5524,-13.1129,-13.7836,-14.4337,-15.0957,-15.7537,-16.0573,-16.209,-16.1863,-15.7537,-15.4274,-15.2301,-14.6131,-14.0428,-13.556,-12.7291,-11.8834,-11.0325,0.0,0.0,0.0,0.0,0.0,0.0,0.0,0.0,0.0,0.0,0.0,0.0,0.0,0.0,-8.3411,-9.1815,0.0,-10.0759,-10.2333,0.0,0.0,0.0,-10.0394,-10.1936,-10.1436,-10.2583,-10.6857,0.0,0.0,-11.3696,-11.8825,-12.0404,-11.5274,-11.6458,-11.8157,-11.887,-11.7582,-11.6979,-11.8195,-11.8071,-11.8049,-11.8724,-11.9587,-11.9894,-11.9635,-12.0638,-12.1336,-12.1278,-12.2034,-12.2906,-12.2557,-12.1087,-11.9876,-12.0889,-11.6666,-11.2684,-10.9094,-10.8816,-10.8873,-10.7264,-10.7001,-10.6951,-12.7748,-12.1045,-11.3125,-10.9932,-11.0266,-10.9989,-11.0324,-11.0882,-11.2484,-11.157,-10.8906,-10.9724,-10.8362,-10.5366,-10.591,0.0,0.0,0.0,-11.9481,-12.3466,-12.8052,-13.1852,-13.479,-13.6864,-13.822,-13.886,-13.8128,-13.6425,-13.4052,-13.1517,-12.6399,-11.8846,0.0,-11.1975,-11.5033,-11.9997,-12.6375,-13.4011,-14.0849,-14.7044,-15.2757,-15.6171,-15.7841,-15.7765,-15.5021,-15.2125,-14.9393,-14.2842,-13.6321,-13.0152,-12.0777,-11.1628,0.0,0.0,0.0,0.0,0.0,0.0,0.0,0.0,0.0,0.0,0.0,-5.9722,-6.4431,0.0,0.0,0.0,-8.1169,-8.6116,-9.0908,-9.2249,0.0,0.0,0.0,0.0,0.0,0.0,0.0,-9.6468,-9.8769,-10.1465,-10.5411,-10.6463,-10.6331,-10.4885,-10.7224,-10.9074,-10.9186,0.0,-10.8964,-10.9036,-10.9292,-10.9522,-10.9522,-10.9623,-11.0453,-11.1564,-11.3483,-11.4763,-11.4821,-11.5228,-11.5577,-11.5423,-11.4383,-11.3473,-11.3982,-10.6341,-10.0021,-10.0279,-10.0641,-10.1074,-10.0996,-10.1006,-10.1006,-11.1572,0.0,0.0,0.0,0.0,-9.7425,-9.7785,-9.9022,-10.0567,-9.9148,-9.5787,-9.7112,0.0,0.0,0.0,0.0,0.0,0.0,-10.7751,-11.1661,-11.7826,-12.2036,-12.4666,-12.7559,-12.8984,-12.8942,-12.7486,-12.5855,-12.3938,-11.755,-10.9971,-10.1527,0.0,0.0,0.0,0.0,-12.1607,-12.9918,-13.766,-14.402,-14.9038,-15.2908,-15.4654,-15.4198,-15.167,-14.8456,-14.4601,-13.7914,-13.0606,-12.2791,-11.2985,0.0,0.0,0.0,0.0,0.0,0.0,0.0,0.0,0.0,0.0,0.0,0.0,0.0,0.0,0.0,0.0,0.0,0.0,0.0,-8.0681,-8.2768,-8.3848,0.0,0.0,0.0,0.0,0.0,0.0,0.0,0.0,0.0,-9.4429,-9.4495,-9.5152,0.0,0.0,-10.2202,-10.266,-10.2941,-10.2812,-10.2417,-10.2388,0.0,-10.142,-10.1346,-10.185,-10.3711,-10.5456,-10.6736,-10.7085,-10.7492,-10.7725,-10.7725,-10.6436,-10.4631,-10.2466,-9.5046,-9.0337,-9.1268,-9.181,-9.2369,-9.3385,-9.3893,-9.4096,0.0,0.0,0.0,0.0,0.0,0.0,0.0,0.0,-8.6964,-8.6223,0.0,-8.4059,0.0,0.0,0.0,0.0,-8.5042,-9.0005,0.0,0.0,-10.4818,-10.9739,-11.4278,-11.6257,-11.7179,-11.7088,-11.556,-11.3877,-11.1536,-9.7641,0.0,0.0,0.0,0.0,0.0,0.0,-11.6537,-12.4983,-13.4815,-14.2371,-14.7293,-15.2225,-15.4047,-15.2377,-14.7648,-14.2767,-13.776,-13.0738,-12.2488,-11.2825,-10.3663,0.0,0.0,0.0,0.0,0.0,0.0,0.0,0.0,0.0,0.0,0.0,0.0,0.0,0.0,0.0,0.0,0.0,0.0,0.0,0.0,-7.4269,0.0,0.0,0.0,0.0,0.0,0.0,0.0,0.0,0.0,-8.1606,-7.937,-8.3645,-8.8577,-9.2785,0.0,0.0,0.0,0.0,-9.795,-9.8649,-9.7268,-9.5743,-9.5034,-9.5508,-9.6033,-9.615,0.0,0.0,-9.7895,-9.9058,-9.9814,-9.993,-9.7541,-9.3237,-8.6409,-8.4087,-8.3071,-8.2752,-8.3374,-8.429,-8.5408,-8.6272,-8.7034,0.0,0.0,0.0,0.0,0.0,0.0,0.0,0.0,0.0,-7.346,-7.143,-7.178,0.0,0.0,0.0,0.0,0.0,0.0,0.0,0.0,-9.4075,-9.8393,-10.1236,-10.4032,-10.5341,0.0,-10.3709,-9.8245,0.0,0.0,0.0,0.0,0.0,0.0,0.0,0.0,-11.0552,-11.9893,-12.8811,-13.6365,-14.2284,-14.6382,-14.7596,-14.5927,-14.302,-13.714,-12.7845,-11.9697,-11.1204,0.0,0.0,0.0,0.0,0.0,0.0,0.0,0.0,0.0,0.0,0.0,0.0,0.0,0.0,0.0,0.0,0.0,0.0,0.0,0.0,0.0,0.0,0.0,-7.0572,0.0,0.0,0.0,0.0,0.0,0.0,0.0,0.0,0.0,-7.2466,-7.8121,-8.3327,-8.5817,-8.9385,-9.2341,-9.4091,0.0,0.0,0.0,0.0,0.0,0.0,0.0,-8.9751,-9.0624,-9.0042,-8.9635,-9.0042,-8.9809,-8.9868,-9.0682,0.0,0.0,-7.7532,-7.5495,-7.5201,-7.5691,-7.5405,-7.5584,-7.7444,-7.743,-7.738,0.0,0.0,0.0,0.0,0.0,0.0,0.0,0.0,0.0,-6.1863,-6.0255,0.0,0.0,0.0,0.0,0.0,0.0,0.0,0.0,0.0,0.0,0.0,-8.8554,-9.1391,0.0,0.0,0.0,0.0,0.0,0.0,0.0,0.0,0.0,0.0,0.0,0.0,-10.5443,-11.4866,-12.4781,-13.2571,-13.8111,-14.197,-14.2956,-14.0831,-13.8519,-13.2561,-12.2568,0.0,0.0,0.0,0.0,0.0,0.0,0.0,0.0,0.0,0.0,0.0,0.0,0.0,0.0,0.0,0.0,0.0,0.0,0.0,0.0,0.0,0.0,0.0,0.0,0.0,-6.4751,0.0,0.0,0.0,0.0,0.0,0.0,0.0,0.0,0.0,0.0,-7.2742,-7.8082,-8.0948,-8.5015,-8.8319,-8.9975,-8.9861,-8.9505,0.0,0.0,0.0,0.0,0.0,0.0,0.0,0.0,0.0,0.0,0.0,0.0,0.0,0.0,-7.4405,-6.8547,-6.7114,-6.6757,-6.67,0.0,0.0,0.0,0.0,0.0,0.0,0.0,0.0,0.0,0.0,0.0,0.0,0.0,0.0,0.0,-5.0633,0.0,0.0,-4.9165,0.0,0.0,0.0,0.0,0.0,0.0,0.0,0.0,0.0,0.0,0.0,0.0,0.0,0.0,0.0,0.0,0.0,0.0,0.0,0.0,0.0,0.0,-10.1435,-10.9957,-12.2782,-13.1205,-13.4772,-13.9606,-14.0504,-13.7305,-13.394,-12.8967,-12.2097,0.0,0.0,0.0,0.0,0.0,0.0,0.0,0.0,0.0,0.0,0.0,0.0,0.0,0.0,0.0,0.0,0.0,0.0,0.0,0.0,0.0,0.0,0.0,0.0,0.0,0.0,-6.1251,-6.1459,-6.0298,0.0,0.0,0.0,0.0,0.0,0.0,0.0,0.0,0.0,-7.8298,-8.2776,-8.6494,-8.9132,-8.9093,-8.8225,-8.7084,-8.6518,-8.5738,-8.4458,-8.3178,-8.1899,0.0,0.0,0.0,0.0,0.0,0.0,0.0,0.0,0.0,0.0,0.0,0.0,0.0,0.0,0.0,0.0,0.0,0.0,0.0,0.0,0.0,0.0,0.0,0.0,0.0,0.0,0.0,0.0,0.0,0.0,0.0,0.0,0.0,0.0,0.0,0.0,0.0,0.0,0.0,0.0,0.0,0.0,0.0,0.0,0.0,0.0,0.0,0.0,0.0,0.0,0.0,0.0,0.0,0.0,-9.734,-10.8038,-11.7874,-12.5656,-13.1248,-13.5117,-13.5547,-13.2106,-12.7678,-12.2113,0.0,0.0,0.0,0.0,0.0,0.0,0.0,0.0,0.0,0.0,0.0,0.0,0.0,0.0,0.0,0.0,0.0,0.0,0.0,0.0,0.0,0.0,0.0,0.0,0.0,0.0,0.0,0.0,-5.816,-5.8413,-5.6108,0.0,0.0,0.0,0.0,0.0,0.0,0.0,0.0,0.0,0.0,-8.1915,-8.3561,-8.5085,-8.6129,-8.6581,-8.6283,-8.5389,-8.3237,-8.1841,-8.027,-7.8118,0.0,0.0,0.0,0.0,0.0,0.0,0.0,0.0,0.0,0.0,0.0,0.0,0.0,0.0,0.0,0.0,0.0,0.0,0.0,0.0,0.0,0.0,0.0,0.0,0.0,0.0,0.0,0.0,0.0,0.0,0.0,0.0,0.0,0.0,0.0,0.0,0.0,0.0,0.0,0.0,0.0,0.0,0.0,0.0,0.0,0.0,0.0,0.0,0.0,0.0,0.0,0.0,0.0,-9.3381,-10.4385,-11.4671,-12.2524,-12.7734,-13.121,-13.1272,-12.7981,-12.1718,-11.5227,0.0,0.0,0.0,0.0,0.0,0.0,0.0,0.0,0.0,0.0,0.0,0.0,0.0,0.0,0.0,0.0,0.0,0.0,0.0,0.0,0.0,0.0,0.0,0.0,0.0,0.0,0.0,0.0,-5.415,-5.505,-5.3989,0.0,0.0,0.0,0.0,0.0,0.0,0.0,0.0,0.0,0.0,-7.6783,-7.8493,-8.095,0.0,0.0,-8.3667,-8.3411,-8.1841,-8.0154,-7.8118,-7.5559,-7.2592,0.0,0.0,0.0,0.0,0.0,0.0,0.0,0.0,0.0,0.0,0.0,0.0,0.0,0.0,0.0,0.0,0.0,0.0,0.0,0.0,0.0,0.0,0.0,0.0,0.0,0.0,0.0,0.0,0.0,0.0,0.0,0.0,0.0,0.0,0.0,0.0,0.0,0.0,0.0,0.0,0.0,0.0,0.0,0.0,0.0,0.0,0.0,0.0,0.0,0.0,0.0,0.0,-8.9689,-9.9906,-11.2651,-12.0907,-12.4584,-12.7738,-12.7857,-12.4598,-11.6456,-10.8795,0.0,0.0,0.0,0.0,0.0,0.0,0.0,0.0,0.0,0.0,0.0,0.0,0.0,0.0,0.0,0.0,0.0,0.0,0.0,0.0,0.0,0.0,0.0,0.0,0.0,0.0,0.0,0.0,0.0,0.0,0.0,0.0,0.0,0.0,0.0,0.0,0.0,0.0,0.0,0.0,0.0,-7.1443,-7.4135,-7.65,-7.8176,0.0,-7.9339,-8.0096,-7.9921,-7.7885,-7.5442,-7.265,0.0,0.0,0.0,0.0,0.0,0.0,0.0,0.0,0.0,0.0,0.0,0.0,0.0,0.0,0.0,0.0,0.0,0.0,0.0,0.0,0.0,0.0,0.0,0.0,0.0,0.0,0.0,0.0,0.0,0.0,0.0,0.0,0.0,0.0,0.0,0.0,0.0,0.0,0.0,0.0,0.0,0.0,0.0,0.0,0.0,0.0,0.0,0.0,0.0,0.0,0.0,0.0,0.0,0.0,-9.9755,-10.8153,-11.5788,-12.2644,-12.4901,-12.5036,-12.2879,-11.4773,0.0,0.0,0.0,0.0,0.0,0.0,0.0,0.0,0.0,0.0,0.0,0.0,0.0,0.0,0.0,0.0,0.0,0.0,0.0,0.0,0.0,0.0,0.0,0.0,0.0,0.0,0.0,-4.4242,0.0,0.0,0.0,0.0,0.0,0.0,0.0,0.0,0.0,0.0,0.0,0.0,0.0,0.0,-6.7385,-7.0083,-7.2624,-7.4512,0.0,0.0,-7.6896,-7.4977,-7.4104,-7.2185,0.0,0.0,0.0,0.0,0.0,0.0,0.0,0.0,0.0,0.0,0.0,0.0,0.0,0.0,0.0,0.0,0.0,0.0,0.0,0.0,0.0,0.0,0.0,0.0,0.0,0.0,0.0,0.0,0.0,0.0,0.0,0.0,0.0,0.0,0.0,0.0,0.0,0.0,0.0,0.0,0.0,0.0,0.0,0.0,0.0,0.0,0.0,0.0,0.0,0.0,0.0,0.0,0.0,0.0,-8.4314,-9.5336,-10.4262,-11.2122,-11.873,-12.1381,-12.1457,-11.9073,-11.165,-10.3233,0.0,0.0,0.0,0.0,0.0,0.0,0.0,0.0,0.0,0.0,0.0,0.0,0.0,0.0,0.0,0.0,0.0,0.0,0.0,0.0,0.0,0.0,0.0,0.0,0.0,0.0,0.0,0.0,0.0,0.0,0.0,0.0,0.0,0.0,0.0,0.0,0.0,0.0,0.0,0.0,0.0,0.0,-6.5266,-6.7822,0.0,0.0,0.0,-7.2825,-7.1312,0.0,0.0,0.0,0.0,0.0,0.0,0.0,0.0,0.0,0.0,0.0,0.0,0.0,0.0,0.0,0.0,0.0,0.0,0.0,0.0,0.0,0.0,0.0,0.0,0.0,0.0,0.0,0.0,0.0,0.0,0.0,0.0,0.0,0.0,0.0,0.0,0.0,0.0,0.0,0.0,0.0,0.0,0.0,0.0,0.0,0.0,0.0,0.0,0.0,0.0,0.0,0.0,0.0,0.0,0.0,0.0,0.0,-8.9531,-10.0675,-10.8985,-11.4243,-11.7482,-11.771,-11.4756,-10.8014,-9.9545,0.0,0.0,0.0,0.0,0.0,0.0,0.0,0.0,0.0,0.0,0.0,0.0,0.0,0.0,0.0,0.0,0.0,0.0,0.0,0.0,0.0,0.0,0.0,0.0,0.0,0.0,0.0,0.0,0.0,0.0,0.0,0.0,0.0,0.0,0.0,0.0,0.0,0.0,0.0,0.0,0.0,-5.6654,-6.0144,-6.282,-6.4856,0.0,0.0,-6.8113,-6.7881,-6.5845,0.0,0.0,0.0,0.0,0.0,0.0,0.0,0.0,0.0,0.0,0.0,0.0,0.0,0.0,0.0,0.0,0.0,0.0,0.0,0.0,0.0,0.0,0.0,0.0,0.0,0.0,0.0,0.0,0.0,0.0,0.0,0.0,0.0,0.0,0.0,0.0,0.0,0.0,0.0,0.0,0.0,0.0,0.0,0.0,0.0,0.0,0.0,0.0,0.0,0.0,0.0,0.0,0.0,0.0,0.0,0.0,-8.7635,-9.6694,-10.4924,-11.2332,-11.468,-11.5362,-11.4528,-10.6954,-9.7824,0.0,0.0,0.0,0.0,0.0,0.0,0.0,0.0,0.0,0.0,0.0,0.0,0.0,0.0,0.0,0.0,0.0,0.0,0.0,0.0,0.0,0.0,0.0,0.0,0.0,0.0,0.0,0.0,0.0,0.0,0.0,0.0,0.0,0.0,0.0,0.0,0.0,0.0,0.0,0.0,0.0,-5.4677,-5.648,-5.8865,0.0,0.0,0.0,0.0,-6.1424,-6.0028,0.0,0.0,0.0,0.0,0.0,0.0,0.0,0.0,0.0,0.0,0.0,0.0,0.0,0.0,0.0,0.0,0.0,0.0,0.0,0.0,0.0,0.0,0.0,0.0,0.0,0.0,0.0,0.0,0.0,0.0,0.0,0.0,0.0,0.0,0.0,0.0,0.0,0.0,0.0,0.0,0.0,0.0,0.0,0.0,0.0,0.0,0.0,0.0,0.0,0.0,0.0,0.0,0.0,0.0,0.0,0.0,-8.3531,-9.192,-10.0227,-10.8317,-11.1044,-11.1953,-11.1044,-10.453,-9.6141,0.0,0.0,0.0,0.0,0.0,0.0,0.0,0.0,0.0,0.0,0.0,0.0,0.0,0.0,0.0,0.0,0.0,0.0,0.0,0.0,0.0,0.0,0.0,0.0,0.0,0.0,0.0,0.0,0.0,0.0,0.0,0.0,0.0,0.0,0.0,0.0,0.0,0.0,0.0,0.0,-4.8893,-5.078,-5.3339,0.0,0.0,0.0,0.0,0.0,0.0,-5.5491,-5.4211,0.0,0.0,0.0,0.0,0.0,0.0,0.0,0.0,0.0,0.0,0.0,0.0,0.0,0.0,0.0,0.0,0.0,0.0,0.0,0.0,0.0,0.0,0.0,0.0,0.0,0.0,0.0,0.0,0.0,0.0,0.0,0.0,0.0,0.0,0.0,0.0,0.0,0.0,0.0,0.0,0.0,0.0,0.0,0.0,0.0,0.0,0.0,0.0,0.0,0.0,0.0,0.0,0.0,0.0,0.0,-7.9038,-8.7222,-9.5393,-10.3318,-10.6802,-10.7938,-10.6424,-10.1484,-9.376,-8.3162,0.0,0.0,0.0,0.0,0.0,0.0,0.0,0.0,0.0,0.0,0.0,0.0,0.0,0.0,0.0,0.0,0.0,0.0,0.0,0.0,0.0,0.0,0.0,0.0,0.0,0.0,0.0,0.0,0.0,0.0,0.0,0.0,0.0,0.0,0.0,0.0,0.0,0.0,0.0,-4.5312,-4.6766,0.0,0.0,0.0,0.0,0.0,0.0,0.0,0.0,-5.0605,0.0,0.0,0.0,0.0,0.0,0.0,0.0,0.0,0.0,0.0,0.0,0.0,0.0,0.0,0.0,0.0,0.0,0.0,0.0,0.0,0.0,0.0,0.0,0.0,0.0,0.0,0.0,0.0,0.0,0.0,0.0,0.0,0.0,0.0,0.0,0.0,0.0,0.0,0.0,0.0,0.0,0.0,0.0,0.0,0.0,0.0,0.0,0.0,0.0,0.0,0.0,0.0,0.0,0.0,0.0,0.0,-8.38,-9.1439,-9.8091,-10.1652,-10.3318,-10.2939,-9.7975,-8.9691,-7.795,0.0,0.0,0.0,0.0,0.0,0.0,0.0,0.0,0.0,0.0,0.0,0.0,0.0,0.0,0.0,0.0,0.0,0.0,0.0,0.0,0.0,0.0,0.0,0.0,0.0,0.0,0.0,0.0,0.0,0.0,0.0,0.0,0.0,0.0,0.0,0.0,0.0,0.0,-4.0891,-4.2985,0.0,0.0,0.0,0.0,0.0,0.0,0.0,0.0,-4.7142,0.0,0.0,0.0,0.0,0.0,0.0,0.0,0.0,0.0,0.0,0.0,0.0,0.0,0.0,0.0,0.0,0.0,0.0,0.0,0.0,0.0,0.0,0.0,0.0,0.0,0.0,0.0,0.0,0.0,0.0,0.0,0.0,0.0,0.0,0.0,0.0,0.0,0.0,0.0,0.0,0.0,0.0,0.0,0.0,0.0,0.0,0.0,0.0,0.0,0.0,0.0,0.0,0.0,0.0,0.0,0.0,0.0,0.0,-8.7866,-9.4456,-9.7864,-9.9152,-9.8091,-9.1339,-8.3186,0.0,0.0,0.0,0.0,0.0,0.0,0.0,0.0,0.0,0.0,0.0,0.0,0.0,0.0,0.0,0.0,0.0,0.0,0.0,0.0,0.0,0.0,0.0,0.0,0.0,0.0,0.0,0.0,0.0,0.0,0.0,0.0,0.0,0.0,0.0,0.0,0.0,0.0,0.0,0.0,0.0,0.0,0.0,0.0,0.0,0.0,0.0,0.0,0.0,0.0,0.0,0.0,0.0,0.0,0.0,0.0,0.0,0.0,0.0,0.0,0.0,0.0,0.0,0.0,0.0,0.0,0.0,0.0,0.0,0.0,0.0,0.0,0.0,0.0,0.0,0.0,0.0,0.0,0.0,0.0,0.0,0.0,0.0,0.0,0.0,0.0,0.0,0.0,0.0,0.0,0.0,0.0,0.0,0.0,0.0,0.0,0.0,0.0,0.0,0.0,0.0,0.0,0.0,0.0,0.0,0.0,0.0,0.0,-8.3775,-8.9987,-9.3395,-9.429,-9.2593,-8.3904,-7.6196,0.0,0.0,0.0,0.0,0.0,0.0,0.0,0.0,0.0,0.0,0.0,0.0,0.0,0.0,0.0,0.0,0.0,0.0,0.0,0.0,0.0,0.0,0.0,0.0,0.0,0.0,0.0,0.0,0.0,0.0,0.0,0.0,0.0,0.0,0.0,0.0,0.0,0.0,0.0,0.0,0.0,0.0,0.0,0.0,0.0,0.0,0.0,0.0,-4.0932,0.0,0.0,0.0,0.0,0.0,0.0,0.0,0.0,0.0,0.0,0.0,0.0,0.0,0.0,0.0,0.0,0.0,0.0,0.0,0.0,0.0,0.0,0.0,0.0,0.0,0.0,0.0,0.0,0.0,0.0,0.0,0.0,0.0,0.0,0.0,0.0,0.0,0.0,0.0,0.0,0.0,0.0,0.0,0.0,0.0,0.0,0.0,0.0,0.0,0.0,0.0,0.0,0.0,0.0,0.0,0.0,0.0,0.0,0.0,-7.8094,-8.3169,-8.6578,-8.7369,-8.5332,-7.6724,-6.9629,0.0,0.0,0.0,0.0,0.0,0.0,0.0,0.0,0.0,0.0,0.0,0.0,0.0,0.0,0.0,0.0,0.0,0.0,0.0,0.0,0.0,0.0,0.0,0.0,0.0,0.0,0.0,0.0,0.0,0.0,0.0,0.0,0.0,0.0,0.0,0.0,0.0,0.0,0.0,0.0,0.0,0.0,0.0,0.0,0.0,0.0,0.0,0.0,0.0,0.0,0.0,0.0,0.0,0.0,0.0,0.0,0.0,0.0,0.0,0.0,0.0,0.0,0.0,0.0,0.0,0.0,0.0,0.0,0.0,0.0,0.0,0.0,0.0,0.0,0.0,0.0,0.0,0.0,0.0,0.0,0.0,0.0,0.0,0.0,0.0,0.0,0.0,0.0,0.0,0.0,0.0,0.0,0.0,0.0,0.0,0.0,0.0,0.0,0.0,0.0,0.0,0.0,0.0,0.0,0.0,0.0,0.0,0.0,-7.4837,-7.7867,-8.1043,-7.9913,-7.4174,-7.0146,-6.5759,0.0,0.0,0.0,0.0,0.0,0.0,0.0,0.0,0.0,0.0,0.0,0.0,0.0,0.0,0.0,0.0,0.0,0.0,0.0,0.0,0.0,0.0,0.0,0.0,0.0,0.0,0.0,0.0,0.0,0.0,0.0,0.0,0.0,0.0,0.0,0.0,0.0,0.0,0.0,0.0,0.0,0.0,0.0,0.0,0.0,0.0,0.0,0.0,0.0,0.0,0.0,0.0,0.0,0.0,0.0,0.0,0.0,0.0,0.0,0.0,0.0,0.0,0.0,0.0,0.0,0.0,0.0,0.0,0.0,0.0,0.0,0.0,0.0,0.0,0.0,0.0,0.0,0.0,0.0,0.0,0.0,0.0,0.0,0.0,0.0,0.0,0.0,0.0,0.0,0.0,0.0,0.0,0.0,0.0,0.0,0.0,0.0,0.0,0.0,0.0,0.0,0.0,0.0,0.0,0.0,0.0,0.0,0.0,0.0,-7.2769,-7.3644,-7.097,-6.4705,-6.3782,-6.1394,0.0,0.0,0.0,0.0,0.0,0.0,0.0,0.0,0.0,0.0,0.0,0.0,0.0,0.0,0.0,0.0,0.0,0.0,0.0,0.0,0.0,0.0,0.0,0.0,0.0,0.0,0.0,0.0,0.0,0.0,0.0,0.0,0.0,0.0,0.0,0.0,0.0,0.0,0.0,0.0,0.0,0.0,0.0,0.0,0.0,0.0,0.0,0.0,0.0,0.0,0.0,0.0,0.0,0.0,0.0,0.0,0.0,0.0,0.0,0.0,0.0,0.0,0.0,0.0,0.0,0.0,0.0,0.0,0.0,0.0,0.0,0.0,0.0,0.0,0.0,0.0,0.0,0.0,0.0,0.0,0.0,0.0,0.0,0.0,0.0,0.0,0.0,0.0,0.0,0.0,0.0,0.0,0.0,0.0,0.0,0.0,0.0,0.0,0.0,0.0,0.0,0.0,0.0,0.0,0.0,0.0,0.0,0.0,0.0,-6.7637,-6.2803,-6.0009,-5.9207,-5.7396,-5.5508,0.0,0.0,0.0,0.0,0.0,0.0,0.0,0.0,0.0,0.0,0.0,0.0,0.0,0.0,0.0,0.0,0.0,0.0,0.0,0.0,0.0,0.0,0.0,0.0,0.0,0.0,0.0,0.0,0.0,0.0,0.0,0.0,0.0,0.0,0.0,0.0,0.0,0.0,0.0,0.0,0.0,0.0,0.0,0.0,0.0,0.0,0.0,0.0,0.0,0.0,0.0,0.0,0.0,0.0,0.0,0.0,0.0,0.0,0.0,0.0,0.0,0.0,0.0,0.0,0.0,0.0,0.0,0.0,0.0,0.0,0.0,0.0,0.0,0.0,0.0,0.0,0.0,0.0,0.0,0.0,0.0,0.0,0.0,0.0,0.0,0.0,0.0,0.0,0.0,0.0,0.0,0.0,0.0,0.0,0.0,0.0,0.0,0.0,0.0,0.0,0.0,0.0,0.0,0.0,0.0,0.0,0.0,0.0,0.0,-5.9379,-5.7412,-5.6134,-5.5793,-5.5037,-5.3666,-5.197,0.0,0.0,0.0,0.0,0.0,0.0,0.0,0.0,0.0,0.0,0.0,0.0,0.0,0.0,0.0,0.0,0.0,0.0,0.0,0.0,0.0,0.0,0.0,0.0,0.0,0.0,0.0,0.0,0.0,0.0,0.0,0.0,0.0,0.0,0.0,0.0,0.0,0.0,0.0,0.0,0.0,0.0,0.0,0.0,0.0,0.0,0.0,0.0,0.0,0.0,0.0,0.0,0.0,0.0,0.0,0.0,0.0,0.0,0.0,0.0,0.0,0.0,0.0,0.0,0.0,0.0,0.0,0.0,0.0,0.0,0.0,0.0,0.0,0.0,0.0,0.0,0.0,0.0,0.0,0.0,0.0,0.0,0.0,0.0,0.0,0.0,0.0,0.0,0.0,0.0,0.0,0.0,0.0,0.0,0.0,0.0,0.0,0.0,0.0,0.0,0.0,0.0,0.0,0.0,0.0,0.0,0.0,0.0,-5.321,-5.305,-5.2785,-5.2432,-5.2257,-5.1595,0.0,0.0,0.0,0.0,0.0,0.0,0.0,0.0,0.0,0.0,0.0,0.0,0.0,0.0,0.0,0.0,0.0,0.0,0.0,0.0,0.0,0.0,0.0,0.0,0.0,0.0,0.0,0.0,0.0,0.0,0.0,0.0,0.0,0.0,0.0,0.0,0.0,0.0,0.0,0.0,0.0,0.0,0.0,0.0,0.0,0.0,0.0,0.0,0.0,0.0,0.0,0.0,0.0,0.0,0.0,0.0,0.0,0.0,0.0,0.0,0.0,0.0,0.0,0.0,0.0,0.0,0.0,0.0,0.0,0.0,0.0,0.0,0.0,0.0,0.0,0.0,0.0,0.0,0.0,0.0,0.0,0.0,0.0,0.0,0.0,0.0,0.0,0.0,0.0,0.0,0.0,0.0,0.0,0.0,0.0,0.0,0.0,0.0,0.0,0.0,0.0,0.0,0.0,0.0,0.0,0.0,0.0,0.0,-4.8353,-4.9578,-4.9477,-4.9352,-4.8832,-4.8903,-4.873,0.0,0.0,0.0,0.0,0.0,0.0,0.0,0.0,0.0,0.0,0.0,0.0,0.0,0.0,0.0,0.0,0.0,0.0,0.0,0.0,0.0,0.0,0.0,0.0,0.0,0.0,0.0,0.0,0.0,0.0,0.0,0.0,0.0,0.0,0.0,0.0,0.0,0.0,0.0,0.0,0.0,0.0,0.0,0.0,0.0,0.0,0.0,0.0,0.0,0.0,0.0,0.0,0.0,0.0,0.0,0.0,0.0,0.0,0.0,0.0,0.0,0.0,0.0,0.0,0.0,0.0,0.0,0.0,0.0,0.0,0.0,0.0,0.0,0.0,0.0,0.0,0.0,0.0,0.0,0.0,0.0,0.0,0.0,0.0,0.0,0.0,0.0,0.0,0.0,0.0,0.0,0.0,0.0,0.0,0.0,0.0,0.0,0.0,0.0,0.0,0.0,0.0,0.0,0.0,0.0,0.0,0.0,0.0,0.0,-4.9706,0.0,-4.9356,-4.9203,-4.897,-4.8283,0.0,0.0,0.0,0.0,0.0,0.0,0.0,0.0,0.0,0.0,0.0,0.0,0.0,0.0,0.0,0.0,0.0,0.0,0.0,0.0,0.0,0.0,0.0,0.0,0.0,0.0,0.0,0.0,0.0,0.0,0.0,0.0,0.0,0.0,0.0,0.0,0.0,0.0,0.0,0.0,0.0,0.0,0.0,0.0,0.0,0.0,0.0,0.0,0.0,0.0,0.0,0.0,0.0,0.0,0.0,0.0,0.0,0.0,0.0,0.0,0.0,0.0,0.0,0.0,0.0,0.0,0.0,0.0,0.0,0.0,0.0,0.0,0.0,0.0,0.0,0.0,0.0,0.0,0.0,0.0,0.0,0.0,0.0,0.0,0.0,0.0,0.0,0.0,0.0,0.0,0.0,0.0,0.0,0.0,0.0,0.0,0.0,0.0,0.0,0.0,0.0,0.0,0.0,0.0,0.0,0.0,0.0,0.0,0.0,-4.9841,-4.9782,-4.9578,-4.9339,-4.9106,-4.8083,0.0,0.0,0.0,0.0,0.0,0.0,0.0,0.0,0.0,0.0,0.0,0.0,0.0,0.0,0.0,0.0,0.0,0.0,0.0,0.0,0.0,0.0,0.0,0.0,0.0,0.0,0.0,0.0,0.0,0.0,0.0,0.0,0.0,0.0,0.0,0.0,0.0,0.0,0.0,0.0,0.0,0.0,0.0,0.0,0.0,0.0,0.0,0.0,0.0,0.0,0.0,0.0,0.0,0.0,0.0,0.0,0.0,0.0,0.0,0.0,0.0,0.0,0.0,0.0,0.0,0.0,0.0,0.0,0.0,0.0,0.0,0.0,0.0,0.0,0.0,0.0,0.0,0.0,0.0,0.0,0.0,0.0,0.0,0.0,0.0,0.0,0.0,0.0,0.0,0.0,0.0,0.0,0.0,0.0,0.0,0.0,0.0,0.0,0.0,0.0,0.0,0.0,0.0,0.0,0.0,0.0,0.0,0.0,0.0,-4.9841,-4.9985,-4.9733,-4.9355,-4.8907,-4.7844,0.0,0.0,0.0,0.0,0.0,0.0,0.0,0.0,0.0,0.0,0.0,0.0,0.0,0.0,0.0,0.0,0.0,0.0,0.0,0.0,0.0,0.0,0.0,0.0,0.0,0.0,0.0,0.0,0.0,0.0,0.0,0.0,0.0,0.0,0.0,0.0,0.0,0.0,0.0,0.0,0.0,0.0,0.0,0.0,0.0,0.0,0.0,0.0,0.0,0.0,0.0,0.0,0.0,0.0,0.0,0.0,0.0,0.0,0.0,0.0,0.0,0.0,0.0,0.0,0.0,0.0,0.0,0.0,0.0,0.0,0.0,0.0,0.0,0.0,0.0,0.0,0.0,0.0,0.0,0.0,0.0,0.0,0.0,0.0,0.0,0.0,0.0,0.0,0.0,0.0,0.0,0.0,0.0,0.0,0.0,0.0,0.0,0.0,0.0,0.0,0.0,0.0,0.0,0.0,0.0,0.0,0.0,0.0,0.0,0.0,-4.9773,-4.9578,-4.9295,-4.7811,-4.6143,-4.4448,0.0,0.0,0.0,0.0,0.0,0.0,0.0,0.0,0.0,0.0,0.0,0.0,0.0,0.0,0.0,0.0,0.0,0.0,0.0,0.0,0.0,0.0,0.0,0.0,0.0,0.0,0.0,0.0,0.0,0.0,0.0,0.0,0.0,0.0,0.0,0.0,0.0,0.0,0.0,0.0,0.0,0.0,0.0,0.0,0.0,0.0,0.0,0.0,0.0,0.0,0.0,0.0,0.0,0.0,0.0,0.0,0.0,0.0,0.0,0.0,0.0,0.0,0.0,0.0,0.0,0.0,0.0,0.0,0.0,0.0,0.0,0.0,0.0,0.0,0.0,0.0,0.0,0.0,0.0,0.0,0.0,0.0,0.0,0.0,0.0,0.0,0.0,0.0,0.0,0.0,0.0,0.0,0.0,0.0,0.0,0.0,0.0,0.0,0.0,0.0,0.0,0.0,0.0,0.0,0.0,0.0,0.0,0.0,0.0,0.0,-4.9554,-4.9401,-4.7484,-4.5316,0.0,0.0,0.0,0.0,0.0,0.0,0.0,0.0,0.0,0.0,0.0,0.0,0.0,0.0,0.0,0.0,0.0,0.0,0.0,0.0,0.0,0.0,0.0,0.0,0.0,0.0,0.0,0.0,0.0,0.0,0.0,0.0,0.0,0.0,0.0,0.0,0.0,0.0,0.0,0.0,0.0,0.0,0.0,0.0,0.0,0.0,0.0,0.0,0.0,0.0,0.0,0.0,0.0,0.0,0.0,0.0,0.0,0.0,0.0,0.0,0.0,0.0,0.0,0.0,0.0,0.0,0.0,0.0,0.0,0.0,0.0,0.0,0.0,0.0,0.0,0.0,0.0,0.0,0.0,0.0,0.0,0.0,0.0,0.0,0.0,0.0,0.0,0.0,0.0,0.0,0.0,0.0,0.0,0.0,0.0,0.0,0.0,0.0,0.0,0.0,0.0,0.0,0.0,0.0,0.0,0.0,0.0,0.0,0.0,0.0,0.0,-4.939,-4.9101,-4.752,0.0,-4.1685,0.0,0.0,0.0,0.0,0.0,0.0,0.0,0.0,0.0,0.0,0.0,0.0,0.0,0.0,0.0,0.0,0.0,0.0,0.0,0.0,0.0,0.0,0.0,0.0,0.0,0.0,0.0,0.0,0.0,0.0,0.0,0.0,0.0,0.0,0.0,0.0,0.0,0.0,0.0,0.0,0.0,0.0,0.0,0.0,0.0,0.0,0.0,0.0,0.0,0.0,0.0,0.0,0.0,0.0,0.0,0.0,0.0,0.0,0.0,0.0,0.0,0.0,0.0,0.0,0.0,0.0,0.0,0.0,0.0,0.0,0.0,0.0,0.0,0.0,0.0,0.0,0.0,0.0,0.0,0.0,0.0,0.0,0.0,0.0,0.0,0.0,0.0,0.0,0.0,0.0,0.0,0.0,0.0,0.0,0.0,0.0,0.0,0.0,0.0,0.0,0.0,0.0,0.0,0.0,0.0,0.0,0.0,0.0,0.0,0.0,0.0,0.0,-4.6754,-4.4806,-4.159,0.0,0.0,0.0,0.0,0.0,0.0,0.0,0.0,0.0,0.0,0.0,0.0,0.0,0.0,0.0,0.0,0.0,0.0,0.0,0.0,0.0,0.0,0.0,0.0,0.0,0.0,0.0,0.0,0.0,0.0,0.0,0.0,0.0,0.0,0.0,0.0,0.0,0.0,0.0,0.0,0.0,0.0,0.0,0.0,0.0,0.0,0.0,0.0,0.0,0.0,0.0,0.0,0.0,0.0,0.0,0.0,0.0,0.0,0.0,0.0,0.0,0.0,0.0,0.0,0.0,0.0,0.0,0.0,0.0,0.0,0.0,0.0,0.0,0.0,0.0,0.0,0.0,0.0,0.0,0.0,0.0,0.0,0.0,0.0,0.0,0.0,0.0,0.0,0.0,0.0,0.0,0.0,0.0,0.0,0.0,0.0,0.0,0.0,0.0,0.0,0.0,0.0,0.0,0.0,0.0,0.0,0.0,0.0,0.0,0.0,-4.7522,-4.5853,-4.4703,-4.3229,-4.1506,0.0,0.0,0.0,0.0,0.0,0.0,0.0,0.0,0.0,0.0,0.0,0.0,0.0,0.0,0.0,0.0,0.0,0.0,0.0,0.0,0.0,0.0,0.0,0.0,0.0,0.0,0.0,0.0,0.0,0.0,0.0,0.0,0.0,0.0,0.0,0.0,0.0,0.0,0.0,0.0,0.0,0.0,0.0,0.0,0.0,0.0,0.0,0.0,0.0,0.0,0.0,0.0,0.0,0.0,0.0,0.0,0.0,0.0,0.0,0.0,0.0,0.0,0.0,0.0,0.0,0.0,0.0,0.0,0.0,0.0,0.0,0.0,0.0,0.0,0.0,0.0,0.0,0.0,0.0,0.0,0.0,0.0,0.0,0.0,0.0,0.0,0.0,0.0,0.0,0.0,0.0,0.0,0.0,0.0,0.0,0.0,0.0,0.0,0.0,0.0,0.0,0.0,0.0,0.0,0.0,0.0,0.0,0.0,0.0,0.0,0.0,0.0,0.0,0.0,-4.1049,0.0,0.0,0.0,0.0,0.0,0.0,0.0,0.0,0.0,0.0,0.0,0.0,0.0,0.0,0.0,0.0,0.0,0.0,0.0,0.0,0.0,0.0,0.0,0.0,0.0,0.0,0.0,0.0,0.0,0.0,0.0,0.0,0.0,0.0,0.0,0.0,0.0,0.0,0.0,0.0,0.0,0.0,0.0,0.0,0.0,0.0,0.0,0.0,0.0,0.0,0.0,0.0,0.0,0.0,0.0,0.0,0.0,0.0,0.0,0.0,0.0,0.0,0.0,0.0,0.0,0.0,0.0,0.0,0.0,0.0,0.0,0.0,0.0,0.0,0.0,0.0,0.0,0.0,0.0,0.0,0.0,0.0,0.0,0.0,0.0,0.0,0.0,0.0,0.0,0.0,0.0,0.0,0.0,0.0,0.0,0.0,0.0,0.0,0.0,0.0,0.0,0.0,0.0,0.0,0.0,0.0,0.0,0.0,0.0,0.0,0.0,0.0,0.0,0.0,0.0,0.0,0.0,0.0,0.0,0.0,0.0,0.0,0.0,0.0,0.0,0.0,0.0,0.0,0.0,0.0,0.0,0.0,0.0,0.0,0.0,0.0,0.0,0.0,0.0,0.0,0.0,0.0,0.0,0.0,0.0,0.0,0.0,0.0,0.0,0.0,0.0,0.0,0.0,0.0,0.0,0.0,0.0,0.0,0.0,0.0,0.0,0.0,0.0,0.0,0.0,0.0,0.0,0.0,0.0,0.0,0.0,0.0,0.0,0.0,0.0,0.0,0.0,0.0,0.0,0.0,0.0,0.0,0.0,0.0,0.0,0.0,0.0,0.0,0.0,0.0,0.0,0.0,0.0,0.0,0.0,0.0,0.0,0.0,0.0,0.0,0.0,0.0,0.0,0.0,0.0,0.0,0.0,0.0,0.0,0.0,0.0,0.0,0.0,0.0,0.0,0.0,0.0,0.0,0.0,0.0,0.0,0.0,0.0,0.0,0.0,0.0,0.0,0.0,0.0,0.0,0.0,0.0,0.0,0.0,0.0,0.0,0.0,0.0,0.0,0.0,0.0,0.0,0.0,0.0,0.0,0.0,0.0,0.0,0.0,0.0,0.0,0.0,0.0,0.0,0.0,0.0,0.0,0.0,0.0,0.0,0.0,0.0,0.0,0.0,0.0,0.0,0.0,0.0,0.0,0.0,0.0,0.0,0.0,0.0,0.0,0.0,0.0,0.0,0.0,0.0,0.0,0.0,0.0,0.0,0.0,0.0,0.0,0.0,0.0,0.0,0.0,0.0,0.0,0.0,0.0,0.0,0.0,0.0,0.0,0.0,0.0,0.0,0.0,0.0,0.0,0.0,0.0,0.0,0.0,0.0,0.0,0.0,0.0,0.0,0.0,0.0,0.0,0.0,0.0,0.0,0.0,0.0,0.0,0.0,0.0,0.0,0.0,0.0,0.0,0.0,0.0,0.0,0.0,0.0,0.0,0.0,0.0,0.0,0.0,0.0,0.0,0.0,0.0,0.0,0.0,0.0,0.0,0.0,0.0,0.0,0.0,0.0,0.0,0.0,0.0,0.0,0.0,0.0,0.0,0.0,0.0,0.0,0.0,0.0,0.0,0.0,0.0,0.0,0.0,0.0,0.0,0.0,0.0,0.0,0.0,0.0,0.0,0.0,0.0,0.0,0.0,0.0,0.0,0.0,0.0,0.0,0.0,0.0,0.0,0.0,0.0,0.0,0.0,0.0,0.0,0.0,0.0,0.0,0.0,0.0,0.0,0.0,0.0,0.0,0.0,0.0,0.0,0.0,0.0,0.0,0.0,0.0,0.0,0.0,0.0,0.0,0.0,0.0,0.0,0.0,0.0,0.0,0.0,0.0,0.0,0.0,0.0,0.0,0.0,0.0,0.0,0.0,0.0,0.0,0.0,0.0,0.0,0.0,0.0,0.0,0.0,0.0,0.0,0.0,0.0,0.0,0.0,0.0,0.0,0.0,0.0,0.0,0.0,0.0,0.0,0.0,0.0,0.0,0.0,0.0,0.0,0.0,0.0,0.0,0.0,0.0,0.0,0.0,0.0,0.0,0.0,0.0,0.0,0.0,0.0,0.0,0.0,0.0,0.0,0.0,0.0,0.0,0.0,0.0,0.0,0.0,0.0,0.0,0.0,0.0,0.0,0.0,0.0,0.0,0.0,0.0,0.0,0.0,0.0,0.0,0.0,0.0,0.0,0.0,0.0,0.0,0.0,0.0,0.0,0.0,0.0,0.0,0.0,0.0,0.0,0.0,0.0,0.0,0.0,0.0,0.0,0.0,0.0,0.0,0.0,0.0,0.0,0.0,0.0,0.0,0.0,0.0,0.0,0.0,0.0,0.0,0.0,0.0,0.0,0.0,0.0,0.0,0.0,0.0,0.0,0.0,0.0,0.0,0.0,0.0,0.0,0.0,0.0,0.0,0.0,0.0,0.0,0.0,0.0,0.0,0.0,0.0,0.0,0.0,0.0,0.0,0.0,0.0,0.0,0.0,0.0,0.0,0.0,0.0,0.0,0.0,0.0,0.0,0.0,0.0,0.0,0.0,0.0,0.0,0.0,0.0,0.0,0.0,0.0,0.0,0.0,0.0,0.0,0.0,0.0,0.0,0.0,0.0,0.0,0.0,0.0,0.0,0.0,0.0,0.0,0.0,0.0,0.0,0.0,0.0,0.0,0.0,0.0,0.0,0.0,0.0,0.0,0.0,0.0,0.0,0.0,0.0,0.0,0.0,0.0,0.0,0.0,0.0,0.0,0.0,0.0,0.0,0.0,0.0,0.0,0.0,0.0,0.0,0.0,0.0,0.0,0.0,0.0,0.0,0.0,0.0,0.0,0.0,0.0,0.0,0.0,0.0,0.0,0.0,0.0,0.0,0.0,0.0,0.0,0.0,0.0,0.0,0.0,0.0,0.0,0.0,0.0,0.0,0.0,0.0,0.0,0.0,0.0,0.0,0.0,0.0,0.0,0.0,0.0,0.0,0.0,0.0,0.0,0.0,0.0,0.0,0.0,0.0,0.0,0.0,0.0,0.0,0.0,0.0,0.0,0.0,0.0,0.0,0.0,0.0,0.0,0.0,0.0,0.0,0.0,0.0,0.0,0.0,0.0,0.0,0.0,0.0,0.0,0.0,0.0,0.0,0.0,0.0,0.0,0.0,0.0,0.0,0.0,0.0,0.0,0.0,0.0,0.0,0.0,0.0,0.0,0.0,0.0,0.0,0.0,0.0,0.0,0.0,0.0,0.0,0.0,0.0,0.0,0.0,0.0,0.0,0.0,0.0,0.0,0.0,0.0,0.0,0.0,0.0,0.0,0.0,0.0,0.0,0.0,0.0,0.0,0.0,0.0,0.0,0.0,0.0,0.0,0.0,0.0,0.0,0.0,0.0,0.0,0.0,0.0,0.0,0.0,0.0,0.0,0.0,0.0,0.0,0.0,0.0,0.0,0.0,0.0,0.0,0.0,0.0,0.0,0.0,0.0,0.0,0.0,0.0,0.0,0.0,0.0,0.0,0.0,0.0,0.0,0.0,0.0,0.0,0.0,0.0,0.0,0.0,0.0,0.0,0.0,0.0,0.0,0.0,0.0,0.0,0.0,0.0,0.0,0.0,0.0,0.0,0.0,0.0,0.0,0.0,0.0,0.0,0.0,0.0,0.0,0.0,0.0,0.0,0.0,0.0,0.0,0.0,0.0,0.0,0.0,0.0,0.0,0.0,0.0,0.0,0.0,0.0,0.0,0.0,0.0,0.0,0.0,0.0,0.0,0.0,0.0,0.0,0.0,0.0,0.0,0.0,0.0,0.0,0.0,0.0,0.0,0.0,0.0,0.0,0.0,0.0,0.0,0.0,0.0,0.0,0.0,0.0,0.0,0.0,0.0,0.0,0.0,0.0,0.0,0.0,0.0,0.0,0.0,0.0,0.0,0.0,0.0,0.0,0.0,0.0,0.0,0.0,0.0,0.0,0.0,0.0,0.0,0.0,0.0,0.0,0.0,0.0,0.0,0.0,0.0,0.0,0.0,0.0,0.0,0.0,0.0,0.0,0.0,0.0,0.0,0.0,0.0,0.0,0.0,0.0,0.0,0.0,0.0,0.0,0.0,0.0,0.0,0.0,0.0,0.0,0.0,0.0,0.0,0.0,0.0,0.0,0.0,0.0,0.0,0.0,0.0,0.0,0.0,0.0,0.0,0.0,0.0,0.0,0.0,0.0,0.0,0.0,0.0,0.0,0.0,0.0,0.0,0.0,0.0,0.0,0.0,0.0,0.0,0.0,0.0,0.0,0.0,0.0,0.0,0.0,0.0,0.0,0.0,0.0,0.0,0.0,0.0,0.0,0.0,0.0]}]]]